<?xml version="1.0" encoding="UTF-8" standalone="no" ?>
<gpx xmlns="http://www.topografix.com/GPX/1/1" xmlns:xsi="http://www.w3.org/2001/XMLSchema-instance" xsi:schemaLocation="http://www.topografix.com/GPX/1/1 http://www.topografix.com/GPX/1/1/gpx.xsd" version="1.1" creator="VisuGPX - https://www.visugpx.com">
  <metadata>
    <name>VTT_NonTest_Montalieu_54km_1100D</name>
  </metadata>
  <trk>
    <name><![CDATA[VTT_NonTest_Montalieu_54km_1100D]]></name>
    <extensions>
      <line xmlns="http://www.topografix.com/GPX/gpx_style/0/2">
        <color>0000FF</color>
        <width>4</width>
      </line>
    </extensions>
    <trkseg>
      <trkpt lat="45.8243" lon="5.42091">
        <ele>205</ele>
        <time>2019-05-24T19:29:43.000Z</time>
      </trkpt>
      <trkpt lat="45.82424" lon="5.42097">
        <ele>205</ele>
        <time>2019-05-24T19:29:43.134Z</time>
      </trkpt>
      <trkpt lat="45.82412" lon="5.42094">
        <ele>204.8</ele>
        <time>2019-05-24T19:29:43.376Z</time>
      </trkpt>
      <trkpt lat="45.82402" lon="5.42087">
        <ele>204.5</ele>
        <time>2019-05-24T19:29:43.603Z</time>
      </trkpt>
      <trkpt lat="45.82372" lon="5.4205">
        <ele>205</ele>
        <time>2019-05-24T19:29:44.402Z</time>
      </trkpt>
      <trkpt lat="45.82354" lon="5.42036">
        <ele>204.9</ele>
        <time>2019-05-24T19:29:44.809Z</time>
      </trkpt>
      <trkpt lat="45.82328" lon="5.42021">
        <ele>204.9</ele>
        <time>2019-05-24T19:29:45.357Z</time>
      </trkpt>
      <trkpt lat="45.82303" lon="5.42013">
        <ele>204.6</ele>
        <time>2019-05-24T19:29:45.881Z</time>
      </trkpt>
      <trkpt lat="45.82288" lon="5.42014">
        <ele>204.8</ele>
        <time>2019-05-24T19:29:46.184Z</time>
      </trkpt>
      <trkpt lat="45.82272" lon="5.4202">
        <ele>204.9</ele>
        <time>2019-05-24T19:29:46.502Z</time>
      </trkpt>
      <trkpt lat="45.82263" lon="5.42018">
        <ele>204.7</ele>
        <time>2019-05-24T19:29:46.685Z</time>
      </trkpt>
      <trkpt lat="45.82246" lon="5.41982">
        <ele>205.4</ele>
        <time>2019-05-24T19:29:47.288Z</time>
      </trkpt>
      <trkpt lat="45.82229" lon="5.41963">
        <ele>204.7</ele>
        <time>2019-05-24T19:29:47.726Z</time>
      </trkpt>
      <trkpt lat="45.82204" lon="5.4194">
        <ele>205.1</ele>
        <time>2019-05-24T19:29:48.313Z</time>
      </trkpt>
      <trkpt lat="45.82194" lon="5.4194">
        <ele>204.9</ele>
        <time>2019-05-24T19:29:48.527Z</time>
      </trkpt>
      <trkpt lat="45.82155" lon="5.41975">
        <ele>203.9</ele>
        <time>2019-05-24T19:29:49.445Z</time>
      </trkpt>
      <trkpt lat="45.82151" lon="5.41975">
        <ele>203.9</ele>
        <time>2019-05-24T19:29:49.513Z</time>
      </trkpt>
      <trkpt lat="45.82143" lon="5.41972">
        <ele>204</ele>
        <time>2019-05-24T19:29:49.697Z</time>
      </trkpt>
      <trkpt lat="45.82132" lon="5.41973">
        <ele>204.2</ele>
        <time>2019-05-24T19:29:49.900Z</time>
      </trkpt>
      <trkpt lat="45.82079" lon="5.41959">
        <ele>203.9</ele>
        <time>2019-05-24T19:29:50.983Z</time>
      </trkpt>
      <trkpt lat="45.82064" lon="5.41954">
        <ele>203.7</ele>
        <time>2019-05-24T19:29:51.305Z</time>
      </trkpt>
      <trkpt lat="45.82036" lon="5.41941">
        <ele>203.9</ele>
        <time>2019-05-24T19:29:51.896Z</time>
      </trkpt>
      <trkpt lat="45.81997" lon="5.41931">
        <ele>203</ele>
        <time>2019-05-24T19:29:52.674Z</time>
      </trkpt>
      <trkpt lat="45.81972" lon="5.41919">
        <ele>203.9</ele>
        <time>2019-05-24T19:29:53.210Z</time>
      </trkpt>
      <trkpt lat="45.81882" lon="5.41888">
        <ele>203.9</ele>
        <time>2019-05-24T19:29:55.057Z</time>
      </trkpt>
      <trkpt lat="45.8187" lon="5.41882">
        <ele>203.7</ele>
        <time>2019-05-24T19:29:55.326Z</time>
      </trkpt>
      <trkpt lat="45.8185" lon="5.41867">
        <ele>203.4</ele>
        <time>2019-05-24T19:29:55.767Z</time>
      </trkpt>
      <trkpt lat="45.81829" lon="5.4186">
        <ele>203.8</ele>
        <time>2019-05-24T19:29:56.204Z</time>
      </trkpt>
      <trkpt lat="45.81752" lon="5.41806">
        <ele>203.9</ele>
        <time>2019-05-24T19:29:57.920Z</time>
      </trkpt>
      <trkpt lat="45.81682" lon="5.4176">
        <ele>203.1</ele>
        <time>2019-05-24T19:29:59.454Z</time>
      </trkpt>
      <trkpt lat="45.81657" lon="5.4174">
        <ele>203.5</ele>
        <time>2019-05-24T19:30:00.028Z</time>
      </trkpt>
      <trkpt lat="45.8164" lon="5.4173">
        <ele>203.9</ele>
        <time>2019-05-24T19:30:00.403Z</time>
      </trkpt>
      <trkpt lat="45.81626" lon="5.41709">
        <ele>203.6</ele>
        <time>2019-05-24T19:30:00.805Z</time>
      </trkpt>
      <trkpt lat="45.81614" lon="5.41694">
        <ele>202.2</ele>
        <time>2019-05-24T19:30:01.129Z</time>
      </trkpt>
      <trkpt lat="45.81562" lon="5.41658">
        <ele>203</ele>
        <time>2019-05-24T19:30:02.299Z</time>
      </trkpt>
      <trkpt lat="45.81558" lon="5.41654">
        <ele>203.3</ele>
        <time>2019-05-24T19:30:02.383Z</time>
      </trkpt>
      <trkpt lat="45.81558" lon="5.41645">
        <ele>203.7</ele>
        <time>2019-05-24T19:30:02.510Z</time>
      </trkpt>
      <trkpt lat="45.81569" lon="5.41645">
        <ele>203.2</ele>
        <time>2019-05-24T19:30:02.725Z</time>
      </trkpt>
      <trkpt lat="45.81583" lon="5.41657">
        <ele>201.8</ele>
        <time>2019-05-24T19:30:03.040Z</time>
      </trkpt>
      <trkpt lat="45.81594" lon="5.41655">
        <ele>201.9</ele>
        <time>2019-05-24T19:30:03.278Z</time>
      </trkpt>
      <trkpt lat="45.81602" lon="5.41646">
        <ele>202.2</ele>
        <time>2019-05-24T19:30:03.478Z</time>
      </trkpt>
      <trkpt lat="45.81601" lon="5.41627">
        <ele>203.2</ele>
        <time>2019-05-24T19:30:03.745Z</time>
      </trkpt>
      <trkpt lat="45.81576" lon="5.41526">
        <ele>203</ele>
        <time>2019-05-24T19:30:05.243Z</time>
      </trkpt>
      <trkpt lat="45.81553" lon="5.41417">
        <ele>203.9</ele>
        <time>2019-05-24T19:30:06.833Z</time>
      </trkpt>
      <trkpt lat="45.81515" lon="5.41293">
        <ele>204.3</ele>
        <time>2019-05-24T19:30:08.727Z</time>
      </trkpt>
      <trkpt lat="45.81498" lon="5.41244">
        <ele>204.8</ele>
        <time>2019-05-24T19:30:09.483Z</time>
      </trkpt>
      <trkpt lat="45.81492" lon="5.41232">
        <ele>204.5</ele>
        <time>2019-05-24T19:30:09.689Z</time>
      </trkpt>
      <trkpt lat="45.8149" lon="5.41232">
        <ele>204.6</ele>
        <time>2019-05-24T19:30:09.745Z</time>
      </trkpt>
      <trkpt lat="45.81486" lon="5.41246">
        <ele>204.9</ele>
        <time>2019-05-24T19:30:09.949Z</time>
      </trkpt>
      <trkpt lat="45.81481" lon="5.41355">
        <ele>205.9</ele>
        <time>2019-05-24T19:30:11.470Z</time>
      </trkpt>
      <trkpt lat="45.81474" lon="5.41381">
        <ele>208.2</ele>
        <time>2019-05-24T19:30:11.874Z</time>
      </trkpt>
      <trkpt lat="45.8146" lon="5.41406">
        <ele>210.9</ele>
        <time>2019-05-24T19:30:12.303Z</time>
      </trkpt>
      <trkpt lat="45.81453" lon="5.41416">
        <ele>211.8</ele>
        <time>2019-05-24T19:30:12.514Z</time>
      </trkpt>
      <trkpt lat="45.81407" lon="5.41455">
        <ele>213.3</ele>
        <time>2019-05-24T19:30:13.577Z</time>
      </trkpt>
      <trkpt lat="45.81323" lon="5.41519">
        <ele>216</ele>
        <time>2019-05-24T19:30:15.482Z</time>
      </trkpt>
      <trkpt lat="45.81293" lon="5.41544">
        <ele>215.7</ele>
        <time>2019-05-24T19:30:16.175Z</time>
      </trkpt>
      <trkpt lat="45.81259" lon="5.41567">
        <ele>215.6</ele>
        <time>2019-05-24T19:30:16.926Z</time>
      </trkpt>
      <trkpt lat="45.81225" lon="5.41585">
        <ele>215</ele>
        <time>2019-05-24T19:30:17.663Z</time>
      </trkpt>
      <trkpt lat="45.81179" lon="5.41613">
        <ele>215</ele>
        <time>2019-05-24T19:30:18.657Z</time>
      </trkpt>
      <trkpt lat="45.81128" lon="5.41641">
        <ele>215.4</ele>
        <time>2019-05-24T19:30:19.751Z</time>
      </trkpt>
      <trkpt lat="45.81073" lon="5.41676">
        <ele>216.2</ele>
        <time>2019-05-24T19:30:20.954Z</time>
      </trkpt>
      <trkpt lat="45.80981" lon="5.4174">
        <ele>216.2</ele>
        <time>2019-05-24T19:30:23.008Z</time>
      </trkpt>
      <trkpt lat="45.80924" lon="5.41786">
        <ele>215.9</ele>
        <time>2019-05-24T19:30:24.326Z</time>
      </trkpt>
      <trkpt lat="45.80869" lon="5.41824">
        <ele>216.1</ele>
        <time>2019-05-24T19:30:25.538Z</time>
      </trkpt>
      <trkpt lat="45.80844" lon="5.4184">
        <ele>216.6</ele>
        <time>2019-05-24T19:30:26.086Z</time>
      </trkpt>
      <trkpt lat="45.80839" lon="5.41839">
        <ele>216.8</ele>
        <time>2019-05-24T19:30:26.194Z</time>
      </trkpt>
      <trkpt lat="45.80827" lon="5.41825">
        <ele>217.2</ele>
        <time>2019-05-24T19:30:26.501Z</time>
      </trkpt>
      <trkpt lat="45.80666" lon="5.41428">
        <ele>217</ele>
        <time>2019-05-24T19:30:32.919Z</time>
      </trkpt>
      <trkpt lat="45.80658" lon="5.41411">
        <ele>216.8</ele>
        <time>2019-05-24T19:30:33.215Z</time>
      </trkpt>
      <trkpt lat="45.80654" lon="5.41409">
        <ele>216.7</ele>
        <time>2019-05-24T19:30:33.298Z</time>
      </trkpt>
      <trkpt lat="45.80619" lon="5.41429">
        <ele>217</ele>
        <time>2019-05-24T19:30:34.051Z</time>
      </trkpt>
      <trkpt lat="45.80613" lon="5.4143">
        <ele>217</ele>
        <time>2019-05-24T19:30:34.161Z</time>
      </trkpt>
      <trkpt lat="45.80603" lon="5.41432">
        <ele>217</ele>
        <time>2019-05-24T19:30:34.381Z</time>
      </trkpt>
      <trkpt lat="45.80555" lon="5.41427">
        <ele>218</ele>
        <time>2019-05-24T19:30:35.345Z</time>
      </trkpt>
      <trkpt lat="45.80549" lon="5.41429">
        <ele>218</ele>
        <time>2019-05-24T19:30:35.453Z</time>
      </trkpt>
      <trkpt lat="45.80501" lon="5.41452">
        <ele>218.3</ele>
        <time>2019-05-24T19:30:36.466Z</time>
      </trkpt>
      <trkpt lat="45.80465" lon="5.41467">
        <ele>217.8</ele>
        <time>2019-05-24T19:30:37.230Z</time>
      </trkpt>
      <trkpt lat="45.80449" lon="5.4148">
        <ele>218</ele>
        <time>2019-05-24T19:30:37.600Z</time>
      </trkpt>
      <trkpt lat="45.80435" lon="5.41486">
        <ele>218</ele>
        <time>2019-05-24T19:30:37.879Z</time>
      </trkpt>
      <trkpt lat="45.80415" lon="5.415">
        <ele>218</ele>
        <time>2019-05-24T19:30:38.333Z</time>
      </trkpt>
      <trkpt lat="45.80407" lon="5.41511">
        <ele>218.3</ele>
        <time>2019-05-24T19:30:38.555Z</time>
      </trkpt>
      <trkpt lat="45.80394" lon="5.41539">
        <ele>218.5</ele>
        <time>2019-05-24T19:30:39.030Z</time>
      </trkpt>
      <trkpt lat="45.80381" lon="5.41556">
        <ele>218.7</ele>
        <time>2019-05-24T19:30:39.383Z</time>
      </trkpt>
      <trkpt lat="45.80378" lon="5.41556">
        <ele>218.6</ele>
        <time>2019-05-24T19:30:39.443Z</time>
      </trkpt>
      <trkpt lat="45.80373" lon="5.41551">
        <ele>218.4</ele>
        <time>2019-05-24T19:30:39.570Z</time>
      </trkpt>
      <trkpt lat="45.80358" lon="5.41541">
        <ele>217.9</ele>
        <time>2019-05-24T19:30:39.895Z</time>
      </trkpt>
      <trkpt lat="45.80343" lon="5.41547">
        <ele>217.8</ele>
        <time>2019-05-24T19:30:40.208Z</time>
      </trkpt>
      <trkpt lat="45.80337" lon="5.41552">
        <ele>217.9</ele>
        <time>2019-05-24T19:30:40.365Z</time>
      </trkpt>
      <trkpt lat="45.80275" lon="5.41614">
        <ele>219</ele>
        <time>2019-05-24T19:30:41.868Z</time>
      </trkpt>
      <trkpt lat="45.80255" lon="5.41626">
        <ele>219</ele>
        <time>2019-05-24T19:30:42.302Z</time>
      </trkpt>
      <trkpt lat="45.80246" lon="5.41648">
        <ele>218.9</ele>
        <time>2019-05-24T19:30:42.659Z</time>
      </trkpt>
      <trkpt lat="45.80221" lon="5.41676">
        <ele>218.9</ele>
        <time>2019-05-24T19:30:43.306Z</time>
      </trkpt>
      <trkpt lat="45.80207" lon="5.41676">
        <ele>218.5</ele>
        <time>2019-05-24T19:30:43.575Z</time>
      </trkpt>
      <trkpt lat="45.80198" lon="5.41661">
        <ele>218.1</ele>
        <time>2019-05-24T19:30:43.864Z</time>
      </trkpt>
      <trkpt lat="45.80185" lon="5.4163">
        <ele>218</ele>
        <time>2019-05-24T19:30:44.367Z</time>
      </trkpt>
      <trkpt lat="45.8017" lon="5.41604">
        <ele>218</ele>
        <time>2019-05-24T19:30:44.834Z</time>
      </trkpt>
      <trkpt lat="45.80158" lon="5.41587">
        <ele>218</ele>
        <time>2019-05-24T19:30:45.176Z</time>
      </trkpt>
      <trkpt lat="45.80133" lon="5.41567">
        <ele>218.1</ele>
        <time>2019-05-24T19:30:45.752Z</time>
      </trkpt>
      <trkpt lat="45.80103" lon="5.41561">
        <ele>218.8</ele>
        <time>2019-05-24T19:30:46.347Z</time>
      </trkpt>
      <trkpt lat="45.80089" lon="5.41567">
        <ele>218.6</ele>
        <time>2019-05-24T19:30:46.642Z</time>
      </trkpt>
      <trkpt lat="45.80072" lon="5.41602">
        <ele>218.4</ele>
        <time>2019-05-24T19:30:47.251Z</time>
      </trkpt>
      <trkpt lat="45.80042" lon="5.41645">
        <ele>218.4</ele>
        <time>2019-05-24T19:30:48.094Z</time>
      </trkpt>
      <trkpt lat="45.79994" lon="5.41692">
        <ele>220.2</ele>
        <time>2019-05-24T19:30:49.251Z</time>
      </trkpt>
      <trkpt lat="45.79989" lon="5.41705">
        <ele>220.2</ele>
        <time>2019-05-24T19:30:49.462Z</time>
      </trkpt>
      <trkpt lat="45.79991" lon="5.41729">
        <ele>219.4</ele>
        <time>2019-05-24T19:30:49.800Z</time>
      </trkpt>
      <trkpt lat="45.80055" lon="5.41927">
        <ele>218.4</ele>
        <time>2019-05-24T19:30:52.849Z</time>
      </trkpt>
      <trkpt lat="45.80073" lon="5.41977">
        <ele>218.5</ele>
        <time>2019-05-24T19:30:53.641Z</time>
      </trkpt>
      <trkpt lat="45.80087" lon="5.42007">
        <ele>219</ele>
        <time>2019-05-24T19:30:54.153Z</time>
      </trkpt>
      <trkpt lat="45.80091" lon="5.42021">
        <ele>219</ele>
        <time>2019-05-24T19:30:54.358Z</time>
      </trkpt>
      <trkpt lat="45.80087" lon="5.42044">
        <ele>219.1</ele>
        <time>2019-05-24T19:30:54.686Z</time>
      </trkpt>
      <trkpt lat="45.80077" lon="5.42054">
        <ele>219</ele>
        <time>2019-05-24T19:30:54.925Z</time>
      </trkpt>
      <trkpt lat="45.80073" lon="5.42058">
        <ele>219</ele>
        <time>2019-05-24T19:30:55.019Z</time>
      </trkpt>
      <trkpt lat="45.80055" lon="5.42067">
        <ele>219</ele>
        <time>2019-05-24T19:30:55.416Z</time>
      </trkpt>
      <trkpt lat="45.80039" lon="5.42072">
        <ele>219</ele>
        <time>2019-05-24T19:30:55.729Z</time>
      </trkpt>
      <trkpt lat="45.79981" lon="5.4212">
        <ele>219</ele>
        <time>2019-05-24T19:30:57.075Z</time>
      </trkpt>
      <trkpt lat="45.79964" lon="5.42139">
        <ele>219</ele>
        <time>2019-05-24T19:30:57.507Z</time>
      </trkpt>
      <trkpt lat="45.79965" lon="5.42158">
        <ele>218.3</ele>
        <time>2019-05-24T19:30:57.784Z</time>
      </trkpt>
      <trkpt lat="45.79992" lon="5.42355">
        <ele>218.4</ele>
        <time>2019-05-24T19:31:00.591Z</time>
      </trkpt>
      <trkpt lat="45.80002" lon="5.42406">
        <ele>217.8</ele>
        <time>2019-05-24T19:31:01.333Z</time>
      </trkpt>
      <trkpt lat="45.80012" lon="5.42439">
        <ele>218.7</ele>
        <time>2019-05-24T19:31:01.827Z</time>
      </trkpt>
      <trkpt lat="45.80013" lon="5.42447">
        <ele>218.7</ele>
        <time>2019-05-24T19:31:01.934Z</time>
      </trkpt>
      <trkpt lat="45.80007" lon="5.42467">
        <ele>219.9</ele>
        <time>2019-05-24T19:31:02.242Z</time>
      </trkpt>
      <trkpt lat="45.79991" lon="5.42486">
        <ele>220.5</ele>
        <time>2019-05-24T19:31:02.661Z</time>
      </trkpt>
      <trkpt lat="45.79976" lon="5.42489">
        <ele>220.6</ele>
        <time>2019-05-24T19:31:02.974Z</time>
      </trkpt>
      <trkpt lat="45.79958" lon="5.42495">
        <ele>219.9</ele>
        <time>2019-05-24T19:31:03.338Z</time>
      </trkpt>
      <trkpt lat="45.79873" lon="5.42611">
        <ele>221</ele>
        <time>2019-05-24T19:31:05.691Z</time>
      </trkpt>
      <trkpt lat="45.79847" lon="5.42653">
        <ele>223.2</ele>
        <time>2019-05-24T19:31:06.473Z</time>
      </trkpt>
      <trkpt lat="45.79838" lon="5.42675">
        <ele>222.3</ele>
        <time>2019-05-24T19:31:06.828Z</time>
      </trkpt>
      <trkpt lat="45.79822" lon="5.42732">
        <ele>221.8</ele>
        <time>2019-05-24T19:31:07.685Z</time>
      </trkpt>
      <trkpt lat="45.79797" lon="5.42809">
        <ele>221.5</ele>
        <time>2019-05-24T19:31:08.887Z</time>
      </trkpt>
      <trkpt lat="45.79761" lon="5.42893">
        <ele>221.2</ele>
        <time>2019-05-24T19:31:10.260Z</time>
      </trkpt>
      <trkpt lat="45.79757" lon="5.429">
        <ele>221.1</ele>
        <time>2019-05-24T19:31:10.379Z</time>
      </trkpt>
      <trkpt lat="45.79707" lon="5.42959">
        <ele>221.7</ele>
        <time>2019-05-24T19:31:11.669Z</time>
      </trkpt>
      <trkpt lat="45.79665" lon="5.43023">
        <ele>222.9</ele>
        <time>2019-05-24T19:31:12.900Z</time>
      </trkpt>
      <trkpt lat="45.79625" lon="5.43054">
        <ele>222.4</ele>
        <time>2019-05-24T19:31:13.820Z</time>
      </trkpt>
      <trkpt lat="45.79553" lon="5.43088">
        <ele>223.8</ele>
        <time>2019-05-24T19:31:15.330Z</time>
      </trkpt>
      <trkpt lat="45.79459" lon="5.43135">
        <ele>223.3</ele>
        <time>2019-05-24T19:31:17.324Z</time>
      </trkpt>
      <trkpt lat="45.79422" lon="5.43165">
        <ele>222.4</ele>
        <time>2019-05-24T19:31:18.182Z</time>
      </trkpt>
      <trkpt lat="45.79378" lon="5.43212">
        <ele>223</ele>
        <time>2019-05-24T19:31:19.290Z</time>
      </trkpt>
      <trkpt lat="45.79325" lon="5.43289">
        <ele>223.8</ele>
        <time>2019-05-24T19:31:20.793Z</time>
      </trkpt>
      <trkpt lat="45.7932" lon="5.43304">
        <ele>224</ele>
        <time>2019-05-24T19:31:21.034Z</time>
      </trkpt>
      <trkpt lat="45.79304" lon="5.43389">
        <ele>226.9</ele>
        <time>2019-05-24T19:31:22.255Z</time>
      </trkpt>
      <trkpt lat="45.793" lon="5.43418">
        <ele>227.9</ele>
        <time>2019-05-24T19:31:22.674Z</time>
      </trkpt>
      <trkpt lat="45.79302" lon="5.4344">
        <ele>228.7</ele>
        <time>2019-05-24T19:31:22.978Z</time>
      </trkpt>
      <trkpt lat="45.79316" lon="5.43491">
        <ele>230.8</ele>
        <time>2019-05-24T19:31:23.746Z</time>
      </trkpt>
      <trkpt lat="45.79317" lon="5.43514">
        <ele>232</ele>
        <time>2019-05-24T19:31:24.071Z</time>
      </trkpt>
      <trkpt lat="45.79313" lon="5.43533">
        <ele>233.5</ele>
        <time>2019-05-24T19:31:24.349Z</time>
      </trkpt>
      <trkpt lat="45.79304" lon="5.43544">
        <ele>234.8</ele>
        <time>2019-05-24T19:31:24.585Z</time>
      </trkpt>
      <trkpt lat="45.79272" lon="5.43567">
        <ele>239.4</ele>
        <time>2019-05-24T19:31:25.303Z</time>
      </trkpt>
      <trkpt lat="45.79261" lon="5.43589">
        <ele>243.2</ele>
        <time>2019-05-24T19:31:25.692Z</time>
      </trkpt>
      <trkpt lat="45.79256" lon="5.4361">
        <ele>244.7</ele>
        <time>2019-05-24T19:31:25.999Z</time>
      </trkpt>
      <trkpt lat="45.79242" lon="5.4372">
        <ele>249.2</ele>
        <time>2019-05-24T19:31:27.562Z</time>
      </trkpt>
      <trkpt lat="45.7924" lon="5.43754">
        <ele>251.7</ele>
        <time>2019-05-24T19:31:28.040Z</time>
      </trkpt>
      <trkpt lat="45.79234" lon="5.43782">
        <ele>252.3</ele>
        <time>2019-05-24T19:31:28.446Z</time>
      </trkpt>
      <trkpt lat="45.79232" lon="5.43801">
        <ele>252.2</ele>
        <time>2019-05-24T19:31:28.717Z</time>
      </trkpt>
      <trkpt lat="45.79238" lon="5.43817">
        <ele>252.3</ele>
        <time>2019-05-24T19:31:28.955Z</time>
      </trkpt>
      <trkpt lat="45.79237" lon="5.43822">
        <ele>253</ele>
        <time>2019-05-24T19:31:29.037Z</time>
      </trkpt>
      <trkpt lat="45.79211" lon="5.43891">
        <ele>258.2</ele>
        <time>2019-05-24T19:31:30.123Z</time>
      </trkpt>
      <trkpt lat="45.79204" lon="5.43913">
        <ele>258.8</ele>
        <time>2019-05-24T19:31:30.455Z</time>
      </trkpt>
      <trkpt lat="45.79199" lon="5.43944">
        <ele>258.3</ele>
        <time>2019-05-24T19:31:30.910Z</time>
      </trkpt>
      <trkpt lat="45.79185" lon="5.43971">
        <ele>253.3</ele>
        <time>2019-05-24T19:31:31.366Z</time>
      </trkpt>
      <trkpt lat="45.79162" lon="5.44012">
        <ele>246.1</ele>
        <time>2019-05-24T19:31:32.111Z</time>
      </trkpt>
      <trkpt lat="45.79145" lon="5.44058">
        <ele>235.9</ele>
        <time>2019-05-24T19:31:32.842Z</time>
      </trkpt>
      <trkpt lat="45.79132" lon="5.44083">
        <ele>234.3</ele>
        <time>2019-05-24T19:31:33.275Z</time>
      </trkpt>
      <trkpt lat="45.79113" lon="5.44102">
        <ele>234</ele>
        <time>2019-05-24T19:31:33.741Z</time>
      </trkpt>
      <trkpt lat="45.79071" lon="5.44131">
        <ele>222.9</ele>
        <time>2019-05-24T19:31:34.674Z</time>
      </trkpt>
      <trkpt lat="45.79032" lon="5.44165">
        <ele>217.2</ele>
        <time>2019-05-24T19:31:35.592Z</time>
      </trkpt>
      <trkpt lat="45.78974" lon="5.44198">
        <ele>216.5</ele>
        <time>2019-05-24T19:31:36.833Z</time>
      </trkpt>
      <trkpt lat="45.78921" lon="5.44236">
        <ele>214.9</ele>
        <time>2019-05-24T19:31:38.016Z</time>
      </trkpt>
      <trkpt lat="45.78894" lon="5.44241">
        <ele>216</ele>
        <time>2019-05-24T19:31:38.566Z</time>
      </trkpt>
      <trkpt lat="45.78883" lon="5.44245">
        <ele>216.4</ele>
        <time>2019-05-24T19:31:38.798Z</time>
      </trkpt>
      <trkpt lat="45.78813" lon="5.44281">
        <ele>216.6</ele>
        <time>2019-05-24T19:31:40.294Z</time>
      </trkpt>
      <trkpt lat="45.78766" lon="5.4431">
        <ele>217.2</ele>
        <time>2019-05-24T19:31:41.316Z</time>
      </trkpt>
      <trkpt lat="45.78693" lon="5.44364">
        <ele>216.9</ele>
        <time>2019-05-24T19:31:42.961Z</time>
      </trkpt>
      <trkpt lat="45.78688" lon="5.44376">
        <ele>216.3</ele>
        <time>2019-05-24T19:31:43.154Z</time>
      </trkpt>
      <trkpt lat="45.7869" lon="5.44426">
        <ele>212.3</ele>
        <time>2019-05-24T19:31:43.865Z</time>
      </trkpt>
      <trkpt lat="45.78686" lon="5.44452">
        <ele>210</ele>
        <time>2019-05-24T19:31:44.228Z</time>
      </trkpt>
      <trkpt lat="45.78677" lon="5.44477">
        <ele>209</ele>
        <time>2019-05-24T19:31:44.620Z</time>
      </trkpt>
      <trkpt lat="45.78658" lon="5.44513">
        <ele>205.9</ele>
        <time>2019-05-24T19:31:45.259Z</time>
      </trkpt>
      <trkpt lat="45.78644" lon="5.44535">
        <ele>204.5</ele>
        <time>2019-05-24T19:31:45.669Z</time>
      </trkpt>
      <trkpt lat="45.7863" lon="5.44553">
        <ele>204.2</ele>
        <time>2019-05-24T19:31:46.057Z</time>
      </trkpt>
      <trkpt lat="45.78622" lon="5.4456">
        <ele>203.9</ele>
        <time>2019-05-24T19:31:46.245Z</time>
      </trkpt>
      <trkpt lat="45.78587" lon="5.44581">
        <ele>206.6</ele>
        <time>2019-05-24T19:31:47.007Z</time>
      </trkpt>
      <trkpt lat="45.78557" lon="5.44625">
        <ele>209.7</ele>
        <time>2019-05-24T19:31:47.863Z</time>
      </trkpt>
      <trkpt lat="45.78503" lon="5.44698">
        <ele>216</ele>
        <time>2019-05-24T19:31:49.347Z</time>
      </trkpt>
      <trkpt lat="45.78473" lon="5.44723">
        <ele>217.7</ele>
        <time>2019-05-24T19:31:50.043Z</time>
      </trkpt>
      <trkpt lat="45.78416" lon="5.44762">
        <ele>217.7</ele>
        <time>2019-05-24T19:31:51.302Z</time>
      </trkpt>
      <trkpt lat="45.78412" lon="5.44771">
        <ele>216.8</ele>
        <time>2019-05-24T19:31:51.454Z</time>
      </trkpt>
      <trkpt lat="45.7841" lon="5.44792">
        <ele>214.9</ele>
        <time>2019-05-24T19:31:51.750Z</time>
      </trkpt>
      <trkpt lat="45.78366" lon="5.44869">
        <ele>209.7</ele>
        <time>2019-05-24T19:31:53.144Z</time>
      </trkpt>
      <trkpt lat="45.78352" lon="5.44901">
        <ele>208.6</ele>
        <time>2019-05-24T19:31:53.661Z</time>
      </trkpt>
      <trkpt lat="45.78352" lon="5.4491">
        <ele>208.1</ele>
        <time>2019-05-24T19:31:53.792Z</time>
      </trkpt>
      <trkpt lat="45.78354" lon="5.44912">
        <ele>207.8</ele>
        <time>2019-05-24T19:31:53.838Z</time>
      </trkpt>
      <trkpt lat="45.78366" lon="5.44909">
        <ele>206.9</ele>
        <time>2019-05-24T19:31:54.095Z</time>
      </trkpt>
      <trkpt lat="45.78369" lon="5.4492">
        <ele>206.4</ele>
        <time>2019-05-24T19:31:54.257Z</time>
      </trkpt>
      <trkpt lat="45.78333" lon="5.44981">
        <ele>207</ele>
        <time>2019-05-24T19:31:55.360Z</time>
      </trkpt>
      <trkpt lat="45.78307" lon="5.45042">
        <ele>207.5</ele>
        <time>2019-05-24T19:31:56.364Z</time>
      </trkpt>
      <trkpt lat="45.78299" lon="5.45048">
        <ele>207.6</ele>
        <time>2019-05-24T19:31:56.534Z</time>
      </trkpt>
      <trkpt lat="45.78294" lon="5.45056">
        <ele>207.8</ele>
        <time>2019-05-24T19:31:56.685Z</time>
      </trkpt>
      <trkpt lat="45.78296" lon="5.45069">
        <ele>208</ele>
        <time>2019-05-24T19:31:56.866Z</time>
      </trkpt>
      <trkpt lat="45.78313" lon="5.45092">
        <ele>205.4</ele>
        <time>2019-05-24T19:31:57.343Z</time>
      </trkpt>
      <trkpt lat="45.78315" lon="5.45105">
        <ele>204.7</ele>
        <time>2019-05-24T19:31:57.527Z</time>
      </trkpt>
      <trkpt lat="45.78305" lon="5.45121">
        <ele>204.7</ele>
        <time>2019-05-24T19:31:57.825Z</time>
      </trkpt>
      <trkpt lat="45.7829" lon="5.45122">
        <ele>206.7</ele>
        <time>2019-05-24T19:31:58.138Z</time>
      </trkpt>
      <trkpt lat="45.78266" lon="5.45116">
        <ele>208</ele>
        <time>2019-05-24T19:31:58.615Z</time>
      </trkpt>
      <trkpt lat="45.78208" lon="5.45076">
        <ele>209.3</ele>
        <time>2019-05-24T19:31:59.911Z</time>
      </trkpt>
      <trkpt lat="45.78192" lon="5.45062">
        <ele>210.3</ele>
        <time>2019-05-24T19:32:00.272Z</time>
      </trkpt>
      <trkpt lat="45.78182" lon="5.4505">
        <ele>211.3</ele>
        <time>2019-05-24T19:32:00.540Z</time>
      </trkpt>
      <trkpt lat="45.7818" lon="5.45045">
        <ele>211.6</ele>
        <time>2019-05-24T19:32:00.634Z</time>
      </trkpt>
      <trkpt lat="45.78182" lon="5.45037">
        <ele>211.9</ele>
        <time>2019-05-24T19:32:00.750Z</time>
      </trkpt>
      <trkpt lat="45.78193" lon="5.45039">
        <ele>211.6</ele>
        <time>2019-05-24T19:32:00.956Z</time>
      </trkpt>
      <trkpt lat="45.78265" lon="5.45092">
        <ele>210.1</ele>
        <time>2019-05-24T19:32:02.581Z</time>
      </trkpt>
      <trkpt lat="45.78543" lon="5.45284">
        <ele>207</ele>
        <time>2019-05-24T19:32:08.760Z</time>
      </trkpt>
      <trkpt lat="45.78632" lon="5.45357">
        <ele>208.6</ele>
        <time>2019-05-24T19:32:10.823Z</time>
      </trkpt>
      <trkpt lat="45.7864" lon="5.45366">
        <ele>208.9</ele>
        <time>2019-05-24T19:32:11.028Z</time>
      </trkpt>
      <trkpt lat="45.78643" lon="5.45371">
        <ele>208.7</ele>
        <time>2019-05-24T19:32:11.128Z</time>
      </trkpt>
      <trkpt lat="45.78645" lon="5.45393">
        <ele>208.3</ele>
        <time>2019-05-24T19:32:11.434Z</time>
      </trkpt>
      <trkpt lat="45.7864" lon="5.45416">
        <ele>209</ele>
        <time>2019-05-24T19:32:11.769Z</time>
      </trkpt>
      <trkpt lat="45.78639" lon="5.4544">
        <ele>209</ele>
        <time>2019-05-24T19:32:12.102Z</time>
      </trkpt>
      <trkpt lat="45.78634" lon="5.45585">
        <ele>208.8</ele>
        <time>2019-05-24T19:32:14.136Z</time>
      </trkpt>
      <trkpt lat="45.78642" lon="5.45725">
        <ele>210</ele>
        <time>2019-05-24T19:32:16.090Z</time>
      </trkpt>
      <trkpt lat="45.78641" lon="5.45759">
        <ele>210</ele>
        <time>2019-05-24T19:32:16.567Z</time>
      </trkpt>
      <trkpt lat="45.78636" lon="5.4581">
        <ele>209.9</ele>
        <time>2019-05-24T19:32:17.293Z</time>
      </trkpt>
      <trkpt lat="45.78624" lon="5.45881">
        <ele>209</ele>
        <time>2019-05-24T19:32:18.305Z</time>
      </trkpt>
      <trkpt lat="45.78601" lon="5.46069">
        <ele>207.8</ele>
        <time>2019-05-24T19:32:20.977Z</time>
      </trkpt>
      <trkpt lat="45.78601" lon="5.46114">
        <ele>207.6</ele>
        <time>2019-05-24T19:32:21.605Z</time>
      </trkpt>
      <trkpt lat="45.78594" lon="5.46177">
        <ele>207.2</ele>
        <time>2019-05-24T19:32:22.499Z</time>
      </trkpt>
      <trkpt lat="45.78596" lon="5.46228">
        <ele>207.4</ele>
        <time>2019-05-24T19:32:23.209Z</time>
      </trkpt>
      <trkpt lat="45.78604" lon="5.46294">
        <ele>206.9</ele>
        <time>2019-05-24T19:32:24.152Z</time>
      </trkpt>
      <trkpt lat="45.78611" lon="5.46366">
        <ele>208.2</ele>
        <time>2019-05-24T19:32:25.161Z</time>
      </trkpt>
      <trkpt lat="45.7861" lon="5.46416">
        <ele>209.9</ele>
        <time>2019-05-24T19:32:25.857Z</time>
      </trkpt>
      <trkpt lat="45.78598" lon="5.46486">
        <ele>212.8</ele>
        <time>2019-05-24T19:32:26.868Z</time>
      </trkpt>
      <trkpt lat="45.78589" lon="5.46504">
        <ele>212.8</ele>
        <time>2019-05-24T19:32:27.171Z</time>
      </trkpt>
      <trkpt lat="45.78568" lon="5.46534">
        <ele>214.6</ele>
        <time>2019-05-24T19:32:27.764Z</time>
      </trkpt>
      <trkpt lat="45.7856" lon="5.4655">
        <ele>216.3</ele>
        <time>2019-05-24T19:32:28.052Z</time>
      </trkpt>
      <trkpt lat="45.78544" lon="5.46574">
        <ele>218.2</ele>
        <time>2019-05-24T19:32:28.501Z</time>
      </trkpt>
      <trkpt lat="45.78543" lon="5.46585">
        <ele>219.6</ele>
        <time>2019-05-24T19:32:28.654Z</time>
      </trkpt>
      <trkpt lat="45.78544" lon="5.46591">
        <ele>220</ele>
        <time>2019-05-24T19:32:28.742Z</time>
      </trkpt>
      <trkpt lat="45.78548" lon="5.46597">
        <ele>220.6</ele>
        <time>2019-05-24T19:32:28.864Z</time>
      </trkpt>
      <trkpt lat="45.78552" lon="5.46599">
        <ele>220.9</ele>
        <time>2019-05-24T19:32:28.943Z</time>
      </trkpt>
      <trkpt lat="45.78561" lon="5.46595">
        <ele>221.1</ele>
        <time>2019-05-24T19:32:29.144Z</time>
      </trkpt>
      <trkpt lat="45.78592" lon="5.46569">
        <ele>219.9</ele>
        <time>2019-05-24T19:32:29.853Z</time>
      </trkpt>
      <trkpt lat="45.78669" lon="5.46499">
        <ele>220.2</ele>
        <time>2019-05-24T19:32:31.680Z</time>
      </trkpt>
      <trkpt lat="45.78711" lon="5.46458">
        <ele>221.8</ele>
        <time>2019-05-24T19:32:32.705Z</time>
      </trkpt>
      <trkpt lat="45.78725" lon="5.46453">
        <ele>222.3</ele>
        <time>2019-05-24T19:32:32.996Z</time>
      </trkpt>
      <trkpt lat="45.78731" lon="5.46454">
        <ele>223.4</ele>
        <time>2019-05-24T19:32:33.122Z</time>
      </trkpt>
      <trkpt lat="45.78732" lon="5.46459">
        <ele>224.2</ele>
        <time>2019-05-24T19:32:33.193Z</time>
      </trkpt>
      <trkpt lat="45.78725" lon="5.46468">
        <ele>223.9</ele>
        <time>2019-05-24T19:32:33.390Z</time>
      </trkpt>
      <trkpt lat="45.78705" lon="5.465">
        <ele>226.5</ele>
        <time>2019-05-24T19:32:33.992Z</time>
      </trkpt>
      <trkpt lat="45.78689" lon="5.46521">
        <ele>227.1</ele>
        <time>2019-05-24T19:32:34.415Z</time>
      </trkpt>
      <trkpt lat="45.78627" lon="5.46592">
        <ele>231.4</ele>
        <time>2019-05-24T19:32:36.017Z</time>
      </trkpt>
      <trkpt lat="45.78561" lon="5.4668">
        <ele>237.6</ele>
        <time>2019-05-24T19:32:37.820Z</time>
      </trkpt>
      <trkpt lat="45.78539" lon="5.46714">
        <ele>239.9</ele>
        <time>2019-05-24T19:32:38.477Z</time>
      </trkpt>
      <trkpt lat="45.78528" lon="5.46739">
        <ele>241.8</ele>
        <time>2019-05-24T19:32:38.879Z</time>
      </trkpt>
      <trkpt lat="45.78521" lon="5.46752">
        <ele>242.8</ele>
        <time>2019-05-24T19:32:39.110Z</time>
      </trkpt>
      <trkpt lat="45.78472" lon="5.46821">
        <ele>245.7</ele>
        <time>2019-05-24T19:32:40.493Z</time>
      </trkpt>
      <trkpt lat="45.7843" lon="5.46907">
        <ele>252.3</ele>
        <time>2019-05-24T19:32:41.957Z</time>
      </trkpt>
      <trkpt lat="45.78419" lon="5.46946">
        <ele>255.7</ele>
        <time>2019-05-24T19:32:42.547Z</time>
      </trkpt>
      <trkpt lat="45.78393" lon="5.4702">
        <ele>261.3</ele>
        <time>2019-05-24T19:32:43.703Z</time>
      </trkpt>
      <trkpt lat="45.7838" lon="5.47068">
        <ele>264.6</ele>
        <time>2019-05-24T19:32:44.427Z</time>
      </trkpt>
      <trkpt lat="45.78363" lon="5.4711">
        <ele>265.3</ele>
        <time>2019-05-24T19:32:45.103Z</time>
      </trkpt>
      <trkpt lat="45.78343" lon="5.47144">
        <ele>267.4</ele>
        <time>2019-05-24T19:32:45.722Z</time>
      </trkpt>
      <trkpt lat="45.78301" lon="5.47203">
        <ele>268.2</ele>
        <time>2019-05-24T19:32:46.898Z</time>
      </trkpt>
      <trkpt lat="45.78289" lon="5.47217">
        <ele>269.1</ele>
        <time>2019-05-24T19:32:47.210Z</time>
      </trkpt>
      <trkpt lat="45.78258" lon="5.47264">
        <ele>270.9</ele>
        <time>2019-05-24T19:32:48.107Z</time>
      </trkpt>
      <trkpt lat="45.7823" lon="5.47301">
        <ele>272.7</ele>
        <time>2019-05-24T19:32:48.874Z</time>
      </trkpt>
      <trkpt lat="45.78207" lon="5.47327">
        <ele>275.5</ele>
        <time>2019-05-24T19:32:49.464Z</time>
      </trkpt>
      <trkpt lat="45.78195" lon="5.47336">
        <ele>276.2</ele>
        <time>2019-05-24T19:32:49.732Z</time>
      </trkpt>
      <trkpt lat="45.78153" lon="5.47362">
        <ele>276.6</ele>
        <time>2019-05-24T19:32:50.648Z</time>
      </trkpt>
      <trkpt lat="45.78086" lon="5.4741">
        <ele>276.3</ele>
        <time>2019-05-24T19:32:52.148Z</time>
      </trkpt>
      <trkpt lat="45.78058" lon="5.47426">
        <ele>275</ele>
        <time>2019-05-24T19:32:52.765Z</time>
      </trkpt>
      <trkpt lat="45.78026" lon="5.47452">
        <ele>274.1</ele>
        <time>2019-05-24T19:32:53.493Z</time>
      </trkpt>
      <trkpt lat="45.78005" lon="5.47464">
        <ele>274.7</ele>
        <time>2019-05-24T19:32:53.940Z</time>
      </trkpt>
      <trkpt lat="45.77995" lon="5.47468">
        <ele>274.7</ele>
        <time>2019-05-24T19:32:54.157Z</time>
      </trkpt>
      <trkpt lat="45.77942" lon="5.47497">
        <ele>276.5</ele>
        <time>2019-05-24T19:32:55.300Z</time>
      </trkpt>
      <trkpt lat="45.77871" lon="5.47544">
        <ele>279</ele>
        <time>2019-05-24T19:32:56.864Z</time>
      </trkpt>
      <trkpt lat="45.77841" lon="5.47561">
        <ele>279.9</ele>
        <time>2019-05-24T19:32:57.512Z</time>
      </trkpt>
      <trkpt lat="45.77828" lon="5.47569">
        <ele>279.5</ele>
        <time>2019-05-24T19:32:57.785Z</time>
      </trkpt>
      <trkpt lat="45.77821" lon="5.47577">
        <ele>278.9</ele>
        <time>2019-05-24T19:32:57.970Z</time>
      </trkpt>
      <trkpt lat="45.77795" lon="5.47612">
        <ele>276.8</ele>
        <time>2019-05-24T19:32:58.682Z</time>
      </trkpt>
      <trkpt lat="45.77756" lon="5.47658">
        <ele>273.3</ele>
        <time>2019-05-24T19:32:59.697Z</time>
      </trkpt>
      <trkpt lat="45.77728" lon="5.47704">
        <ele>272.1</ele>
        <time>2019-05-24T19:33:00.545Z</time>
      </trkpt>
      <trkpt lat="45.77719" lon="5.47723">
        <ele>272.2</ele>
        <time>2019-05-24T19:33:00.864Z</time>
      </trkpt>
      <trkpt lat="45.77716" lon="5.47722">
        <ele>272.5</ele>
        <time>2019-05-24T19:33:00.926Z</time>
      </trkpt>
      <trkpt lat="45.77718" lon="5.47684">
        <ele>271.1</ele>
        <time>2019-05-24T19:33:01.455Z</time>
      </trkpt>
      <trkpt lat="45.77717" lon="5.47682">
        <ele>270.8</ele>
        <time>2019-05-24T19:33:01.496Z</time>
      </trkpt>
      <trkpt lat="45.77714" lon="5.47681">
        <ele>270.7</ele>
        <time>2019-05-24T19:33:01.556Z</time>
      </trkpt>
      <trkpt lat="45.77714" lon="5.477">
        <ele>272.1</ele>
        <time>2019-05-24T19:33:01.816Z</time>
      </trkpt>
      <trkpt lat="45.77711" lon="5.47711">
        <ele>272.5</ele>
        <time>2019-05-24T19:33:01.977Z</time>
      </trkpt>
      <trkpt lat="45.77694" lon="5.47722">
        <ele>274</ele>
        <time>2019-05-24T19:33:02.355Z</time>
      </trkpt>
      <trkpt lat="45.77623" lon="5.47794">
        <ele>273.9</ele>
        <time>2019-05-24T19:33:04.107Z</time>
      </trkpt>
      <trkpt lat="45.77605" lon="5.47814">
        <ele>274.8</ele>
        <time>2019-05-24T19:33:04.550Z</time>
      </trkpt>
      <trkpt lat="45.77595" lon="5.47834">
        <ele>274.3</ele>
        <time>2019-05-24T19:33:04.902Z</time>
      </trkpt>
      <trkpt lat="45.7757" lon="5.47868">
        <ele>277.6</ele>
        <time>2019-05-24T19:33:05.584Z</time>
      </trkpt>
      <trkpt lat="45.77562" lon="5.47875">
        <ele>278.8</ele>
        <time>2019-05-24T19:33:05.784Z</time>
      </trkpt>
      <trkpt lat="45.77532" lon="5.47877">
        <ele>281.2</ele>
        <time>2019-05-24T19:33:06.387Z</time>
      </trkpt>
      <trkpt lat="45.77518" lon="5.47883">
        <ele>281.9</ele>
        <time>2019-05-24T19:33:06.663Z</time>
      </trkpt>
      <trkpt lat="45.77511" lon="5.47887">
        <ele>282.2</ele>
        <time>2019-05-24T19:33:06.817Z</time>
      </trkpt>
      <trkpt lat="45.77499" lon="5.47898">
        <ele>283.4</ele>
        <time>2019-05-24T19:33:07.106Z</time>
      </trkpt>
      <trkpt lat="45.7749" lon="5.47908">
        <ele>285.4</ele>
        <time>2019-05-24T19:33:07.343Z</time>
      </trkpt>
      <trkpt lat="45.77461" lon="5.47953">
        <ele>289.4</ele>
        <time>2019-05-24T19:33:08.193Z</time>
      </trkpt>
      <trkpt lat="45.77455" lon="5.47967">
        <ele>289.3</ele>
        <time>2019-05-24T19:33:08.425Z</time>
      </trkpt>
      <trkpt lat="45.7745" lon="5.48036">
        <ele>293.7</ele>
        <time>2019-05-24T19:33:09.385Z</time>
      </trkpt>
      <trkpt lat="45.77452" lon="5.4805">
        <ele>294.4</ele>
        <time>2019-05-24T19:33:09.591Z</time>
      </trkpt>
      <trkpt lat="45.77459" lon="5.48059">
        <ele>295.4</ele>
        <time>2019-05-24T19:33:09.774Z</time>
      </trkpt>
      <trkpt lat="45.77474" lon="5.48073">
        <ele>297.3</ele>
        <time>2019-05-24T19:33:10.127Z</time>
      </trkpt>
      <trkpt lat="45.77488" lon="5.48075">
        <ele>298.3</ele>
        <time>2019-05-24T19:33:10.411Z</time>
      </trkpt>
      <trkpt lat="45.77499" lon="5.48069">
        <ele>297.9</ele>
        <time>2019-05-24T19:33:10.654Z</time>
      </trkpt>
      <trkpt lat="45.77506" lon="5.48069">
        <ele>297.5</ele>
        <time>2019-05-24T19:33:10.782Z</time>
      </trkpt>
      <trkpt lat="45.77547" lon="5.48082">
        <ele>297.5</ele>
        <time>2019-05-24T19:33:11.630Z</time>
      </trkpt>
      <trkpt lat="45.77559" lon="5.48076">
        <ele>296.7</ele>
        <time>2019-05-24T19:33:11.890Z</time>
      </trkpt>
      <trkpt lat="45.77562" lon="5.48084">
        <ele>296.7</ele>
        <time>2019-05-24T19:33:12.018Z</time>
      </trkpt>
      <trkpt lat="45.77563" lon="5.48106">
        <ele>291.9</ele>
        <time>2019-05-24T19:33:12.328Z</time>
      </trkpt>
      <trkpt lat="45.77559" lon="5.48126">
        <ele>287.3</ele>
        <time>2019-05-24T19:33:12.626Z</time>
      </trkpt>
      <trkpt lat="45.77564" lon="5.48151">
        <ele>281.3</ele>
        <time>2019-05-24T19:33:12.982Z</time>
      </trkpt>
      <trkpt lat="45.77569" lon="5.48165">
        <ele>277.7</ele>
        <time>2019-05-24T19:33:13.211Z</time>
      </trkpt>
      <trkpt lat="45.7757" lon="5.48175">
        <ele>276.1</ele>
        <time>2019-05-24T19:33:13.341Z</time>
      </trkpt>
      <trkpt lat="45.77567" lon="5.48187">
        <ele>274.6</ele>
        <time>2019-05-24T19:33:13.525Z</time>
      </trkpt>
      <trkpt lat="45.77569" lon="5.48205">
        <ele>271.9</ele>
        <time>2019-05-24T19:33:13.779Z</time>
      </trkpt>
      <trkpt lat="45.77588" lon="5.4825">
        <ele>268.8</ele>
        <time>2019-05-24T19:33:14.515Z</time>
      </trkpt>
      <trkpt lat="45.77595" lon="5.48263">
        <ele>268.3</ele>
        <time>2019-05-24T19:33:14.739Z</time>
      </trkpt>
      <trkpt lat="45.77603" lon="5.48287">
        <ele>267.8</ele>
        <time>2019-05-24T19:33:15.123Z</time>
      </trkpt>
      <trkpt lat="45.77611" lon="5.48299">
        <ele>267.2</ele>
        <time>2019-05-24T19:33:15.352Z</time>
      </trkpt>
      <trkpt lat="45.77625" lon="5.48304">
        <ele>267</ele>
        <time>2019-05-24T19:33:15.641Z</time>
      </trkpt>
      <trkpt lat="45.77627" lon="5.48308">
        <ele>267</ele>
        <time>2019-05-24T19:33:15.695Z</time>
      </trkpt>
      <trkpt lat="45.77622" lon="5.48318">
        <ele>267</ele>
        <time>2019-05-24T19:33:15.866Z</time>
      </trkpt>
      <trkpt lat="45.77609" lon="5.48339">
        <ele>267.1</ele>
        <time>2019-05-24T19:33:16.268Z</time>
      </trkpt>
      <trkpt lat="45.77591" lon="5.48387">
        <ele>267</ele>
        <time>2019-05-24T19:33:17.027Z</time>
      </trkpt>
      <trkpt lat="45.77579" lon="5.48412">
        <ele>267</ele>
        <time>2019-05-24T19:33:17.452Z</time>
      </trkpt>
      <trkpt lat="45.77533" lon="5.48488">
        <ele>267</ele>
        <time>2019-05-24T19:33:18.855Z</time>
      </trkpt>
      <trkpt lat="45.77508" lon="5.48514">
        <ele>267</ele>
        <time>2019-05-24T19:33:19.476Z</time>
      </trkpt>
      <trkpt lat="45.77486" lon="5.48552">
        <ele>267.9</ele>
        <time>2019-05-24T19:33:20.156Z</time>
      </trkpt>
      <trkpt lat="45.77484" lon="5.48564">
        <ele>269</ele>
        <time>2019-05-24T19:33:20.340Z</time>
      </trkpt>
      <trkpt lat="45.7749" lon="5.4857">
        <ele>269.6</ele>
        <time>2019-05-24T19:33:20.487Z</time>
      </trkpt>
      <trkpt lat="45.77506" lon="5.48576">
        <ele>270.8</ele>
        <time>2019-05-24T19:33:20.829Z</time>
      </trkpt>
      <trkpt lat="45.77529" lon="5.48579">
        <ele>274.2</ele>
        <time>2019-05-24T19:33:21.283Z</time>
      </trkpt>
      <trkpt lat="45.77552" lon="5.48578">
        <ele>277.1</ele>
        <time>2019-05-24T19:33:21.754Z</time>
      </trkpt>
      <trkpt lat="45.77562" lon="5.4858">
        <ele>278</ele>
        <time>2019-05-24T19:33:21.943Z</time>
      </trkpt>
      <trkpt lat="45.77573" lon="5.48586">
        <ele>279.3</ele>
        <time>2019-05-24T19:33:22.190Z</time>
      </trkpt>
      <trkpt lat="45.77589" lon="5.48598">
        <ele>279.8</ele>
        <time>2019-05-24T19:33:22.553Z</time>
      </trkpt>
      <trkpt lat="45.77602" lon="5.48613">
        <ele>279.6</ele>
        <time>2019-05-24T19:33:22.883Z</time>
      </trkpt>
      <trkpt lat="45.77612" lon="5.48634">
        <ele>280.3</ele>
        <time>2019-05-24T19:33:23.244Z</time>
      </trkpt>
      <trkpt lat="45.77632" lon="5.48663">
        <ele>280.1</ele>
        <time>2019-05-24T19:33:23.807Z</time>
      </trkpt>
      <trkpt lat="45.77679" lon="5.48721">
        <ele>280.9</ele>
        <time>2019-05-24T19:33:25.053Z</time>
      </trkpt>
      <trkpt lat="45.77699" lon="5.4875">
        <ele>283</ele>
        <time>2019-05-24T19:33:25.619Z</time>
      </trkpt>
      <trkpt lat="45.77723" lon="5.48796">
        <ele>287.1</ele>
        <time>2019-05-24T19:33:26.430Z</time>
      </trkpt>
      <trkpt lat="45.77723" lon="5.48799">
        <ele>287.3</ele>
        <time>2019-05-24T19:33:26.465Z</time>
      </trkpt>
      <trkpt lat="45.77717" lon="5.48808">
        <ele>288.1</ele>
        <time>2019-05-24T19:33:26.648Z</time>
      </trkpt>
      <trkpt lat="45.77657" lon="5.48871">
        <ele>291.7</ele>
        <time>2019-05-24T19:33:28.124Z</time>
      </trkpt>
      <trkpt lat="45.77632" lon="5.48905">
        <ele>293.6</ele>
        <time>2019-05-24T19:33:28.827Z</time>
      </trkpt>
      <trkpt lat="45.77553" lon="5.48985">
        <ele>298.2</ele>
        <time>2019-05-24T19:33:30.764Z</time>
      </trkpt>
      <trkpt lat="45.77503" lon="5.4904">
        <ele>303</ele>
        <time>2019-05-24T19:33:32.030Z</time>
      </trkpt>
      <trkpt lat="45.77494" lon="5.49048">
        <ele>303.8</ele>
        <time>2019-05-24T19:33:32.243Z</time>
      </trkpt>
      <trkpt lat="45.77424" lon="5.49085">
        <ele>304.8</ele>
        <time>2019-05-24T19:33:33.722Z</time>
      </trkpt>
      <trkpt lat="45.77413" lon="5.49093">
        <ele>305.7</ele>
        <time>2019-05-24T19:33:33.987Z</time>
      </trkpt>
      <trkpt lat="45.77378" lon="5.49128">
        <ele>309.8</ele>
        <time>2019-05-24T19:33:34.835Z</time>
      </trkpt>
      <trkpt lat="45.77349" lon="5.49149">
        <ele>314</ele>
        <time>2019-05-24T19:33:35.491Z</time>
      </trkpt>
      <trkpt lat="45.77322" lon="5.49163">
        <ele>317</ele>
        <time>2019-05-24T19:33:36.067Z</time>
      </trkpt>
      <trkpt lat="45.77273" lon="5.49183">
        <ele>323.5</ele>
        <time>2019-05-24T19:33:37.083Z</time>
      </trkpt>
      <trkpt lat="45.77251" lon="5.49198">
        <ele>324.7</ele>
        <time>2019-05-24T19:33:37.568Z</time>
      </trkpt>
      <trkpt lat="45.77234" lon="5.49219">
        <ele>325.8</ele>
        <time>2019-05-24T19:33:38.012Z</time>
      </trkpt>
      <trkpt lat="45.77204" lon="5.49271">
        <ele>328.2</ele>
        <time>2019-05-24T19:33:38.964Z</time>
      </trkpt>
      <trkpt lat="45.77179" lon="5.49321">
        <ele>330.7</ele>
        <time>2019-05-24T19:33:39.818Z</time>
      </trkpt>
      <trkpt lat="45.77146" lon="5.49358">
        <ele>330.7</ele>
        <time>2019-05-24T19:33:40.656Z</time>
      </trkpt>
      <trkpt lat="45.77065" lon="5.49435">
        <ele>332.4</ele>
        <time>2019-05-24T19:33:42.606Z</time>
      </trkpt>
      <trkpt lat="45.77032" lon="5.49481">
        <ele>332.5</ele>
        <time>2019-05-24T19:33:43.537Z</time>
      </trkpt>
      <trkpt lat="45.76997" lon="5.4952">
        <ele>332.3</ele>
        <time>2019-05-24T19:33:44.422Z</time>
      </trkpt>
      <trkpt lat="45.76979" lon="5.49535">
        <ele>332.1</ele>
        <time>2019-05-24T19:33:44.845Z</time>
      </trkpt>
      <trkpt lat="45.7694" lon="5.49557">
        <ele>332.6</ele>
        <time>2019-05-24T19:33:45.687Z</time>
      </trkpt>
      <trkpt lat="45.76911" lon="5.49584">
        <ele>337</ele>
        <time>2019-05-24T19:33:46.365Z</time>
      </trkpt>
      <trkpt lat="45.76894" lon="5.49607">
        <ele>341.7</ele>
        <time>2019-05-24T19:33:46.847Z</time>
      </trkpt>
      <trkpt lat="45.76885" lon="5.49624">
        <ele>344.7</ele>
        <time>2019-05-24T19:33:47.140Z</time>
      </trkpt>
      <trkpt lat="45.76879" lon="5.49641">
        <ele>347.6</ele>
        <time>2019-05-24T19:33:47.402Z</time>
      </trkpt>
      <trkpt lat="45.76871" lon="5.49674">
        <ele>351.2</ele>
        <time>2019-05-24T19:33:47.896Z</time>
      </trkpt>
      <trkpt lat="45.76854" lon="5.49713">
        <ele>355.5</ele>
        <time>2019-05-24T19:33:48.545Z</time>
      </trkpt>
      <trkpt lat="45.76806" lon="5.49771">
        <ele>361.8</ele>
        <time>2019-05-24T19:33:49.790Z</time>
      </trkpt>
      <trkpt lat="45.76767" lon="5.49812">
        <ele>364.8</ele>
        <time>2019-05-24T19:33:50.775Z</time>
      </trkpt>
      <trkpt lat="45.7675" lon="5.49826">
        <ele>365.3</ele>
        <time>2019-05-24T19:33:51.160Z</time>
      </trkpt>
      <trkpt lat="45.76724" lon="5.49862">
        <ele>370.9</ele>
        <time>2019-05-24T19:33:51.892Z</time>
      </trkpt>
      <trkpt lat="45.76704" lon="5.49886">
        <ele>374</ele>
        <time>2019-05-24T19:33:52.401Z</time>
      </trkpt>
      <trkpt lat="45.76698" lon="5.499">
        <ele>376.3</ele>
        <time>2019-05-24T19:33:52.646Z</time>
      </trkpt>
      <trkpt lat="45.76685" lon="5.49938">
        <ele>382.1</ele>
        <time>2019-05-24T19:33:53.220Z</time>
      </trkpt>
      <trkpt lat="45.76673" lon="5.49956">
        <ele>383.7</ele>
        <time>2019-05-24T19:33:53.583Z</time>
      </trkpt>
      <trkpt lat="45.76621" lon="5.50043">
        <ele>397</ele>
        <time>2019-05-24T19:33:55.181Z</time>
      </trkpt>
      <trkpt lat="45.76589" lon="5.50093">
        <ele>404.8</ele>
        <time>2019-05-24T19:33:56.130Z</time>
      </trkpt>
      <trkpt lat="45.76509" lon="5.50164">
        <ele>408.6</ele>
        <time>2019-05-24T19:33:58.007Z</time>
      </trkpt>
      <trkpt lat="45.76457" lon="5.50233">
        <ele>414</ele>
        <time>2019-05-24T19:33:59.427Z</time>
      </trkpt>
      <trkpt lat="45.76424" lon="5.50264">
        <ele>411.4</ele>
        <time>2019-05-24T19:34:00.232Z</time>
      </trkpt>
      <trkpt lat="45.76403" lon="5.50282">
        <ele>409.2</ele>
        <time>2019-05-24T19:34:00.717Z</time>
      </trkpt>
      <trkpt lat="45.7637" lon="5.50314">
        <ele>412.9</ele>
        <time>2019-05-24T19:34:01.520Z</time>
      </trkpt>
      <trkpt lat="45.76349" lon="5.50332">
        <ele>412.6</ele>
        <time>2019-05-24T19:34:02.002Z</time>
      </trkpt>
      <trkpt lat="45.76337" lon="5.50344">
        <ele>412.9</ele>
        <time>2019-05-24T19:34:02.298Z</time>
      </trkpt>
      <trkpt lat="45.76306" lon="5.50384">
        <ele>415.6</ele>
        <time>2019-05-24T19:34:03.124Z</time>
      </trkpt>
      <trkpt lat="45.76289" lon="5.50413">
        <ele>417.8</ele>
        <time>2019-05-24T19:34:03.664Z</time>
      </trkpt>
      <trkpt lat="45.76275" lon="5.50444">
        <ele>421.1</ele>
        <time>2019-05-24T19:34:04.173Z</time>
      </trkpt>
      <trkpt lat="45.76258" lon="5.50472">
        <ele>423.3</ele>
        <time>2019-05-24T19:34:04.695Z</time>
      </trkpt>
      <trkpt lat="45.76244" lon="5.50516">
        <ele>425.2</ele>
        <time>2019-05-24T19:34:05.370Z</time>
      </trkpt>
      <trkpt lat="45.7622" lon="5.5058">
        <ele>425.5</ele>
        <time>2019-05-24T19:34:06.390Z</time>
      </trkpt>
      <trkpt lat="45.76176" lon="5.50654">
        <ele>428.1</ele>
        <time>2019-05-24T19:34:07.749Z</time>
      </trkpt>
      <trkpt lat="45.7616" lon="5.5069">
        <ele>430.1</ele>
        <time>2019-05-24T19:34:08.351Z</time>
      </trkpt>
      <trkpt lat="45.76147" lon="5.50712">
        <ele>431.8</ele>
        <time>2019-05-24T19:34:08.741Z</time>
      </trkpt>
      <trkpt lat="45.76112" lon="5.50758">
        <ele>435.8</ele>
        <time>2019-05-24T19:34:09.696Z</time>
      </trkpt>
      <trkpt lat="45.76094" lon="5.50772">
        <ele>437.8</ele>
        <time>2019-05-24T19:34:10.113Z</time>
      </trkpt>
      <trkpt lat="45.76088" lon="5.50781">
        <ele>438.8</ele>
        <time>2019-05-24T19:34:10.289Z</time>
      </trkpt>
      <trkpt lat="45.76074" lon="5.50809">
        <ele>442.4</ele>
        <time>2019-05-24T19:34:10.767Z</time>
      </trkpt>
      <trkpt lat="45.76054" lon="5.50832">
        <ele>444.9</ele>
        <time>2019-05-24T19:34:11.268Z</time>
      </trkpt>
      <trkpt lat="45.76045" lon="5.50847">
        <ele>446.6</ele>
        <time>2019-05-24T19:34:11.551Z</time>
      </trkpt>
      <trkpt lat="45.76044" lon="5.5087">
        <ele>450</ele>
        <time>2019-05-24T19:34:11.874Z</time>
      </trkpt>
      <trkpt lat="45.76042" lon="5.50879">
        <ele>451.5</ele>
        <time>2019-05-24T19:34:12.009Z</time>
      </trkpt>
      <trkpt lat="45.76028" lon="5.509">
        <ele>453.4</ele>
        <time>2019-05-24T19:34:12.414Z</time>
      </trkpt>
      <trkpt lat="45.76009" lon="5.50917">
        <ele>456.5</ele>
        <time>2019-05-24T19:34:12.867Z</time>
      </trkpt>
      <trkpt lat="45.76008" lon="5.50923">
        <ele>457.6</ele>
        <time>2019-05-24T19:34:12.942Z</time>
      </trkpt>
      <trkpt lat="45.7601" lon="5.50927">
        <ele>458.8</ele>
        <time>2019-05-24T19:34:13.020Z</time>
      </trkpt>
      <trkpt lat="45.7602" lon="5.50929">
        <ele>460.2</ele>
        <time>2019-05-24T19:34:13.224Z</time>
      </trkpt>
      <trkpt lat="45.76038" lon="5.50917">
        <ele>460.1</ele>
        <time>2019-05-24T19:34:13.621Z</time>
      </trkpt>
      <trkpt lat="45.76107" lon="5.50883">
        <ele>470.6</ele>
        <time>2019-05-24T19:34:15.076Z</time>
      </trkpt>
      <trkpt lat="45.76142" lon="5.50859">
        <ele>477.4</ele>
        <time>2019-05-24T19:34:15.848Z</time>
      </trkpt>
      <trkpt lat="45.76161" lon="5.50841">
        <ele>480.8</ele>
        <time>2019-05-24T19:34:16.311Z</time>
      </trkpt>
      <trkpt lat="45.76192" lon="5.50806">
        <ele>484.8</ele>
        <time>2019-05-24T19:34:17.095Z</time>
      </trkpt>
      <trkpt lat="45.76268" lon="5.5073">
        <ele>497.2</ele>
        <time>2019-05-24T19:34:18.963Z</time>
      </trkpt>
      <trkpt lat="45.76308" lon="5.50686">
        <ele>502.7</ele>
        <time>2019-05-24T19:34:19.977Z</time>
      </trkpt>
      <trkpt lat="45.76327" lon="5.50662">
        <ele>506.1</ele>
        <time>2019-05-24T19:34:20.475Z</time>
      </trkpt>
      <trkpt lat="45.76369" lon="5.50619">
        <ele>515.3</ele>
        <time>2019-05-24T19:34:21.514Z</time>
      </trkpt>
      <trkpt lat="45.76416" lon="5.50566">
        <ele>523.1</ele>
        <time>2019-05-24T19:34:22.719Z</time>
      </trkpt>
      <trkpt lat="45.76464" lon="5.50525">
        <ele>534</ele>
        <time>2019-05-24T19:34:23.824Z</time>
      </trkpt>
      <trkpt lat="45.76504" lon="5.50484">
        <ele>539.3</ele>
        <time>2019-05-24T19:34:24.807Z</time>
      </trkpt>
      <trkpt lat="45.76529" lon="5.50466">
        <ele>543.7</ele>
        <time>2019-05-24T19:34:25.375Z</time>
      </trkpt>
      <trkpt lat="45.76561" lon="5.50446">
        <ele>546.7</ele>
        <time>2019-05-24T19:34:26.082Z</time>
      </trkpt>
      <trkpt lat="45.76569" lon="5.50438">
        <ele>546.9</ele>
        <time>2019-05-24T19:34:26.274Z</time>
      </trkpt>
      <trkpt lat="45.76598" lon="5.5042">
        <ele>550.5</ele>
        <time>2019-05-24T19:34:26.896Z</time>
      </trkpt>
      <trkpt lat="45.7661" lon="5.50415">
        <ele>553.4</ele>
        <time>2019-05-24T19:34:27.151Z</time>
      </trkpt>
      <trkpt lat="45.76624" lon="5.50416">
        <ele>552.1</ele>
        <time>2019-05-24T19:34:27.430Z</time>
      </trkpt>
      <trkpt lat="45.76631" lon="5.50405">
        <ele>551.1</ele>
        <time>2019-05-24T19:34:27.635Z</time>
      </trkpt>
      <trkpt lat="45.7664" lon="5.50398">
        <ele>551.3</ele>
        <time>2019-05-24T19:34:27.846Z</time>
      </trkpt>
      <trkpt lat="45.76674" lon="5.50396">
        <ele>550</ele>
        <time>2019-05-24T19:34:28.518Z</time>
      </trkpt>
      <trkpt lat="45.76691" lon="5.50393">
        <ele>548.8</ele>
        <time>2019-05-24T19:34:28.859Z</time>
      </trkpt>
      <trkpt lat="45.76714" lon="5.5038">
        <ele>548.6</ele>
        <time>2019-05-24T19:34:29.362Z</time>
      </trkpt>
      <trkpt lat="45.76738" lon="5.50355">
        <ele>548.3</ele>
        <time>2019-05-24T19:34:29.956Z</time>
      </trkpt>
      <trkpt lat="45.76749" lon="5.50339">
        <ele>546.5</ele>
        <time>2019-05-24T19:34:30.269Z</time>
      </trkpt>
      <trkpt lat="45.76761" lon="5.50311">
        <ele>546.2</ele>
        <time>2019-05-24T19:34:30.737Z</time>
      </trkpt>
      <trkpt lat="45.76778" lon="5.5028">
        <ele>545.3</ele>
        <time>2019-05-24T19:34:31.283Z</time>
      </trkpt>
      <trkpt lat="45.76786" lon="5.50263">
        <ele>545.7</ele>
        <time>2019-05-24T19:34:31.562Z</time>
      </trkpt>
      <trkpt lat="45.76789" lon="5.5026">
        <ele>545.8</ele>
        <time>2019-05-24T19:34:31.647Z</time>
      </trkpt>
      <trkpt lat="45.76795" lon="5.50257">
        <ele>546</ele>
        <time>2019-05-24T19:34:31.762Z</time>
      </trkpt>
      <trkpt lat="45.76834" lon="5.50295">
        <ele>554.1</ele>
        <time>2019-05-24T19:34:32.713Z</time>
      </trkpt>
      <trkpt lat="45.76842" lon="5.50306">
        <ele>552.3</ele>
        <time>2019-05-24T19:34:32.941Z</time>
      </trkpt>
      <trkpt lat="45.7684" lon="5.5031">
        <ele>552.1</ele>
        <time>2019-05-24T19:34:33.003Z</time>
      </trkpt>
      <trkpt lat="45.76814" lon="5.50343">
        <ele>549.4</ele>
        <time>2019-05-24T19:34:33.695Z</time>
      </trkpt>
      <trkpt lat="45.76803" lon="5.50354">
        <ele>548.5</ele>
        <time>2019-05-24T19:34:33.966Z</time>
      </trkpt>
      <trkpt lat="45.76783" lon="5.50383">
        <ele>545.6</ele>
        <time>2019-05-24T19:34:34.539Z</time>
      </trkpt>
      <trkpt lat="45.76768" lon="5.50399">
        <ele>544.1</ele>
        <time>2019-05-24T19:34:34.913Z</time>
      </trkpt>
      <trkpt lat="45.76761" lon="5.50412">
        <ele>542.8</ele>
        <time>2019-05-24T19:34:35.141Z</time>
      </trkpt>
      <trkpt lat="45.76741" lon="5.50439">
        <ele>540.5</ele>
        <time>2019-05-24T19:34:35.683Z</time>
      </trkpt>
      <trkpt lat="45.76678" lon="5.50511">
        <ele>537.4</ele>
        <time>2019-05-24T19:34:37.299Z</time>
      </trkpt>
      <trkpt lat="45.76672" lon="5.50524">
        <ele>536.9</ele>
        <time>2019-05-24T19:34:37.534Z</time>
      </trkpt>
      <trkpt lat="45.76642" lon="5.50563">
        <ele>539.1</ele>
        <time>2019-05-24T19:34:38.338Z</time>
      </trkpt>
      <trkpt lat="45.76586" lon="5.50621">
        <ele>540.4</ele>
        <time>2019-05-24T19:34:39.719Z</time>
      </trkpt>
      <trkpt lat="45.76542" lon="5.50649">
        <ele>543.4</ele>
        <time>2019-05-24T19:34:40.677Z</time>
      </trkpt>
      <trkpt lat="45.7653" lon="5.50663">
        <ele>543.3</ele>
        <time>2019-05-24T19:34:40.983Z</time>
      </trkpt>
      <trkpt lat="45.76508" lon="5.50695">
        <ele>542.6</ele>
        <time>2019-05-24T19:34:41.614Z</time>
      </trkpt>
      <trkpt lat="45.76496" lon="5.50705">
        <ele>542.6</ele>
        <time>2019-05-24T19:34:41.897Z</time>
      </trkpt>
      <trkpt lat="45.76485" lon="5.5071">
        <ele>542.6</ele>
        <time>2019-05-24T19:34:42.136Z</time>
      </trkpt>
      <trkpt lat="45.76455" lon="5.50734">
        <ele>542.2</ele>
        <time>2019-05-24T19:34:42.813Z</time>
      </trkpt>
      <trkpt lat="45.76439" lon="5.5075">
        <ele>541.4</ele>
        <time>2019-05-24T19:34:43.201Z</time>
      </trkpt>
      <trkpt lat="45.76402" lon="5.50798">
        <ele>538.2</ele>
        <time>2019-05-24T19:34:44.210Z</time>
      </trkpt>
      <trkpt lat="45.76351" lon="5.50887">
        <ele>532.1</ele>
        <time>2019-05-24T19:34:45.807Z</time>
      </trkpt>
      <trkpt lat="45.7633" lon="5.5092">
        <ele>529.9</ele>
        <time>2019-05-24T19:34:46.445Z</time>
      </trkpt>
      <trkpt lat="45.76268" lon="5.51006">
        <ele>525.6</ele>
        <time>2019-05-24T19:34:48.160Z</time>
      </trkpt>
      <trkpt lat="45.7623" lon="5.51048">
        <ele>523.5</ele>
        <time>2019-05-24T19:34:49.136Z</time>
      </trkpt>
      <trkpt lat="45.76209" lon="5.51076">
        <ele>521.5</ele>
        <time>2019-05-24T19:34:49.704Z</time>
      </trkpt>
      <trkpt lat="45.76183" lon="5.51104">
        <ele>519.3</ele>
        <time>2019-05-24T19:34:50.350Z</time>
      </trkpt>
      <trkpt lat="45.7617" lon="5.51116">
        <ele>518.9</ele>
        <time>2019-05-24T19:34:50.673Z</time>
      </trkpt>
      <trkpt lat="45.76155" lon="5.51126">
        <ele>518.5</ele>
        <time>2019-05-24T19:34:50.991Z</time>
      </trkpt>
      <trkpt lat="45.76132" lon="5.51133">
        <ele>516.3</ele>
        <time>2019-05-24T19:34:51.470Z</time>
      </trkpt>
      <trkpt lat="45.76109" lon="5.51148">
        <ele>515.8</ele>
        <time>2019-05-24T19:34:51.971Z</time>
      </trkpt>
      <trkpt lat="45.76085" lon="5.51158">
        <ele>513.1</ele>
        <time>2019-05-24T19:34:52.473Z</time>
      </trkpt>
      <trkpt lat="45.7607" lon="5.51158">
        <ele>511.4</ele>
        <time>2019-05-24T19:34:52.772Z</time>
      </trkpt>
      <trkpt lat="45.76037" lon="5.51147">
        <ele>510.5</ele>
        <time>2019-05-24T19:34:53.455Z</time>
      </trkpt>
      <trkpt lat="45.76013" lon="5.51145">
        <ele>510.2</ele>
        <time>2019-05-24T19:34:53.940Z</time>
      </trkpt>
      <trkpt lat="45.76008" lon="5.51144">
        <ele>510.1</ele>
        <time>2019-05-24T19:34:54.048Z</time>
      </trkpt>
      <trkpt lat="45.7599" lon="5.51149">
        <ele>513.6</ele>
        <time>2019-05-24T19:34:54.404Z</time>
      </trkpt>
      <trkpt lat="45.75973" lon="5.51149">
        <ele>514.9</ele>
        <time>2019-05-24T19:34:54.743Z</time>
      </trkpt>
      <trkpt lat="45.75949" lon="5.5117">
        <ele>520.8</ele>
        <time>2019-05-24T19:34:55.318Z</time>
      </trkpt>
      <trkpt lat="45.75941" lon="5.51173">
        <ele>521</ele>
        <time>2019-05-24T19:34:55.471Z</time>
      </trkpt>
      <trkpt lat="45.75925" lon="5.51175">
        <ele>521.8</ele>
        <time>2019-05-24T19:34:55.797Z</time>
      </trkpt>
      <trkpt lat="45.75918" lon="5.51179">
        <ele>522.4</ele>
        <time>2019-05-24T19:34:55.942Z</time>
      </trkpt>
      <trkpt lat="45.75916" lon="5.51187">
        <ele>523.2</ele>
        <time>2019-05-24T19:34:56.055Z</time>
      </trkpt>
      <trkpt lat="45.75918" lon="5.51197">
        <ele>524.3</ele>
        <time>2019-05-24T19:34:56.200Z</time>
      </trkpt>
      <trkpt lat="45.75918" lon="5.5121">
        <ele>524.9</ele>
        <time>2019-05-24T19:34:56.389Z</time>
      </trkpt>
      <trkpt lat="45.75913" lon="5.51222">
        <ele>525.1</ele>
        <time>2019-05-24T19:34:56.590Z</time>
      </trkpt>
      <trkpt lat="45.75901" lon="5.51224">
        <ele>525.7</ele>
        <time>2019-05-24T19:34:56.840Z</time>
      </trkpt>
      <trkpt lat="45.75891" lon="5.51223">
        <ele>526</ele>
        <time>2019-05-24T19:34:57.041Z</time>
      </trkpt>
      <trkpt lat="45.75881" lon="5.5123">
        <ele>525.9</ele>
        <time>2019-05-24T19:34:57.257Z</time>
      </trkpt>
      <trkpt lat="45.75857" lon="5.51277">
        <ele>520.8</ele>
        <time>2019-05-24T19:34:58.069Z</time>
      </trkpt>
      <trkpt lat="45.7585" lon="5.513">
        <ele>520.2</ele>
        <time>2019-05-24T19:34:58.424Z</time>
      </trkpt>
      <trkpt lat="45.75844" lon="5.51308">
        <ele>520.5</ele>
        <time>2019-05-24T19:34:58.593Z</time>
      </trkpt>
      <trkpt lat="45.75836" lon="5.51312">
        <ele>521</ele>
        <time>2019-05-24T19:34:58.762Z</time>
      </trkpt>
      <trkpt lat="45.75827" lon="5.51314">
        <ele>521.2</ele>
        <time>2019-05-24T19:34:58.955Z</time>
      </trkpt>
      <trkpt lat="45.75801" lon="5.51316">
        <ele>520.5</ele>
        <time>2019-05-24T19:34:59.471Z</time>
      </trkpt>
      <trkpt lat="45.75774" lon="5.5132">
        <ele>519.8</ele>
        <time>2019-05-24T19:35:00.003Z</time>
      </trkpt>
      <trkpt lat="45.75743" lon="5.5133">
        <ele>518</ele>
        <time>2019-05-24T19:35:00.641Z</time>
      </trkpt>
      <trkpt lat="45.75703" lon="5.51333">
        <ele>512.4</ele>
        <time>2019-05-24T19:35:01.450Z</time>
      </trkpt>
      <trkpt lat="45.75655" lon="5.5134">
        <ele>507.1</ele>
        <time>2019-05-24T19:35:02.419Z</time>
      </trkpt>
      <trkpt lat="45.75641" lon="5.51348">
        <ele>506.5</ele>
        <time>2019-05-24T19:35:02.721Z</time>
      </trkpt>
      <trkpt lat="45.75624" lon="5.51363">
        <ele>505.2</ele>
        <time>2019-05-24T19:35:03.126Z</time>
      </trkpt>
      <trkpt lat="45.75603" lon="5.51396">
        <ele>506.3</ele>
        <time>2019-05-24T19:35:03.751Z</time>
      </trkpt>
      <trkpt lat="45.7558" lon="5.5141">
        <ele>505.6</ele>
        <time>2019-05-24T19:35:04.246Z</time>
      </trkpt>
      <trkpt lat="45.75571" lon="5.5142">
        <ele>506.7</ele>
        <time>2019-05-24T19:35:04.472Z</time>
      </trkpt>
      <trkpt lat="45.7556" lon="5.51452">
        <ele>508.1</ele>
        <time>2019-05-24T19:35:04.971Z</time>
      </trkpt>
      <trkpt lat="45.75561" lon="5.51491">
        <ele>509</ele>
        <time>2019-05-24T19:35:05.510Z</time>
      </trkpt>
      <trkpt lat="45.75556" lon="5.51517">
        <ele>509.2</ele>
        <time>2019-05-24T19:35:05.892Z</time>
      </trkpt>
      <trkpt lat="45.75547" lon="5.51545">
        <ele>510.5</ele>
        <time>2019-05-24T19:35:06.316Z</time>
      </trkpt>
      <trkpt lat="45.75542" lon="5.51571">
        <ele>510.2</ele>
        <time>2019-05-24T19:35:06.692Z</time>
      </trkpt>
      <trkpt lat="45.755" lon="5.51676">
        <ele>506.7</ele>
        <time>2019-05-24T19:35:08.383Z</time>
      </trkpt>
      <trkpt lat="45.75481" lon="5.51756">
        <ele>503.8</ele>
        <time>2019-05-24T19:35:09.575Z</time>
      </trkpt>
      <trkpt lat="45.75471" lon="5.51787">
        <ele>500.5</ele>
        <time>2019-05-24T19:35:10.046Z</time>
      </trkpt>
      <trkpt lat="45.75461" lon="5.51807">
        <ele>498.8</ele>
        <time>2019-05-24T19:35:10.384Z</time>
      </trkpt>
      <trkpt lat="45.75449" lon="5.51821">
        <ele>497.4</ele>
        <time>2019-05-24T19:35:10.713Z</time>
      </trkpt>
      <trkpt lat="45.75425" lon="5.51838">
        <ele>495.2</ele>
        <time>2019-05-24T19:35:11.248Z</time>
      </trkpt>
      <trkpt lat="45.75417" lon="5.51845">
        <ele>494.2</ele>
        <time>2019-05-24T19:35:11.423Z</time>
      </trkpt>
      <trkpt lat="45.75412" lon="5.51854">
        <ele>493.5</ele>
        <time>2019-05-24T19:35:11.595Z</time>
      </trkpt>
      <trkpt lat="45.75403" lon="5.51875">
        <ele>493.5</ele>
        <time>2019-05-24T19:35:11.936Z</time>
      </trkpt>
      <trkpt lat="45.75393" lon="5.51918">
        <ele>493</ele>
        <time>2019-05-24T19:35:12.570Z</time>
      </trkpt>
      <trkpt lat="45.7539" lon="5.51963">
        <ele>492</ele>
        <time>2019-05-24T19:35:13.197Z</time>
      </trkpt>
      <trkpt lat="45.75386" lon="5.51992">
        <ele>491.3</ele>
        <time>2019-05-24T19:35:13.615Z</time>
      </trkpt>
      <trkpt lat="45.7538" lon="5.52008">
        <ele>490.2</ele>
        <time>2019-05-24T19:35:13.861Z</time>
      </trkpt>
      <trkpt lat="45.75375" lon="5.52015">
        <ele>489.3</ele>
        <time>2019-05-24T19:35:14.019Z</time>
      </trkpt>
      <trkpt lat="45.75373" lon="5.52023">
        <ele>488.3</ele>
        <time>2019-05-24T19:35:14.132Z</time>
      </trkpt>
      <trkpt lat="45.75379" lon="5.52063">
        <ele>481.5</ele>
        <time>2019-05-24T19:35:14.708Z</time>
      </trkpt>
      <trkpt lat="45.75387" lon="5.52084">
        <ele>479</ele>
        <time>2019-05-24T19:35:15.042Z</time>
      </trkpt>
      <trkpt lat="45.75393" lon="5.52093">
        <ele>478.4</ele>
        <time>2019-05-24T19:35:15.217Z</time>
      </trkpt>
      <trkpt lat="45.75406" lon="5.52102">
        <ele>478.1</ele>
        <time>2019-05-24T19:35:15.517Z</time>
      </trkpt>
      <trkpt lat="45.7541" lon="5.52102">
        <ele>478.2</ele>
        <time>2019-05-24T19:35:15.595Z</time>
      </trkpt>
      <trkpt lat="45.75437" lon="5.52093">
        <ele>476.4</ele>
        <time>2019-05-24T19:35:16.140Z</time>
      </trkpt>
      <trkpt lat="45.75454" lon="5.52083">
        <ele>476.7</ele>
        <time>2019-05-24T19:35:16.514Z</time>
      </trkpt>
      <trkpt lat="45.75488" lon="5.52067">
        <ele>475.9</ele>
        <time>2019-05-24T19:35:17.232Z</time>
      </trkpt>
      <trkpt lat="45.75535" lon="5.52059">
        <ele>475.3</ele>
        <time>2019-05-24T19:35:18.179Z</time>
      </trkpt>
      <trkpt lat="45.75548" lon="5.52052">
        <ele>476.7</ele>
        <time>2019-05-24T19:35:18.451Z</time>
      </trkpt>
      <trkpt lat="45.75566" lon="5.52037">
        <ele>478.7</ele>
        <time>2019-05-24T19:35:18.872Z</time>
      </trkpt>
      <trkpt lat="45.75583" lon="5.52018">
        <ele>481</ele>
        <time>2019-05-24T19:35:19.306Z</time>
      </trkpt>
      <trkpt lat="45.7559" lon="5.52014">
        <ele>481.3</ele>
        <time>2019-05-24T19:35:19.448Z</time>
      </trkpt>
      <trkpt lat="45.75597" lon="5.52013">
        <ele>481.3</ele>
        <time>2019-05-24T19:35:19.587Z</time>
      </trkpt>
      <trkpt lat="45.75609" lon="5.52008">
        <ele>481.1</ele>
        <time>2019-05-24T19:35:19.840Z</time>
      </trkpt>
      <trkpt lat="45.75635" lon="5.51994">
        <ele>481.4</ele>
        <time>2019-05-24T19:35:20.411Z</time>
      </trkpt>
      <trkpt lat="45.75651" lon="5.51962">
        <ele>483.7</ele>
        <time>2019-05-24T19:35:20.948Z</time>
      </trkpt>
      <trkpt lat="45.75657" lon="5.5196">
        <ele>484</ele>
        <time>2019-05-24T19:35:21.071Z</time>
      </trkpt>
      <trkpt lat="45.75663" lon="5.51954">
        <ele>484.7</ele>
        <time>2019-05-24T19:35:21.228Z</time>
      </trkpt>
      <trkpt lat="45.75683" lon="5.51926">
        <ele>486.7</ele>
        <time>2019-05-24T19:35:21.785Z</time>
      </trkpt>
      <trkpt lat="45.75711" lon="5.5191">
        <ele>486.1</ele>
        <time>2019-05-24T19:35:22.387Z</time>
      </trkpt>
      <trkpt lat="45.75724" lon="5.51907">
        <ele>485.5</ele>
        <time>2019-05-24T19:35:22.652Z</time>
      </trkpt>
      <trkpt lat="45.75735" lon="5.51914">
        <ele>484.9</ele>
        <time>2019-05-24T19:35:22.883Z</time>
      </trkpt>
      <trkpt lat="45.7575" lon="5.51921">
        <ele>484.5</ele>
        <time>2019-05-24T19:35:23.212Z</time>
      </trkpt>
      <trkpt lat="45.7577" lon="5.51912">
        <ele>484.7</ele>
        <time>2019-05-24T19:35:23.629Z</time>
      </trkpt>
      <trkpt lat="45.75778" lon="5.51912">
        <ele>483.9</ele>
        <time>2019-05-24T19:35:23.779Z</time>
      </trkpt>
      <trkpt lat="45.75798" lon="5.51921">
        <ele>480</ele>
        <time>2019-05-24T19:35:24.198Z</time>
      </trkpt>
      <trkpt lat="45.75805" lon="5.51934">
        <ele>476.8</ele>
        <time>2019-05-24T19:35:24.441Z</time>
      </trkpt>
      <trkpt lat="45.75811" lon="5.51937">
        <ele>475.8</ele>
        <time>2019-05-24T19:35:24.561Z</time>
      </trkpt>
      <trkpt lat="45.75818" lon="5.51937">
        <ele>475.4</ele>
        <time>2019-05-24T19:35:24.698Z</time>
      </trkpt>
      <trkpt lat="45.75856" lon="5.51904">
        <ele>477.1</ele>
        <time>2019-05-24T19:35:25.584Z</time>
      </trkpt>
      <trkpt lat="45.75866" lon="5.51891">
        <ele>475.5</ele>
        <time>2019-05-24T19:35:25.864Z</time>
      </trkpt>
      <trkpt lat="45.75882" lon="5.51889">
        <ele>469.7</ele>
        <time>2019-05-24T19:35:26.172Z</time>
      </trkpt>
      <trkpt lat="45.75912" lon="5.51877">
        <ele>464.4</ele>
        <time>2019-05-24T19:35:26.799Z</time>
      </trkpt>
      <trkpt lat="45.75924" lon="5.51869">
        <ele>462</ele>
        <time>2019-05-24T19:35:27.071Z</time>
      </trkpt>
      <trkpt lat="45.75934" lon="5.51858">
        <ele>461.8</ele>
        <time>2019-05-24T19:35:27.315Z</time>
      </trkpt>
      <trkpt lat="45.75954" lon="5.51846">
        <ele>453.8</ele>
        <time>2019-05-24T19:35:27.749Z</time>
      </trkpt>
      <trkpt lat="45.75958" lon="5.5184">
        <ele>452.9</ele>
        <time>2019-05-24T19:35:27.883Z</time>
      </trkpt>
      <trkpt lat="45.75966" lon="5.51838">
        <ele>449.3</ele>
        <time>2019-05-24T19:35:28.030Z</time>
      </trkpt>
      <trkpt lat="45.75981" lon="5.51828">
        <ele>446</ele>
        <time>2019-05-24T19:35:28.368Z</time>
      </trkpt>
      <trkpt lat="45.75995" lon="5.51828">
        <ele>441.5</ele>
        <time>2019-05-24T19:35:28.641Z</time>
      </trkpt>
      <trkpt lat="45.76009" lon="5.5183">
        <ele>437.2</ele>
        <time>2019-05-24T19:35:28.923Z</time>
      </trkpt>
      <trkpt lat="45.7601" lon="5.51831">
        <ele>436.4</ele>
        <time>2019-05-24T19:35:28.961Z</time>
      </trkpt>
      <trkpt lat="45.76012" lon="5.51836">
        <ele>434.7</ele>
        <time>2019-05-24T19:35:29.042Z</time>
      </trkpt>
      <trkpt lat="45.76006" lon="5.51844">
        <ele>433.9</ele>
        <time>2019-05-24T19:35:29.202Z</time>
      </trkpt>
      <trkpt lat="45.75998" lon="5.51865">
        <ele>430.3</ele>
        <time>2019-05-24T19:35:29.537Z</time>
      </trkpt>
      <trkpt lat="45.75992" lon="5.5187">
        <ele>430</ele>
        <time>2019-05-24T19:35:29.684Z</time>
      </trkpt>
      <trkpt lat="45.75985" lon="5.5189">
        <ele>425.1</ele>
        <time>2019-05-24T19:35:29.995Z</time>
      </trkpt>
      <trkpt lat="45.75974" lon="5.51894">
        <ele>426</ele>
        <time>2019-05-24T19:35:30.228Z</time>
      </trkpt>
      <trkpt lat="45.75962" lon="5.51902">
        <ele>428</ele>
        <time>2019-05-24T19:35:30.490Z</time>
      </trkpt>
      <trkpt lat="45.75948" lon="5.51918">
        <ele>426.3</ele>
        <time>2019-05-24T19:35:30.848Z</time>
      </trkpt>
      <trkpt lat="45.75945" lon="5.51923">
        <ele>426.1</ele>
        <time>2019-05-24T19:35:30.937Z</time>
      </trkpt>
      <trkpt lat="45.75921" lon="5.51976">
        <ele>424.2</ele>
        <time>2019-05-24T19:35:31.827Z</time>
      </trkpt>
      <trkpt lat="45.7592" lon="5.51984">
        <ele>423.9</ele>
        <time>2019-05-24T19:35:31.938Z</time>
      </trkpt>
      <trkpt lat="45.7591" lon="5.52009">
        <ele>423.5</ele>
        <time>2019-05-24T19:35:32.337Z</time>
      </trkpt>
      <trkpt lat="45.75913" lon="5.52028">
        <ele>423</ele>
        <time>2019-05-24T19:35:32.600Z</time>
      </trkpt>
      <trkpt lat="45.75914" lon="5.52034">
        <ele>423</ele>
        <time>2019-05-24T19:35:32.691Z</time>
      </trkpt>
      <trkpt lat="45.75935" lon="5.52074">
        <ele>422.8</ele>
        <time>2019-05-24T19:35:33.385Z</time>
      </trkpt>
      <trkpt lat="45.75949" lon="5.52111">
        <ele>424.8</ele>
        <time>2019-05-24T19:35:33.977Z</time>
      </trkpt>
      <trkpt lat="45.75966" lon="5.52179">
        <ele>426</ele>
        <time>2019-05-24T19:35:34.988Z</time>
      </trkpt>
      <trkpt lat="45.75977" lon="5.52219">
        <ele>427</ele>
        <time>2019-05-24T19:35:35.587Z</time>
      </trkpt>
      <trkpt lat="45.75983" lon="5.52244">
        <ele>427.3</ele>
        <time>2019-05-24T19:35:35.965Z</time>
      </trkpt>
      <trkpt lat="45.75985" lon="5.52266">
        <ele>428</ele>
        <time>2019-05-24T19:35:36.268Z</time>
      </trkpt>
      <trkpt lat="45.7599" lon="5.52276">
        <ele>428.6</ele>
        <time>2019-05-24T19:35:36.439Z</time>
      </trkpt>
      <trkpt lat="45.76001" lon="5.52291">
        <ele>429</ele>
        <time>2019-05-24T19:35:36.748Z</time>
      </trkpt>
      <trkpt lat="45.76008" lon="5.52308">
        <ele>429.1</ele>
        <time>2019-05-24T19:35:37.024Z</time>
      </trkpt>
      <trkpt lat="45.76019" lon="5.52348">
        <ele>430.4</ele>
        <time>2019-05-24T19:35:37.625Z</time>
      </trkpt>
      <trkpt lat="45.76032" lon="5.52387">
        <ele>432.4</ele>
        <time>2019-05-24T19:35:38.228Z</time>
      </trkpt>
      <trkpt lat="45.76042" lon="5.52405">
        <ele>433.8</ele>
        <time>2019-05-24T19:35:38.546Z</time>
      </trkpt>
      <trkpt lat="45.76048" lon="5.52436">
        <ele>434.7</ele>
        <time>2019-05-24T19:35:38.998Z</time>
      </trkpt>
      <trkpt lat="45.76056" lon="5.52454">
        <ele>434.8</ele>
        <time>2019-05-24T19:35:39.301Z</time>
      </trkpt>
      <trkpt lat="45.76058" lon="5.52542">
        <ele>440.6</ele>
        <time>2019-05-24T19:35:40.528Z</time>
      </trkpt>
      <trkpt lat="45.76064" lon="5.52594">
        <ele>444.9</ele>
        <time>2019-05-24T19:35:41.272Z</time>
      </trkpt>
      <trkpt lat="45.76063" lon="5.52606">
        <ele>445.5</ele>
        <time>2019-05-24T19:35:41.432Z</time>
      </trkpt>
      <trkpt lat="45.76066" lon="5.52622">
        <ele>447.5</ele>
        <time>2019-05-24T19:35:41.669Z</time>
      </trkpt>
      <trkpt lat="45.7607" lon="5.52624">
        <ele>448</ele>
        <time>2019-05-24T19:35:41.751Z</time>
      </trkpt>
      <trkpt lat="45.76076" lon="5.52624">
        <ele>448.5</ele>
        <time>2019-05-24T19:35:41.867Z</time>
      </trkpt>
      <trkpt lat="45.76106" lon="5.52618">
        <ele>452.1</ele>
        <time>2019-05-24T19:35:42.483Z</time>
      </trkpt>
      <trkpt lat="45.76118" lon="5.52604">
        <ele>453.3</ele>
        <time>2019-05-24T19:35:42.784Z</time>
      </trkpt>
      <trkpt lat="45.76129" lon="5.5258">
        <ele>459.1</ele>
        <time>2019-05-24T19:35:43.180Z</time>
      </trkpt>
      <trkpt lat="45.76138" lon="5.52569">
        <ele>459.7</ele>
        <time>2019-05-24T19:35:43.426Z</time>
      </trkpt>
      <trkpt lat="45.76145" lon="5.52564">
        <ele>461.1</ele>
        <time>2019-05-24T19:35:43.578Z</time>
      </trkpt>
      <trkpt lat="45.76149" lon="5.52562">
        <ele>462.5</ele>
        <time>2019-05-24T19:35:43.675Z</time>
      </trkpt>
      <trkpt lat="45.76155" lon="5.52556">
        <ele>463.9</ele>
        <time>2019-05-24T19:35:43.817Z</time>
      </trkpt>
      <trkpt lat="45.76248" lon="5.52533">
        <ele>490.7</ele>
        <time>2019-05-24T19:35:45.707Z</time>
      </trkpt>
      <trkpt lat="45.76201" lon="5.52583">
        <ele>484.7</ele>
        <time>2019-05-24T19:35:46.883Z</time>
      </trkpt>
      <trkpt lat="45.76195" lon="5.52597">
        <ele>482.7</ele>
        <time>2019-05-24T19:35:47.118Z</time>
      </trkpt>
      <trkpt lat="45.76195" lon="5.52613">
        <ele>483</ele>
        <time>2019-05-24T19:35:47.342Z</time>
      </trkpt>
      <trkpt lat="45.76208" lon="5.52679">
        <ele>482.7</ele>
        <time>2019-05-24T19:35:48.292Z</time>
      </trkpt>
      <trkpt lat="45.76221" lon="5.52722">
        <ele>483.7</ele>
        <time>2019-05-24T19:35:48.950Z</time>
      </trkpt>
      <trkpt lat="45.76225" lon="5.52742">
        <ele>483.2</ele>
        <time>2019-05-24T19:35:49.249Z</time>
      </trkpt>
      <trkpt lat="45.76238" lon="5.52767">
        <ele>485.7</ele>
        <time>2019-05-24T19:35:49.675Z</time>
      </trkpt>
      <trkpt lat="45.76243" lon="5.52779">
        <ele>485.8</ele>
        <time>2019-05-24T19:35:49.866Z</time>
      </trkpt>
      <trkpt lat="45.76246" lon="5.52828">
        <ele>484.2</ele>
        <time>2019-05-24T19:35:50.550Z</time>
      </trkpt>
      <trkpt lat="45.76255" lon="5.52845">
        <ele>483.6</ele>
        <time>2019-05-24T19:35:50.851Z</time>
      </trkpt>
      <trkpt lat="45.76267" lon="5.52852">
        <ele>483.2</ele>
        <time>2019-05-24T19:35:51.115Z</time>
      </trkpt>
      <trkpt lat="45.76278" lon="5.52848">
        <ele>485.3</ele>
        <time>2019-05-24T19:35:51.334Z</time>
      </trkpt>
      <trkpt lat="45.76292" lon="5.52846">
        <ele>486.3</ele>
        <time>2019-05-24T19:35:51.630Z</time>
      </trkpt>
      <trkpt lat="45.76306" lon="5.52847">
        <ele>486.5</ele>
        <time>2019-05-24T19:35:51.899Z</time>
      </trkpt>
      <trkpt lat="45.76322" lon="5.52846">
        <ele>486.9</ele>
        <time>2019-05-24T19:35:52.218Z</time>
      </trkpt>
      <trkpt lat="45.76347" lon="5.52839">
        <ele>487.4</ele>
        <time>2019-05-24T19:35:52.733Z</time>
      </trkpt>
      <trkpt lat="45.76384" lon="5.52823">
        <ele>487.2</ele>
        <time>2019-05-24T19:35:53.519Z</time>
      </trkpt>
      <trkpt lat="45.7641" lon="5.52817">
        <ele>488</ele>
        <time>2019-05-24T19:35:54.049Z</time>
      </trkpt>
      <trkpt lat="45.76453" lon="5.52812">
        <ele>489.8</ele>
        <time>2019-05-24T19:35:54.896Z</time>
      </trkpt>
      <trkpt lat="45.76463" lon="5.52809">
        <ele>490</ele>
        <time>2019-05-24T19:35:55.106Z</time>
      </trkpt>
      <trkpt lat="45.76516" lon="5.52788">
        <ele>491.7</ele>
        <time>2019-05-24T19:35:56.204Z</time>
      </trkpt>
      <trkpt lat="45.76536" lon="5.52775">
        <ele>492.3</ele>
        <time>2019-05-24T19:35:56.650Z</time>
      </trkpt>
      <trkpt lat="45.76572" lon="5.52763">
        <ele>493.6</ele>
        <time>2019-05-24T19:35:57.390Z</time>
      </trkpt>
      <trkpt lat="45.76659" lon="5.5272">
        <ele>496.5</ele>
        <time>2019-05-24T19:35:59.227Z</time>
      </trkpt>
      <trkpt lat="45.76673" lon="5.52708">
        <ele>497.5</ele>
        <time>2019-05-24T19:35:59.571Z</time>
      </trkpt>
      <trkpt lat="45.76688" lon="5.52689">
        <ele>498.7</ele>
        <time>2019-05-24T19:35:59.967Z</time>
      </trkpt>
      <trkpt lat="45.76694" lon="5.52664">
        <ele>500.4</ele>
        <time>2019-05-24T19:36:00.338Z</time>
      </trkpt>
      <trkpt lat="45.76701" lon="5.52644">
        <ele>502.1</ele>
        <time>2019-05-24T19:36:00.650Z</time>
      </trkpt>
      <trkpt lat="45.76718" lon="5.52619">
        <ele>503.3</ele>
        <time>2019-05-24T19:36:01.136Z</time>
      </trkpt>
      <trkpt lat="45.76735" lon="5.52601">
        <ele>503</ele>
        <time>2019-05-24T19:36:01.574Z</time>
      </trkpt>
      <trkpt lat="45.76778" lon="5.52564">
        <ele>500.3</ele>
        <time>2019-05-24T19:36:02.580Z</time>
      </trkpt>
      <trkpt lat="45.76825" lon="5.52516">
        <ele>498.6</ele>
        <time>2019-05-24T19:36:03.732Z</time>
      </trkpt>
      <trkpt lat="45.76839" lon="5.52504">
        <ele>498.6</ele>
        <time>2019-05-24T19:36:04.050Z</time>
      </trkpt>
      <trkpt lat="45.76862" lon="5.52492">
        <ele>497.7</ele>
        <time>2019-05-24T19:36:04.545Z</time>
      </trkpt>
      <trkpt lat="45.76906" lon="5.52473">
        <ele>497.1</ele>
        <time>2019-05-24T19:36:05.464Z</time>
      </trkpt>
      <trkpt lat="45.76937" lon="5.52447">
        <ele>496.8</ele>
        <time>2019-05-24T19:36:06.184Z</time>
      </trkpt>
      <trkpt lat="45.76986" lon="5.52419">
        <ele>493.5</ele>
        <time>2019-05-24T19:36:07.239Z</time>
      </trkpt>
      <trkpt lat="45.77037" lon="5.52381">
        <ele>490.1</ele>
        <time>2019-05-24T19:36:08.389Z</time>
      </trkpt>
      <trkpt lat="45.77102" lon="5.52345">
        <ele>488.6</ele>
        <time>2019-05-24T19:36:09.785Z</time>
      </trkpt>
      <trkpt lat="45.77146" lon="5.52313">
        <ele>488.1</ele>
        <time>2019-05-24T19:36:10.781Z</time>
      </trkpt>
      <trkpt lat="45.77191" lon="5.52289">
        <ele>487.5</ele>
        <time>2019-05-24T19:36:11.742Z</time>
      </trkpt>
      <trkpt lat="45.77207" lon="5.52275">
        <ele>487.6</ele>
        <time>2019-05-24T19:36:12.117Z</time>
      </trkpt>
      <trkpt lat="45.77242" lon="5.52242">
        <ele>489</ele>
        <time>2019-05-24T19:36:12.960Z</time>
      </trkpt>
      <trkpt lat="45.77274" lon="5.52203">
        <ele>490.6</ele>
        <time>2019-05-24T19:36:13.791Z</time>
      </trkpt>
      <trkpt lat="45.77367" lon="5.52121">
        <ele>496</ele>
        <time>2019-05-24T19:36:15.985Z</time>
      </trkpt>
      <trkpt lat="45.77406" lon="5.52093">
        <ele>499.4</ele>
        <time>2019-05-24T19:36:16.859Z</time>
      </trkpt>
      <trkpt lat="45.7742" lon="5.52079">
        <ele>500.7</ele>
        <time>2019-05-24T19:36:17.208Z</time>
      </trkpt>
      <trkpt lat="45.77436" lon="5.5206">
        <ele>502.8</ele>
        <time>2019-05-24T19:36:17.612Z</time>
      </trkpt>
      <trkpt lat="45.7746" lon="5.52023">
        <ele>503.2</ele>
        <time>2019-05-24T19:36:18.330Z</time>
      </trkpt>
      <trkpt lat="45.7748" lon="5.52003">
        <ele>502.7</ele>
        <time>2019-05-24T19:36:18.811Z</time>
      </trkpt>
      <trkpt lat="45.77502" lon="5.51974">
        <ele>500.9</ele>
        <time>2019-05-24T19:36:19.411Z</time>
      </trkpt>
      <trkpt lat="45.77529" lon="5.51934">
        <ele>499.3</ele>
        <time>2019-05-24T19:36:20.185Z</time>
      </trkpt>
      <trkpt lat="45.77564" lon="5.51895">
        <ele>498.8</ele>
        <time>2019-05-24T19:36:21.073Z</time>
      </trkpt>
      <trkpt lat="45.77602" lon="5.51865">
        <ele>498</ele>
        <time>2019-05-24T19:36:21.954Z</time>
      </trkpt>
      <trkpt lat="45.77613" lon="5.51854">
        <ele>498.6</ele>
        <time>2019-05-24T19:36:22.228Z</time>
      </trkpt>
      <trkpt lat="45.77622" lon="5.51861">
        <ele>497.2</ele>
        <time>2019-05-24T19:36:22.430Z</time>
      </trkpt>
      <trkpt lat="45.77628" lon="5.51911">
        <ele>491.4</ele>
        <time>2019-05-24T19:36:23.142Z</time>
      </trkpt>
      <trkpt lat="45.77629" lon="5.51918">
        <ele>490.8</ele>
        <time>2019-05-24T19:36:23.240Z</time>
      </trkpt>
      <trkpt lat="45.77637" lon="5.51931">
        <ele>489.2</ele>
        <time>2019-05-24T19:36:23.488Z</time>
      </trkpt>
      <trkpt lat="45.77635" lon="5.51946">
        <ele>486.1</ele>
        <time>2019-05-24T19:36:23.700Z</time>
      </trkpt>
      <trkpt lat="45.77635" lon="5.51971">
        <ele>480</ele>
        <time>2019-05-24T19:36:24.045Z</time>
      </trkpt>
      <trkpt lat="45.77631" lon="5.51983">
        <ele>476.7</ele>
        <time>2019-05-24T19:36:24.236Z</time>
      </trkpt>
      <trkpt lat="45.77625" lon="5.51997">
        <ele>473.7</ele>
        <time>2019-05-24T19:36:24.458Z</time>
      </trkpt>
      <trkpt lat="45.77609" lon="5.52012">
        <ele>473.5</ele>
        <time>2019-05-24T19:36:24.844Z</time>
      </trkpt>
      <trkpt lat="45.77607" lon="5.52024">
        <ele>474</ele>
        <time>2019-05-24T19:36:25.027Z</time>
      </trkpt>
      <trkpt lat="45.77612" lon="5.52036">
        <ele>475.6</ele>
        <time>2019-05-24T19:36:25.215Z</time>
      </trkpt>
      <trkpt lat="45.77622" lon="5.52041">
        <ele>475.6</ele>
        <time>2019-05-24T19:36:25.431Z</time>
      </trkpt>
      <trkpt lat="45.77635" lon="5.52042">
        <ele>474.5</ele>
        <time>2019-05-24T19:36:25.686Z</time>
      </trkpt>
      <trkpt lat="45.77668" lon="5.52033">
        <ele>471.4</ele>
        <time>2019-05-24T19:36:26.352Z</time>
      </trkpt>
      <trkpt lat="45.77673" lon="5.52033">
        <ele>471.6</ele>
        <time>2019-05-24T19:36:26.462Z</time>
      </trkpt>
      <trkpt lat="45.77679" lon="5.52037">
        <ele>472.2</ele>
        <time>2019-05-24T19:36:26.588Z</time>
      </trkpt>
      <trkpt lat="45.77694" lon="5.52037">
        <ele>473</ele>
        <time>2019-05-24T19:36:26.885Z</time>
      </trkpt>
      <trkpt lat="45.77726" lon="5.52015">
        <ele>472.7</ele>
        <time>2019-05-24T19:36:27.597Z</time>
      </trkpt>
      <trkpt lat="45.77737" lon="5.5201">
        <ele>472.5</ele>
        <time>2019-05-24T19:36:27.841Z</time>
      </trkpt>
      <trkpt lat="45.77748" lon="5.52008">
        <ele>472.8</ele>
        <time>2019-05-24T19:36:28.049Z</time>
      </trkpt>
      <trkpt lat="45.77772" lon="5.52008">
        <ele>472.7</ele>
        <time>2019-05-24T19:36:28.528Z</time>
      </trkpt>
      <trkpt lat="45.77811" lon="5.52022">
        <ele>479.2</ele>
        <time>2019-05-24T19:36:29.351Z</time>
      </trkpt>
      <trkpt lat="45.77821" lon="5.52023">
        <ele>480.3</ele>
        <time>2019-05-24T19:36:29.548Z</time>
      </trkpt>
      <trkpt lat="45.77832" lon="5.52015">
        <ele>480.5</ele>
        <time>2019-05-24T19:36:29.800Z</time>
      </trkpt>
      <trkpt lat="45.77862" lon="5.51972">
        <ele>479.9</ele>
        <time>2019-05-24T19:36:30.652Z</time>
      </trkpt>
      <trkpt lat="45.77867" lon="5.51956">
        <ele>478.5</ele>
        <time>2019-05-24T19:36:30.890Z</time>
      </trkpt>
      <trkpt lat="45.77869" lon="5.51953">
        <ele>478.2</ele>
        <time>2019-05-24T19:36:30.955Z</time>
      </trkpt>
      <trkpt lat="45.77872" lon="5.51952">
        <ele>478</ele>
        <time>2019-05-24T19:36:31.020Z</time>
      </trkpt>
      <trkpt lat="45.77879" lon="5.51955">
        <ele>477.9</ele>
        <time>2019-05-24T19:36:31.156Z</time>
      </trkpt>
      <trkpt lat="45.77892" lon="5.51967">
        <ele>476.9</ele>
        <time>2019-05-24T19:36:31.474Z</time>
      </trkpt>
      <trkpt lat="45.77904" lon="5.51987">
        <ele>474.7</ele>
        <time>2019-05-24T19:36:31.844Z</time>
      </trkpt>
      <trkpt lat="45.77914" lon="5.51993">
        <ele>473.6</ele>
        <time>2019-05-24T19:36:32.048Z</time>
      </trkpt>
      <trkpt lat="45.77927" lon="5.52008">
        <ele>472.6</ele>
        <time>2019-05-24T19:36:32.389Z</time>
      </trkpt>
      <trkpt lat="45.77926" lon="5.52055">
        <ele>471.6</ele>
        <time>2019-05-24T19:36:33.036Z</time>
      </trkpt>
      <trkpt lat="45.77933" lon="5.52075">
        <ele>468.4</ele>
        <time>2019-05-24T19:36:33.343Z</time>
      </trkpt>
      <trkpt lat="45.77946" lon="5.52089">
        <ele>465.1</ele>
        <time>2019-05-24T19:36:33.683Z</time>
      </trkpt>
      <trkpt lat="45.77952" lon="5.521">
        <ele>465</ele>
        <time>2019-05-24T19:36:33.879Z</time>
      </trkpt>
      <trkpt lat="45.77964" lon="5.52133">
        <ele>468.6</ele>
        <time>2019-05-24T19:36:34.395Z</time>
      </trkpt>
      <trkpt lat="45.77974" lon="5.52182">
        <ele>469.8</ele>
        <time>2019-05-24T19:36:35.100Z</time>
      </trkpt>
      <trkpt lat="45.77976" lon="5.52201">
        <ele>468.8</ele>
        <time>2019-05-24T19:36:35.374Z</time>
      </trkpt>
      <trkpt lat="45.77978" lon="5.52203">
        <ele>468.4</ele>
        <time>2019-05-24T19:36:35.423Z</time>
      </trkpt>
      <trkpt lat="45.77983" lon="5.52204">
        <ele>467.2</ele>
        <time>2019-05-24T19:36:35.520Z</time>
      </trkpt>
      <trkpt lat="45.77992" lon="5.52196">
        <ele>462.6</ele>
        <time>2019-05-24T19:36:35.740Z</time>
      </trkpt>
      <trkpt lat="45.78002" lon="5.52183">
        <ele>457.8</ele>
        <time>2019-05-24T19:36:36.014Z</time>
      </trkpt>
      <trkpt lat="45.78013" lon="5.52162">
        <ele>454.9</ele>
        <time>2019-05-24T19:36:36.384Z</time>
      </trkpt>
      <trkpt lat="45.78028" lon="5.52147">
        <ele>448</ele>
        <time>2019-05-24T19:36:36.742Z</time>
      </trkpt>
      <trkpt lat="45.78041" lon="5.52131">
        <ele>445.7</ele>
        <time>2019-05-24T19:36:37.091Z</time>
      </trkpt>
      <trkpt lat="45.78054" lon="5.5212">
        <ele>443.4</ele>
        <time>2019-05-24T19:36:37.385Z</time>
      </trkpt>
      <trkpt lat="45.78063" lon="5.52102">
        <ele>439.6</ele>
        <time>2019-05-24T19:36:37.693Z</time>
      </trkpt>
      <trkpt lat="45.78075" lon="5.5209">
        <ele>438.3</ele>
        <time>2019-05-24T19:36:37.989Z</time>
      </trkpt>
      <trkpt lat="45.78078" lon="5.52084">
        <ele>437.5</ele>
        <time>2019-05-24T19:36:38.092Z</time>
      </trkpt>
      <trkpt lat="45.78136" lon="5.52096">
        <ele>426.1</ele>
        <time>2019-05-24T19:36:39.268Z</time>
      </trkpt>
      <trkpt lat="45.78138" lon="5.52101">
        <ele>425.5</ele>
        <time>2019-05-24T19:36:39.355Z</time>
      </trkpt>
      <trkpt lat="45.78142" lon="5.52104">
        <ele>424.2</ele>
        <time>2019-05-24T19:36:39.444Z</time>
      </trkpt>
      <trkpt lat="45.78151" lon="5.52104">
        <ele>421.5</ele>
        <time>2019-05-24T19:36:39.609Z</time>
      </trkpt>
      <trkpt lat="45.78167" lon="5.52097">
        <ele>415</ele>
        <time>2019-05-24T19:36:39.957Z</time>
      </trkpt>
      <trkpt lat="45.78184" lon="5.52081">
        <ele>410.3</ele>
        <time>2019-05-24T19:36:40.351Z</time>
      </trkpt>
      <trkpt lat="45.78188" lon="5.52073">
        <ele>408.2</ele>
        <time>2019-05-24T19:36:40.500Z</time>
      </trkpt>
      <trkpt lat="45.78217" lon="5.52061">
        <ele>405.2</ele>
        <time>2019-05-24T19:36:41.090Z</time>
      </trkpt>
      <trkpt lat="45.78238" lon="5.52049">
        <ele>403.3</ele>
        <time>2019-05-24T19:36:41.556Z</time>
      </trkpt>
      <trkpt lat="45.78261" lon="5.52038">
        <ele>402.4</ele>
        <time>2019-05-24T19:36:42.039Z</time>
      </trkpt>
      <trkpt lat="45.7827" lon="5.52036">
        <ele>402.7</ele>
        <time>2019-05-24T19:36:42.212Z</time>
      </trkpt>
      <trkpt lat="45.78277" lon="5.52032">
        <ele>402</ele>
        <time>2019-05-24T19:36:42.371Z</time>
      </trkpt>
      <trkpt lat="45.78289" lon="5.5203">
        <ele>402.9</ele>
        <time>2019-05-24T19:36:42.609Z</time>
      </trkpt>
      <trkpt lat="45.78297" lon="5.5203">
        <ele>404</ele>
        <time>2019-05-24T19:36:42.772Z</time>
      </trkpt>
      <trkpt lat="45.78304" lon="5.52044">
        <ele>405</ele>
        <time>2019-05-24T19:36:43.018Z</time>
      </trkpt>
      <trkpt lat="45.78306" lon="5.52067">
        <ele>403.9</ele>
        <time>2019-05-24T19:36:43.337Z</time>
      </trkpt>
      <trkpt lat="45.78309" lon="5.52079">
        <ele>401.7</ele>
        <time>2019-05-24T19:36:43.513Z</time>
      </trkpt>
      <trkpt lat="45.78316" lon="5.52092">
        <ele>399</ele>
        <time>2019-05-24T19:36:43.752Z</time>
      </trkpt>
      <trkpt lat="45.78326" lon="5.52101">
        <ele>395.9</ele>
        <time>2019-05-24T19:36:43.971Z</time>
      </trkpt>
      <trkpt lat="45.7833" lon="5.52112">
        <ele>395.5</ele>
        <time>2019-05-24T19:36:44.150Z</time>
      </trkpt>
      <trkpt lat="45.78338" lon="5.52119">
        <ele>393.1</ele>
        <time>2019-05-24T19:36:44.338Z</time>
      </trkpt>
      <trkpt lat="45.7835" lon="5.52121">
        <ele>388.5</ele>
        <time>2019-05-24T19:36:44.578Z</time>
      </trkpt>
      <trkpt lat="45.78355" lon="5.52124">
        <ele>386.7</ele>
        <time>2019-05-24T19:36:44.698Z</time>
      </trkpt>
      <trkpt lat="45.7837" lon="5.52134">
        <ele>383.4</ele>
        <time>2019-05-24T19:36:45.014Z</time>
      </trkpt>
      <trkpt lat="45.78388" lon="5.52152">
        <ele>380.9</ele>
        <time>2019-05-24T19:36:45.462Z</time>
      </trkpt>
      <trkpt lat="45.78401" lon="5.52156">
        <ele>376.4</ele>
        <time>2019-05-24T19:36:45.721Z</time>
      </trkpt>
      <trkpt lat="45.78419" lon="5.52171">
        <ele>370.8</ele>
        <time>2019-05-24T19:36:46.136Z</time>
      </trkpt>
      <trkpt lat="45.78438" lon="5.52175">
        <ele>363.8</ele>
        <time>2019-05-24T19:36:46.525Z</time>
      </trkpt>
      <trkpt lat="45.7845" lon="5.52172">
        <ele>359.6</ele>
        <time>2019-05-24T19:36:46.762Z</time>
      </trkpt>
      <trkpt lat="45.78454" lon="5.52167">
        <ele>357.6</ele>
        <time>2019-05-24T19:36:46.879Z</time>
      </trkpt>
      <trkpt lat="45.78444" lon="5.52123">
        <ele>351.1</ele>
        <time>2019-05-24T19:36:47.537Z</time>
      </trkpt>
      <trkpt lat="45.78443" lon="5.52109">
        <ele>347.3</ele>
        <time>2019-05-24T19:36:47.726Z</time>
      </trkpt>
      <trkpt lat="45.78441" lon="5.52104">
        <ele>347.2</ele>
        <time>2019-05-24T19:36:47.811Z</time>
      </trkpt>
      <trkpt lat="45.78553" lon="5.52053">
        <ele>369.9</ele>
        <time>2019-05-24T19:36:50.153Z</time>
      </trkpt>
      <trkpt lat="45.78548" lon="5.52033">
        <ele>369.6</ele>
        <time>2019-05-24T19:36:50.453Z</time>
      </trkpt>
      <trkpt lat="45.78549" lon="5.52001">
        <ele>374.1</ele>
        <time>2019-05-24T19:36:50.893Z</time>
      </trkpt>
      <trkpt lat="45.78554" lon="5.51983">
        <ele>376.1</ele>
        <time>2019-05-24T19:36:51.158Z</time>
      </trkpt>
      <trkpt lat="45.78561" lon="5.51973">
        <ele>378.7</ele>
        <time>2019-05-24T19:36:51.359Z</time>
      </trkpt>
      <trkpt lat="45.78564" lon="5.51975">
        <ele>379.7</ele>
        <time>2019-05-24T19:36:51.430Z</time>
      </trkpt>
      <trkpt lat="45.7857" lon="5.51986">
        <ele>381.1</ele>
        <time>2019-05-24T19:36:51.615Z</time>
      </trkpt>
      <trkpt lat="45.78584" lon="5.51999">
        <ele>385.1</ele>
        <time>2019-05-24T19:36:51.964Z</time>
      </trkpt>
      <trkpt lat="45.7863" lon="5.5203">
        <ele>388.2</ele>
        <time>2019-05-24T19:36:52.969Z</time>
      </trkpt>
      <trkpt lat="45.78651" lon="5.52042">
        <ele>393.2</ele>
        <time>2019-05-24T19:36:53.430Z</time>
      </trkpt>
      <trkpt lat="45.78654" lon="5.52045">
        <ele>394</ele>
        <time>2019-05-24T19:36:53.509Z</time>
      </trkpt>
      <trkpt lat="45.78655" lon="5.52053">
        <ele>394.7</ele>
        <time>2019-05-24T19:36:53.621Z</time>
      </trkpt>
      <trkpt lat="45.78653" lon="5.52064">
        <ele>396.1</ele>
        <time>2019-05-24T19:36:53.777Z</time>
      </trkpt>
      <trkpt lat="45.78638" lon="5.52083">
        <ele>398.7</ele>
        <time>2019-05-24T19:36:54.180Z</time>
      </trkpt>
      <trkpt lat="45.78631" lon="5.52104">
        <ele>397.3</ele>
        <time>2019-05-24T19:36:54.501Z</time>
      </trkpt>
      <trkpt lat="45.78633" lon="5.52129">
        <ele>396.7</ele>
        <time>2019-05-24T19:36:54.858Z</time>
      </trkpt>
      <trkpt lat="45.7865" lon="5.52197">
        <ele>393.4</ele>
        <time>2019-05-24T19:36:55.861Z</time>
      </trkpt>
      <trkpt lat="45.78657" lon="5.52288">
        <ele>395.2</ele>
        <time>2019-05-24T19:36:57.149Z</time>
      </trkpt>
      <trkpt lat="45.78658" lon="5.5232">
        <ele>396.6</ele>
        <time>2019-05-24T19:36:57.595Z</time>
      </trkpt>
      <trkpt lat="45.78656" lon="5.52359">
        <ele>396.8</ele>
        <time>2019-05-24T19:36:58.145Z</time>
      </trkpt>
      <trkpt lat="45.78658" lon="5.52374">
        <ele>396.8</ele>
        <time>2019-05-24T19:36:58.365Z</time>
      </trkpt>
      <trkpt lat="45.78661" lon="5.52379">
        <ele>397.1</ele>
        <time>2019-05-24T19:36:58.444Z</time>
      </trkpt>
      <trkpt lat="45.78671" lon="5.52391">
        <ele>398.2</ele>
        <time>2019-05-24T19:36:58.714Z</time>
      </trkpt>
      <trkpt lat="45.78687" lon="5.52395">
        <ele>399.3</ele>
        <time>2019-05-24T19:36:59.037Z</time>
      </trkpt>
      <trkpt lat="45.78695" lon="5.5239">
        <ele>400.2</ele>
        <time>2019-05-24T19:36:59.211Z</time>
      </trkpt>
      <trkpt lat="45.787" lon="5.52382">
        <ele>401.6</ele>
        <time>2019-05-24T19:36:59.359Z</time>
      </trkpt>
      <trkpt lat="45.7871" lon="5.52359">
        <ele>403.9</ele>
        <time>2019-05-24T19:36:59.734Z</time>
      </trkpt>
      <trkpt lat="45.78714" lon="5.52345">
        <ele>404.8</ele>
        <time>2019-05-24T19:36:59.945Z</time>
      </trkpt>
      <trkpt lat="45.78718" lon="5.5232">
        <ele>404.5</ele>
        <time>2019-05-24T19:37:00.302Z</time>
      </trkpt>
      <trkpt lat="45.7872" lon="5.52288">
        <ele>403.6</ele>
        <time>2019-05-24T19:37:00.763Z</time>
      </trkpt>
      <trkpt lat="45.78714" lon="5.52171">
        <ele>409.8</ele>
        <time>2019-05-24T19:37:02.398Z</time>
      </trkpt>
      <trkpt lat="45.78715" lon="5.52128">
        <ele>414.2</ele>
        <time>2019-05-24T19:37:02.999Z</time>
      </trkpt>
      <trkpt lat="45.78722" lon="5.5208">
        <ele>417.1</ele>
        <time>2019-05-24T19:37:03.681Z</time>
      </trkpt>
      <trkpt lat="45.78721" lon="5.52027">
        <ele>421.6</ele>
        <time>2019-05-24T19:37:04.423Z</time>
      </trkpt>
      <trkpt lat="45.78729" lon="5.51998">
        <ele>426.7</ele>
        <time>2019-05-24T19:37:04.863Z</time>
      </trkpt>
      <trkpt lat="45.78738" lon="5.51976">
        <ele>429.3</ele>
        <time>2019-05-24T19:37:05.213Z</time>
      </trkpt>
      <trkpt lat="45.78752" lon="5.51946">
        <ele>433.7</ele>
        <time>2019-05-24T19:37:05.725Z</time>
      </trkpt>
      <trkpt lat="45.78772" lon="5.51911">
        <ele>436.7</ele>
        <time>2019-05-24T19:37:06.358Z</time>
      </trkpt>
      <trkpt lat="45.78802" lon="5.51845">
        <ele>440.1</ele>
        <time>2019-05-24T19:37:07.456Z</time>
      </trkpt>
      <trkpt lat="45.78821" lon="5.51815">
        <ele>442</ele>
        <time>2019-05-24T19:37:08.015Z</time>
      </trkpt>
      <trkpt lat="45.78839" lon="5.5179">
        <ele>444.5</ele>
        <time>2019-05-24T19:37:08.519Z</time>
      </trkpt>
      <trkpt lat="45.7886" lon="5.51764">
        <ele>448.2</ele>
        <time>2019-05-24T19:37:09.075Z</time>
      </trkpt>
      <trkpt lat="45.78889" lon="5.51724">
        <ele>452.1</ele>
        <time>2019-05-24T19:37:09.888Z</time>
      </trkpt>
      <trkpt lat="45.78918" lon="5.51689">
        <ele>456.8</ele>
        <time>2019-05-24T19:37:10.638Z</time>
      </trkpt>
      <trkpt lat="45.7893" lon="5.51677">
        <ele>458.2</ele>
        <time>2019-05-24T19:37:10.939Z</time>
      </trkpt>
      <trkpt lat="45.78962" lon="5.51638">
        <ele>461.1</ele>
        <time>2019-05-24T19:37:11.781Z</time>
      </trkpt>
      <trkpt lat="45.78973" lon="5.51624">
        <ele>462.6</ele>
        <time>2019-05-24T19:37:12.078Z</time>
      </trkpt>
      <trkpt lat="45.78991" lon="5.51594">
        <ele>464.3</ele>
        <time>2019-05-24T19:37:12.628Z</time>
      </trkpt>
      <trkpt lat="45.79011" lon="5.5157">
        <ele>467.1</ele>
        <time>2019-05-24T19:37:13.154Z</time>
      </trkpt>
      <trkpt lat="45.79022" lon="5.51552">
        <ele>468.4</ele>
        <time>2019-05-24T19:37:13.488Z</time>
      </trkpt>
      <trkpt lat="45.79042" lon="5.51486">
        <ele>472</ele>
        <time>2019-05-24T19:37:14.493Z</time>
      </trkpt>
      <trkpt lat="45.79055" lon="5.5145">
        <ele>474.1</ele>
        <time>2019-05-24T19:37:15.061Z</time>
      </trkpt>
      <trkpt lat="45.79071" lon="5.51413">
        <ele>477</ele>
        <time>2019-05-24T19:37:15.671Z</time>
      </trkpt>
      <trkpt lat="45.79095" lon="5.51364">
        <ele>480</ele>
        <time>2019-05-24T19:37:16.513Z</time>
      </trkpt>
      <trkpt lat="45.79106" lon="5.51347">
        <ele>481</ele>
        <time>2019-05-24T19:37:16.829Z</time>
      </trkpt>
      <trkpt lat="45.79121" lon="5.51329">
        <ele>482.4</ele>
        <time>2019-05-24T19:37:17.213Z</time>
      </trkpt>
      <trkpt lat="45.79137" lon="5.51313">
        <ele>484.5</ele>
        <time>2019-05-24T19:37:17.609Z</time>
      </trkpt>
      <trkpt lat="45.79166" lon="5.51287">
        <ele>487.3</ele>
        <time>2019-05-24T19:37:18.305Z</time>
      </trkpt>
      <trkpt lat="45.79175" lon="5.51275">
        <ele>489.1</ele>
        <time>2019-05-24T19:37:18.557Z</time>
      </trkpt>
      <trkpt lat="45.79185" lon="5.51255">
        <ele>490.2</ele>
        <time>2019-05-24T19:37:18.888Z</time>
      </trkpt>
      <trkpt lat="45.79208" lon="5.51195">
        <ele>493.5</ele>
        <time>2019-05-24T19:37:19.857Z</time>
      </trkpt>
      <trkpt lat="45.79224" lon="5.51161">
        <ele>496</ele>
        <time>2019-05-24T19:37:20.418Z</time>
      </trkpt>
      <trkpt lat="45.79242" lon="5.51126">
        <ele>498.4</ele>
        <time>2019-05-24T19:37:21.041Z</time>
      </trkpt>
      <trkpt lat="45.79255" lon="5.5111">
        <ele>499.6</ele>
        <time>2019-05-24T19:37:21.368Z</time>
      </trkpt>
      <trkpt lat="45.79263" lon="5.51105">
        <ele>500.2</ele>
        <time>2019-05-24T19:37:21.543Z</time>
      </trkpt>
      <trkpt lat="45.79294" lon="5.51094">
        <ele>503.2</ele>
        <time>2019-05-24T19:37:22.186Z</time>
      </trkpt>
      <trkpt lat="45.79307" lon="5.51088">
        <ele>504.1</ele>
        <time>2019-05-24T19:37:22.460Z</time>
      </trkpt>
      <trkpt lat="45.79322" lon="5.51077">
        <ele>505.7</ele>
        <time>2019-05-24T19:37:22.804Z</time>
      </trkpt>
      <trkpt lat="45.79329" lon="5.5107">
        <ele>506.2</ele>
        <time>2019-05-24T19:37:22.977Z</time>
      </trkpt>
      <trkpt lat="45.79341" lon="5.51053">
        <ele>507.4</ele>
        <time>2019-05-24T19:37:23.323Z</time>
      </trkpt>
      <trkpt lat="45.79355" lon="5.51017">
        <ele>509</ele>
        <time>2019-05-24T19:37:23.900Z</time>
      </trkpt>
      <trkpt lat="45.79372" lon="5.50986">
        <ele>510.3</ele>
        <time>2019-05-24T19:37:24.442Z</time>
      </trkpt>
      <trkpt lat="45.79393" lon="5.50959">
        <ele>512.6</ele>
        <time>2019-05-24T19:37:25.009Z</time>
      </trkpt>
      <trkpt lat="45.79403" lon="5.5095">
        <ele>513.4</ele>
        <time>2019-05-24T19:37:25.236Z</time>
      </trkpt>
      <trkpt lat="45.7941" lon="5.50945">
        <ele>514.5</ele>
        <time>2019-05-24T19:37:25.404Z</time>
      </trkpt>
      <trkpt lat="45.7943" lon="5.50937">
        <ele>517.1</ele>
        <time>2019-05-24T19:37:25.822Z</time>
      </trkpt>
      <trkpt lat="45.79446" lon="5.50928">
        <ele>518.4</ele>
        <time>2019-05-24T19:37:26.156Z</time>
      </trkpt>
      <trkpt lat="45.79457" lon="5.50919">
        <ele>519</ele>
        <time>2019-05-24T19:37:26.413Z</time>
      </trkpt>
      <trkpt lat="45.79469" lon="5.50904">
        <ele>520.5</ele>
        <time>2019-05-24T19:37:26.726Z</time>
      </trkpt>
      <trkpt lat="45.79482" lon="5.50893">
        <ele>522.3</ele>
        <time>2019-05-24T19:37:27.031Z</time>
      </trkpt>
      <trkpt lat="45.79511" lon="5.50883">
        <ele>526.6</ele>
        <time>2019-05-24T19:37:27.639Z</time>
      </trkpt>
      <trkpt lat="45.79522" lon="5.50884">
        <ele>527.2</ele>
        <time>2019-05-24T19:37:27.846Z</time>
      </trkpt>
      <trkpt lat="45.79531" lon="5.50889">
        <ele>527.7</ele>
        <time>2019-05-24T19:37:28.054Z</time>
      </trkpt>
      <trkpt lat="45.79545" lon="5.50914">
        <ele>530.4</ele>
        <time>2019-05-24T19:37:28.500Z</time>
      </trkpt>
      <trkpt lat="45.79553" lon="5.50916">
        <ele>531.6</ele>
        <time>2019-05-24T19:37:28.656Z</time>
      </trkpt>
      <trkpt lat="45.79589" lon="5.50898">
        <ele>534.8</ele>
        <time>2019-05-24T19:37:29.424Z</time>
      </trkpt>
      <trkpt lat="45.79609" lon="5.50876">
        <ele>535.9</ele>
        <time>2019-05-24T19:37:29.940Z</time>
      </trkpt>
      <trkpt lat="45.79639" lon="5.50859">
        <ele>538.1</ele>
        <time>2019-05-24T19:37:30.575Z</time>
      </trkpt>
      <trkpt lat="45.79645" lon="5.50855">
        <ele>539</ele>
        <time>2019-05-24T19:37:30.714Z</time>
      </trkpt>
      <trkpt lat="45.79647" lon="5.50852">
        <ele>539.4</ele>
        <time>2019-05-24T19:37:30.779Z</time>
      </trkpt>
      <trkpt lat="45.79648" lon="5.50843">
        <ele>539.8</ele>
        <time>2019-05-24T19:37:30.899Z</time>
      </trkpt>
      <trkpt lat="45.79625" lon="5.50813">
        <ele>541.5</ele>
        <time>2019-05-24T19:37:31.533Z</time>
      </trkpt>
      <trkpt lat="45.79622" lon="5.50807">
        <ele>542.4</ele>
        <time>2019-05-24T19:37:31.633Z</time>
      </trkpt>
      <trkpt lat="45.79619" lon="5.50794">
        <ele>545.6</ele>
        <time>2019-05-24T19:37:31.826Z</time>
      </trkpt>
      <trkpt lat="45.7962" lon="5.50788">
        <ele>547</ele>
        <time>2019-05-24T19:37:31.915Z</time>
      </trkpt>
      <trkpt lat="45.7963" lon="5.5077">
        <ele>550.1</ele>
        <time>2019-05-24T19:37:32.227Z</time>
      </trkpt>
      <trkpt lat="45.79634" lon="5.50756">
        <ele>552.3</ele>
        <time>2019-05-24T19:37:32.441Z</time>
      </trkpt>
      <trkpt lat="45.7964" lon="5.50721">
        <ele>557.9</ele>
        <time>2019-05-24T19:37:32.940Z</time>
      </trkpt>
      <trkpt lat="45.79642" lon="5.50696">
        <ele>561.2</ele>
        <time>2019-05-24T19:37:33.292Z</time>
      </trkpt>
      <trkpt lat="45.79642" lon="5.50664">
        <ele>565.8</ele>
        <time>2019-05-24T19:37:33.739Z</time>
      </trkpt>
      <trkpt lat="45.79639" lon="5.50628">
        <ele>570.2</ele>
        <time>2019-05-24T19:37:34.248Z</time>
      </trkpt>
      <trkpt lat="45.79634" lon="5.50608">
        <ele>572.6</ele>
        <time>2019-05-24T19:37:34.542Z</time>
      </trkpt>
      <trkpt lat="45.79623" lon="5.50585">
        <ele>576.4</ele>
        <time>2019-05-24T19:37:34.924Z</time>
      </trkpt>
      <trkpt lat="45.79623" lon="5.50577">
        <ele>577.6</ele>
        <time>2019-05-24T19:37:35.043Z</time>
      </trkpt>
      <trkpt lat="45.79616" lon="5.50535">
        <ele>584.5</ele>
        <time>2019-05-24T19:37:35.644Z</time>
      </trkpt>
      <trkpt lat="45.79617" lon="5.50522">
        <ele>586.8</ele>
        <time>2019-05-24T19:37:35.831Z</time>
      </trkpt>
      <trkpt lat="45.79621" lon="5.50499">
        <ele>590.7</ele>
        <time>2019-05-24T19:37:36.159Z</time>
      </trkpt>
      <trkpt lat="45.79624" lon="5.50486">
        <ele>592.2</ele>
        <time>2019-05-24T19:37:36.356Z</time>
      </trkpt>
      <trkpt lat="45.79629" lon="5.50474">
        <ele>593.2</ele>
        <time>2019-05-24T19:37:36.556Z</time>
      </trkpt>
      <trkpt lat="45.79636" lon="5.50465">
        <ele>593.8</ele>
        <time>2019-05-24T19:37:36.728Z</time>
      </trkpt>
      <trkpt lat="45.79722" lon="5.50374">
        <ele>608</ele>
        <time>2019-05-24T19:37:38.876Z</time>
      </trkpt>
      <trkpt lat="45.79759" lon="5.50376">
        <ele>604.4</ele>
        <time>2019-05-24T19:37:39.630Z</time>
      </trkpt>
      <trkpt lat="45.79785" lon="5.50367">
        <ele>603.1</ele>
        <time>2019-05-24T19:37:40.155Z</time>
      </trkpt>
      <trkpt lat="45.79807" lon="5.50363">
        <ele>601.2</ele>
        <time>2019-05-24T19:37:40.602Z</time>
      </trkpt>
      <trkpt lat="45.79818" lon="5.50359">
        <ele>601</ele>
        <time>2019-05-24T19:37:40.827Z</time>
      </trkpt>
      <trkpt lat="45.79826" lon="5.50349">
        <ele>600.9</ele>
        <time>2019-05-24T19:37:41.040Z</time>
      </trkpt>
      <trkpt lat="45.79831" lon="5.50326">
        <ele>600.5</ele>
        <time>2019-05-24T19:37:41.371Z</time>
      </trkpt>
      <trkpt lat="45.79836" lon="5.50313">
        <ele>599.3</ele>
        <time>2019-05-24T19:37:41.578Z</time>
      </trkpt>
      <trkpt lat="45.79842" lon="5.50304">
        <ele>598.2</ele>
        <time>2019-05-24T19:37:41.754Z</time>
      </trkpt>
      <trkpt lat="45.79864" lon="5.50294">
        <ele>595.1</ele>
        <time>2019-05-24T19:37:42.210Z</time>
      </trkpt>
      <trkpt lat="45.79879" lon="5.50293">
        <ele>592.3</ele>
        <time>2019-05-24T19:37:42.505Z</time>
      </trkpt>
      <trkpt lat="45.79897" lon="5.50288">
        <ele>589.5</ele>
        <time>2019-05-24T19:37:42.874Z</time>
      </trkpt>
      <trkpt lat="45.79916" lon="5.5028">
        <ele>587.5</ele>
        <time>2019-05-24T19:37:43.271Z</time>
      </trkpt>
      <trkpt lat="45.79946" lon="5.50248">
        <ele>587.1</ele>
        <time>2019-05-24T19:37:44.018Z</time>
      </trkpt>
      <trkpt lat="45.79964" lon="5.50234">
        <ele>585</ele>
        <time>2019-05-24T19:37:44.439Z</time>
      </trkpt>
      <trkpt lat="45.79986" lon="5.50208">
        <ele>583.2</ele>
        <time>2019-05-24T19:37:45.007Z</time>
      </trkpt>
      <trkpt lat="45.80016" lon="5.50192">
        <ele>577.6</ele>
        <time>2019-05-24T19:37:45.654Z</time>
      </trkpt>
      <trkpt lat="45.80028" lon="5.50183">
        <ele>576.9</ele>
        <time>2019-05-24T19:37:45.926Z</time>
      </trkpt>
      <trkpt lat="45.80059" lon="5.50154">
        <ele>574.2</ele>
        <time>2019-05-24T19:37:46.668Z</time>
      </trkpt>
      <trkpt lat="45.8007" lon="5.50141">
        <ele>574.1</ele>
        <time>2019-05-24T19:37:46.941Z</time>
      </trkpt>
      <trkpt lat="45.80084" lon="5.50118">
        <ele>574.9</ele>
        <time>2019-05-24T19:37:47.379Z</time>
      </trkpt>
      <trkpt lat="45.80092" lon="5.50101">
        <ele>575.9</ele>
        <time>2019-05-24T19:37:47.665Z</time>
      </trkpt>
      <trkpt lat="45.80103" lon="5.50067">
        <ele>578</ele>
        <time>2019-05-24T19:37:48.183Z</time>
      </trkpt>
      <trkpt lat="45.8011" lon="5.50055">
        <ele>578.5</ele>
        <time>2019-05-24T19:37:48.405Z</time>
      </trkpt>
      <trkpt lat="45.80126" lon="5.50037">
        <ele>580.9</ele>
        <time>2019-05-24T19:37:48.817Z</time>
      </trkpt>
      <trkpt lat="45.80145" lon="5.50009">
        <ele>584.3</ele>
        <time>2019-05-24T19:37:49.368Z</time>
      </trkpt>
      <trkpt lat="45.80159" lon="5.49969">
        <ele>588.3</ele>
        <time>2019-05-24T19:37:49.980Z</time>
      </trkpt>
      <trkpt lat="45.80165" lon="5.49939">
        <ele>590.6</ele>
        <time>2019-05-24T19:37:50.424Z</time>
      </trkpt>
      <trkpt lat="45.80174" lon="5.49915">
        <ele>591.6</ele>
        <time>2019-05-24T19:37:50.803Z</time>
      </trkpt>
      <trkpt lat="45.80185" lon="5.49902">
        <ele>593</ele>
        <time>2019-05-24T19:37:51.086Z</time>
      </trkpt>
      <trkpt lat="45.80205" lon="5.49886">
        <ele>594.6</ele>
        <time>2019-05-24T19:37:51.553Z</time>
      </trkpt>
      <trkpt lat="45.80215" lon="5.49874">
        <ele>596.7</ele>
        <time>2019-05-24T19:37:51.809Z</time>
      </trkpt>
      <trkpt lat="45.80221" lon="5.49863">
        <ele>598.7</ele>
        <time>2019-05-24T19:37:52.006Z</time>
      </trkpt>
      <trkpt lat="45.80229" lon="5.49843">
        <ele>600.1</ele>
        <time>2019-05-24T19:37:52.332Z</time>
      </trkpt>
      <trkpt lat="45.80232" lon="5.49834">
        <ele>601.2</ele>
        <time>2019-05-24T19:37:52.468Z</time>
      </trkpt>
      <trkpt lat="45.80235" lon="5.49804">
        <ele>603.1</ele>
        <time>2019-05-24T19:37:52.887Z</time>
      </trkpt>
      <trkpt lat="45.80239" lon="5.49801">
        <ele>602.4</ele>
        <time>2019-05-24T19:37:52.970Z</time>
      </trkpt>
      <trkpt lat="45.80244" lon="5.49801">
        <ele>601.7</ele>
        <time>2019-05-24T19:37:53.074Z</time>
      </trkpt>
      <trkpt lat="45.80258" lon="5.49797">
        <ele>600.2</ele>
        <time>2019-05-24T19:37:53.354Z</time>
      </trkpt>
      <trkpt lat="45.80272" lon="5.49785">
        <ele>599.3</ele>
        <time>2019-05-24T19:37:53.692Z</time>
      </trkpt>
      <trkpt lat="45.80286" lon="5.4978">
        <ele>597.4</ele>
        <time>2019-05-24T19:37:53.981Z</time>
      </trkpt>
      <trkpt lat="45.80337" lon="5.49779">
        <ele>588.2</ele>
        <time>2019-05-24T19:37:54.991Z</time>
      </trkpt>
      <trkpt lat="45.80389" lon="5.4977">
        <ele>578.1</ele>
        <time>2019-05-24T19:37:56.052Z</time>
      </trkpt>
      <trkpt lat="45.80396" lon="5.49768">
        <ele>576.2</ele>
        <time>2019-05-24T19:37:56.187Z</time>
      </trkpt>
      <trkpt lat="45.80407" lon="5.49759">
        <ele>573.3</ele>
        <time>2019-05-24T19:37:56.446Z</time>
      </trkpt>
      <trkpt lat="45.80417" lon="5.49746">
        <ele>571.2</ele>
        <time>2019-05-24T19:37:56.723Z</time>
      </trkpt>
      <trkpt lat="45.80433" lon="5.49716">
        <ele>566.3</ele>
        <time>2019-05-24T19:37:57.240Z</time>
      </trkpt>
      <trkpt lat="45.80447" lon="5.49679">
        <ele>562.5</ele>
        <time>2019-05-24T19:37:57.831Z</time>
      </trkpt>
      <trkpt lat="45.80451" lon="5.49653">
        <ele>560.2</ele>
        <time>2019-05-24T19:37:58.206Z</time>
      </trkpt>
      <trkpt lat="45.80454" lon="5.49613">
        <ele>558.1</ele>
        <time>2019-05-24T19:37:58.760Z</time>
      </trkpt>
      <trkpt lat="45.80458" lon="5.4958">
        <ele>555.9</ele>
        <time>2019-05-24T19:37:59.242Z</time>
      </trkpt>
      <trkpt lat="45.80455" lon="5.49535">
        <ele>554</ele>
        <time>2019-05-24T19:37:59.863Z</time>
      </trkpt>
      <trkpt lat="45.80461" lon="5.49518">
        <ele>552.7</ele>
        <time>2019-05-24T19:38:00.125Z</time>
      </trkpt>
      <trkpt lat="45.80471" lon="5.49502">
        <ele>551.2</ele>
        <time>2019-05-24T19:38:00.431Z</time>
      </trkpt>
      <trkpt lat="45.80481" lon="5.49483">
        <ele>549.7</ele>
        <time>2019-05-24T19:38:00.759Z</time>
      </trkpt>
      <trkpt lat="45.80508" lon="5.49418">
        <ele>547.1</ele>
        <time>2019-05-24T19:38:01.827Z</time>
      </trkpt>
      <trkpt lat="45.80516" lon="5.49383">
        <ele>545.2</ele>
        <time>2019-05-24T19:38:02.336Z</time>
      </trkpt>
      <trkpt lat="45.80531" lon="5.49279">
        <ele>541.8</ele>
        <time>2019-05-24T19:38:03.818Z</time>
      </trkpt>
      <trkpt lat="45.80537" lon="5.49253">
        <ele>541.3</ele>
        <time>2019-05-24T19:38:04.208Z</time>
      </trkpt>
      <trkpt lat="45.8054" lon="5.49245">
        <ele>541.2</ele>
        <time>2019-05-24T19:38:04.336Z</time>
      </trkpt>
      <trkpt lat="45.80552" lon="5.49223">
        <ele>541.1</ele>
        <time>2019-05-24T19:38:04.718Z</time>
      </trkpt>
      <trkpt lat="45.80576" lon="5.49197">
        <ele>540.3</ele>
        <time>2019-05-24T19:38:05.326Z</time>
      </trkpt>
      <trkpt lat="45.80583" lon="5.49185">
        <ele>539.7</ele>
        <time>2019-05-24T19:38:05.546Z</time>
      </trkpt>
      <trkpt lat="45.80585" lon="5.49178">
        <ele>539.3</ele>
        <time>2019-05-24T19:38:05.652Z</time>
      </trkpt>
      <trkpt lat="45.80586" lon="5.49163">
        <ele>538.9</ele>
        <time>2019-05-24T19:38:05.858Z</time>
      </trkpt>
      <trkpt lat="45.80583" lon="5.49141">
        <ele>539</ele>
        <time>2019-05-24T19:38:06.166Z</time>
      </trkpt>
      <trkpt lat="45.80569" lon="5.4908">
        <ele>538.5</ele>
        <time>2019-05-24T19:38:07.062Z</time>
      </trkpt>
      <trkpt lat="45.8057" lon="5.49075">
        <ele>538.3</ele>
        <time>2019-05-24T19:38:07.139Z</time>
      </trkpt>
      <trkpt lat="45.8058" lon="5.49058">
        <ele>538</ele>
        <time>2019-05-24T19:38:07.448Z</time>
      </trkpt>
      <trkpt lat="45.8063" lon="5.49015">
        <ele>536.8</ele>
        <time>2019-05-24T19:38:08.622Z</time>
      </trkpt>
      <trkpt lat="45.8065" lon="5.49001">
        <ele>537</ele>
        <time>2019-05-24T19:38:09.055Z</time>
      </trkpt>
      <trkpt lat="45.80684" lon="5.48974">
        <ele>535.8</ele>
        <time>2019-05-24T19:38:09.835Z</time>
      </trkpt>
      <trkpt lat="45.8071" lon="5.48967">
        <ele>533.8</ele>
        <time>2019-05-24T19:38:10.365Z</time>
      </trkpt>
      <trkpt lat="45.80711" lon="5.48964">
        <ele>533.5</ele>
        <time>2019-05-24T19:38:10.406Z</time>
      </trkpt>
      <trkpt lat="45.80709" lon="5.48956">
        <ele>532.7</ele>
        <time>2019-05-24T19:38:10.524Z</time>
      </trkpt>
      <trkpt lat="45.807" lon="5.48935">
        <ele>531</ele>
        <time>2019-05-24T19:38:10.865Z</time>
      </trkpt>
      <trkpt lat="45.80693" lon="5.48904">
        <ele>528.1</ele>
        <time>2019-05-24T19:38:11.328Z</time>
      </trkpt>
      <trkpt lat="45.80691" lon="5.4888">
        <ele>526.9</ele>
        <time>2019-05-24T19:38:11.662Z</time>
      </trkpt>
      <trkpt lat="45.80693" lon="5.48796">
        <ele>533</ele>
        <time>2019-05-24T19:38:12.841Z</time>
      </trkpt>
      <trkpt lat="45.80691" lon="5.48781">
        <ele>534.6</ele>
        <time>2019-05-24T19:38:13.050Z</time>
      </trkpt>
      <trkpt lat="45.80683" lon="5.48749">
        <ele>540</ele>
        <time>2019-05-24T19:38:13.526Z</time>
      </trkpt>
      <trkpt lat="45.80684" lon="5.48737">
        <ele>542</ele>
        <time>2019-05-24T19:38:13.694Z</time>
      </trkpt>
      <trkpt lat="45.80693" lon="5.48721">
        <ele>543.5</ele>
        <time>2019-05-24T19:38:13.981Z</time>
      </trkpt>
      <trkpt lat="45.8073" lon="5.48696">
        <ele>543.1</ele>
        <time>2019-05-24T19:38:14.802Z</time>
      </trkpt>
      <trkpt lat="45.80743" lon="5.48693">
        <ele>542.7</ele>
        <time>2019-05-24T19:38:15.057Z</time>
      </trkpt>
      <trkpt lat="45.80782" lon="5.48691">
        <ele>546.3</ele>
        <time>2019-05-24T19:38:15.835Z</time>
      </trkpt>
      <trkpt lat="45.80797" lon="5.48685">
        <ele>549.1</ele>
        <time>2019-05-24T19:38:16.148Z</time>
      </trkpt>
      <trkpt lat="45.80813" lon="5.48671">
        <ele>552.7</ele>
        <time>2019-05-24T19:38:16.521Z</time>
      </trkpt>
      <trkpt lat="45.80822" lon="5.48659">
        <ele>554.2</ele>
        <time>2019-05-24T19:38:16.774Z</time>
      </trkpt>
      <trkpt lat="45.80848" lon="5.48617">
        <ele>560.4</ele>
        <time>2019-05-24T19:38:17.553Z</time>
      </trkpt>
      <trkpt lat="45.80871" lon="5.4857">
        <ele>568</ele>
        <time>2019-05-24T19:38:18.368Z</time>
      </trkpt>
      <trkpt lat="45.80893" lon="5.48513">
        <ele>575.7</ele>
        <time>2019-05-24T19:38:19.264Z</time>
      </trkpt>
      <trkpt lat="45.80929" lon="5.48447">
        <ele>584.1</ele>
        <time>2019-05-24T19:38:20.446Z</time>
      </trkpt>
      <trkpt lat="45.8096" lon="5.48407">
        <ele>588.5</ele>
        <time>2019-05-24T19:38:21.274Z</time>
      </trkpt>
      <trkpt lat="45.80963" lon="5.48392">
        <ele>591.3</ele>
        <time>2019-05-24T19:38:21.486Z</time>
      </trkpt>
      <trkpt lat="45.80961" lon="5.48388">
        <ele>592.4</ele>
        <time>2019-05-24T19:38:21.552Z</time>
      </trkpt>
      <trkpt lat="45.80955" lon="5.48382">
        <ele>594.4</ele>
        <time>2019-05-24T19:38:21.700Z</time>
      </trkpt>
      <trkpt lat="45.80908" lon="5.48385">
        <ele>599.7</ele>
        <time>2019-05-24T19:38:22.651Z</time>
      </trkpt>
      <trkpt lat="45.80892" lon="5.48391">
        <ele>600.9</ele>
        <time>2019-05-24T19:38:22.980Z</time>
      </trkpt>
      <trkpt lat="45.80853" lon="5.484">
        <ele>605.3</ele>
        <time>2019-05-24T19:38:23.769Z</time>
      </trkpt>
      <trkpt lat="45.80849" lon="5.48402">
        <ele>605.1</ele>
        <time>2019-05-24T19:38:23.854Z</time>
      </trkpt>
      <trkpt lat="45.80829" lon="5.48407">
        <ele>606.3</ele>
        <time>2019-05-24T19:38:24.262Z</time>
      </trkpt>
      <trkpt lat="45.80801" lon="5.4841">
        <ele>608.4</ele>
        <time>2019-05-24T19:38:24.839Z</time>
      </trkpt>
      <trkpt lat="45.80755" lon="5.48427">
        <ele>611.2</ele>
        <time>2019-05-24T19:38:25.783Z</time>
      </trkpt>
      <trkpt lat="45.80723" lon="5.48431">
        <ele>615.1</ele>
        <time>2019-05-24T19:38:26.426Z</time>
      </trkpt>
      <trkpt lat="45.80705" lon="5.48425">
        <ele>615.5</ele>
        <time>2019-05-24T19:38:26.794Z</time>
      </trkpt>
      <trkpt lat="45.807" lon="5.48419">
        <ele>616.3</ele>
        <time>2019-05-24T19:38:26.927Z</time>
      </trkpt>
      <trkpt lat="45.80691" lon="5.48402">
        <ele>618.7</ele>
        <time>2019-05-24T19:38:27.218Z</time>
      </trkpt>
      <trkpt lat="45.8068" lon="5.48388">
        <ele>620</ele>
        <time>2019-05-24T19:38:27.516Z</time>
      </trkpt>
      <trkpt lat="45.80676" lon="5.48385">
        <ele>619.7</ele>
        <time>2019-05-24T19:38:27.605Z</time>
      </trkpt>
      <trkpt lat="45.80665" lon="5.4839">
        <ele>618.4</ele>
        <time>2019-05-24T19:38:27.837Z</time>
      </trkpt>
      <trkpt lat="45.80652" lon="5.48409">
        <ele>618.9</ele>
        <time>2019-05-24T19:38:28.203Z</time>
      </trkpt>
      <trkpt lat="45.80649" lon="5.48414">
        <ele>619.1</ele>
        <time>2019-05-24T19:38:28.301Z</time>
      </trkpt>
      <trkpt lat="45.80642" lon="5.48418">
        <ele>620.2</ele>
        <time>2019-05-24T19:38:28.453Z</time>
      </trkpt>
      <trkpt lat="45.80636" lon="5.48419">
        <ele>620.7</ele>
        <time>2019-05-24T19:38:28.560Z</time>
      </trkpt>
      <trkpt lat="45.80621" lon="5.48415">
        <ele>622.7</ele>
        <time>2019-05-24T19:38:28.879Z</time>
      </trkpt>
      <trkpt lat="45.80612" lon="5.4841">
        <ele>624.3</ele>
        <time>2019-05-24T19:38:29.066Z</time>
      </trkpt>
      <trkpt lat="45.80588" lon="5.48385">
        <ele>628</ele>
        <time>2019-05-24T19:38:29.669Z</time>
      </trkpt>
      <trkpt lat="45.80573" lon="5.48367">
        <ele>631</ele>
        <time>2019-05-24T19:38:30.053Z</time>
      </trkpt>
      <trkpt lat="45.80569" lon="5.48359">
        <ele>632.2</ele>
        <time>2019-05-24T19:38:30.193Z</time>
      </trkpt>
      <trkpt lat="45.80565" lon="5.48348">
        <ele>633.3</ele>
        <time>2019-05-24T19:38:30.366Z</time>
      </trkpt>
      <trkpt lat="45.80567" lon="5.48322">
        <ele>635.7</ele>
        <time>2019-05-24T19:38:30.737Z</time>
      </trkpt>
      <trkpt lat="45.80573" lon="5.48293">
        <ele>637.7</ele>
        <time>2019-05-24T19:38:31.151Z</time>
      </trkpt>
      <trkpt lat="45.80596" lon="5.48233">
        <ele>641.7</ele>
        <time>2019-05-24T19:38:32.114Z</time>
      </trkpt>
      <trkpt lat="45.80598" lon="5.48218">
        <ele>642.8</ele>
        <time>2019-05-24T19:38:32.331Z</time>
      </trkpt>
      <trkpt lat="45.80598" lon="5.48201">
        <ele>644</ele>
        <time>2019-05-24T19:38:32.565Z</time>
      </trkpt>
      <trkpt lat="45.80591" lon="5.48166">
        <ele>645</ele>
        <time>2019-05-24T19:38:33.071Z</time>
      </trkpt>
      <trkpt lat="45.80589" lon="5.48148">
        <ele>645.7</ele>
        <time>2019-05-24T19:38:33.332Z</time>
      </trkpt>
      <trkpt lat="45.8059" lon="5.48093">
        <ele>646.7</ele>
        <time>2019-05-24T19:38:34.091Z</time>
      </trkpt>
      <trkpt lat="45.80575" lon="5.48032">
        <ele>650.9</ele>
        <time>2019-05-24T19:38:35.003Z</time>
      </trkpt>
      <trkpt lat="45.80546" lon="5.47982">
        <ele>652.1</ele>
        <time>2019-05-24T19:38:35.895Z</time>
      </trkpt>
      <trkpt lat="45.80535" lon="5.47968">
        <ele>653.1</ele>
        <time>2019-05-24T19:38:36.196Z</time>
      </trkpt>
      <trkpt lat="45.80522" lon="5.47937">
        <ele>656.8</ele>
        <time>2019-05-24T19:38:36.707Z</time>
      </trkpt>
      <trkpt lat="45.80518" lon="5.47924">
        <ele>658.6</ele>
        <time>2019-05-24T19:38:36.907Z</time>
      </trkpt>
      <trkpt lat="45.80511" lon="5.47892">
        <ele>660.3</ele>
        <time>2019-05-24T19:38:37.374Z</time>
      </trkpt>
      <trkpt lat="45.8051" lon="5.47873">
        <ele>660.4</ele>
        <time>2019-05-24T19:38:37.629Z</time>
      </trkpt>
      <trkpt lat="45.80511" lon="5.47855">
        <ele>660.4</ele>
        <time>2019-05-24T19:38:37.890Z</time>
      </trkpt>
      <trkpt lat="45.80505" lon="5.47808">
        <ele>660.4</ele>
        <time>2019-05-24T19:38:38.560Z</time>
      </trkpt>
      <trkpt lat="45.80502" lon="5.47792">
        <ele>660.2</ele>
        <time>2019-05-24T19:38:38.791Z</time>
      </trkpt>
      <trkpt lat="45.8049" lon="5.47754">
        <ele>661.1</ele>
        <time>2019-05-24T19:38:39.375Z</time>
      </trkpt>
      <trkpt lat="45.80483" lon="5.47744">
        <ele>661</ele>
        <time>2019-05-24T19:38:39.577Z</time>
      </trkpt>
      <trkpt lat="45.80472" lon="5.47738">
        <ele>660.5</ele>
        <time>2019-05-24T19:38:39.796Z</time>
      </trkpt>
      <trkpt lat="45.80467" lon="5.47732">
        <ele>660.5</ele>
        <time>2019-05-24T19:38:39.936Z</time>
      </trkpt>
      <trkpt lat="45.80459" lon="5.47719">
        <ele>660.5</ele>
        <time>2019-05-24T19:38:40.176Z</time>
      </trkpt>
      <trkpt lat="45.8045" lon="5.47715">
        <ele>660.2</ele>
        <time>2019-05-24T19:38:40.371Z</time>
      </trkpt>
      <trkpt lat="45.80394" lon="5.47716">
        <ele>660</ele>
        <time>2019-05-24T19:38:41.483Z</time>
      </trkpt>
      <trkpt lat="45.80365" lon="5.47719">
        <ele>661</ele>
        <time>2019-05-24T19:38:42.066Z</time>
      </trkpt>
      <trkpt lat="45.80331" lon="5.47727">
        <ele>665.5</ele>
        <time>2019-05-24T19:38:42.766Z</time>
      </trkpt>
      <trkpt lat="45.80323" lon="5.47732">
        <ele>666.9</ele>
        <time>2019-05-24T19:38:42.938Z</time>
      </trkpt>
      <trkpt lat="45.80229" lon="5.47747">
        <ele>676.2</ele>
        <time>2019-05-24T19:38:44.824Z</time>
      </trkpt>
      <trkpt lat="45.8021" lon="5.47753">
        <ele>676.4</ele>
        <time>2019-05-24T19:38:45.228Z</time>
      </trkpt>
      <trkpt lat="45.80157" lon="5.4776">
        <ele>671.3</ele>
        <time>2019-05-24T19:38:46.279Z</time>
      </trkpt>
      <trkpt lat="45.80141" lon="5.47765">
        <ele>668.5</ele>
        <time>2019-05-24T19:38:46.622Z</time>
      </trkpt>
      <trkpt lat="45.80064" lon="5.4778">
        <ele>652.6</ele>
        <time>2019-05-24T19:38:48.179Z</time>
      </trkpt>
      <trkpt lat="45.80054" lon="5.47784">
        <ele>651.4</ele>
        <time>2019-05-24T19:38:48.378Z</time>
      </trkpt>
      <trkpt lat="45.79958" lon="5.47803">
        <ele>649.8</ele>
        <time>2019-05-24T19:38:50.317Z</time>
      </trkpt>
      <trkpt lat="45.79909" lon="5.47819">
        <ele>651.6</ele>
        <time>2019-05-24T19:38:51.330Z</time>
      </trkpt>
      <trkpt lat="45.79838" lon="5.47833">
        <ele>649.3</ele>
        <time>2019-05-24T19:38:52.770Z</time>
      </trkpt>
      <trkpt lat="45.79811" lon="5.47841">
        <ele>649</ele>
        <time>2019-05-24T19:38:53.314Z</time>
      </trkpt>
      <trkpt lat="45.79758" lon="5.47854">
        <ele>650.7</ele>
        <time>2019-05-24T19:38:54.402Z</time>
      </trkpt>
      <trkpt lat="45.79735" lon="5.47863">
        <ele>649.3</ele>
        <time>2019-05-24T19:38:54.876Z</time>
      </trkpt>
      <trkpt lat="45.79681" lon="5.47882">
        <ele>645.9</ele>
        <time>2019-05-24T19:38:55.996Z</time>
      </trkpt>
      <trkpt lat="45.79549" lon="5.47918">
        <ele>631.8</ele>
        <time>2019-05-24T19:38:58.685Z</time>
      </trkpt>
      <trkpt lat="45.79489" lon="5.47941">
        <ele>630.8</ele>
        <time>2019-05-24T19:38:59.929Z</time>
      </trkpt>
      <trkpt lat="45.79444" lon="5.47953">
        <ele>627</ele>
        <time>2019-05-24T19:39:00.844Z</time>
      </trkpt>
      <trkpt lat="45.79389" lon="5.47975">
        <ele>625.7</ele>
        <time>2019-05-24T19:39:01.986Z</time>
      </trkpt>
      <trkpt lat="45.79321" lon="5.47994">
        <ele>613.5</ele>
        <time>2019-05-24T19:39:03.377Z</time>
      </trkpt>
      <trkpt lat="45.793" lon="5.48006">
        <ele>609.8</ele>
        <time>2019-05-24T19:39:03.832Z</time>
      </trkpt>
      <trkpt lat="45.79286" lon="5.48012">
        <ele>606.5</ele>
        <time>2019-05-24T19:39:04.110Z</time>
      </trkpt>
      <trkpt lat="45.79253" lon="5.48019">
        <ele>600.6</ele>
        <time>2019-05-24T19:39:04.793Z</time>
      </trkpt>
      <trkpt lat="45.79236" lon="5.48025">
        <ele>596.3</ele>
        <time>2019-05-24T19:39:05.144Z</time>
      </trkpt>
      <trkpt lat="45.79219" lon="5.48033">
        <ele>592.5</ele>
        <time>2019-05-24T19:39:05.508Z</time>
      </trkpt>
      <trkpt lat="45.79192" lon="5.48042">
        <ele>588.6</ele>
        <time>2019-05-24T19:39:06.054Z</time>
      </trkpt>
      <trkpt lat="45.79184" lon="5.48041">
        <ele>587.5</ele>
        <time>2019-05-24T19:39:06.221Z</time>
      </trkpt>
      <trkpt lat="45.79178" lon="5.48035">
        <ele>587</ele>
        <time>2019-05-24T19:39:06.360Z</time>
      </trkpt>
      <trkpt lat="45.79164" lon="5.48039">
        <ele>584</ele>
        <time>2019-05-24T19:39:06.654Z</time>
      </trkpt>
      <trkpt lat="45.79139" lon="5.48055">
        <ele>578.9</ele>
        <time>2019-05-24T19:39:07.207Z</time>
      </trkpt>
      <trkpt lat="45.79133" lon="5.48057">
        <ele>576.7</ele>
        <time>2019-05-24T19:39:07.320Z</time>
      </trkpt>
      <trkpt lat="45.79125" lon="5.48052">
        <ele>573.8</ele>
        <time>2019-05-24T19:39:07.491Z</time>
      </trkpt>
      <trkpt lat="45.79116" lon="5.48051">
        <ele>570.7</ele>
        <time>2019-05-24T19:39:07.662Z</time>
      </trkpt>
      <trkpt lat="45.791" lon="5.48054">
        <ele>566.4</ele>
        <time>2019-05-24T19:39:07.999Z</time>
      </trkpt>
      <trkpt lat="45.79091" lon="5.48061">
        <ele>563.2</ele>
        <time>2019-05-24T19:39:08.203Z</time>
      </trkpt>
      <trkpt lat="45.79084" lon="5.48075">
        <ele>559.3</ele>
        <time>2019-05-24T19:39:08.443Z</time>
      </trkpt>
      <trkpt lat="45.79075" lon="5.48083">
        <ele>555.4</ele>
        <time>2019-05-24T19:39:08.649Z</time>
      </trkpt>
      <trkpt lat="45.79062" lon="5.4808">
        <ele>552.4</ele>
        <time>2019-05-24T19:39:08.911Z</time>
      </trkpt>
      <trkpt lat="45.79047" lon="5.48083">
        <ele>546.9</ele>
        <time>2019-05-24T19:39:09.224Z</time>
      </trkpt>
      <trkpt lat="45.79017" lon="5.48087">
        <ele>538.4</ele>
        <time>2019-05-24T19:39:09.827Z</time>
      </trkpt>
      <trkpt lat="45.79003" lon="5.48081">
        <ele>534.6</ele>
        <time>2019-05-24T19:39:10.117Z</time>
      </trkpt>
      <trkpt lat="45.79" lon="5.48082">
        <ele>533.8</ele>
        <time>2019-05-24T19:39:10.173Z</time>
      </trkpt>
      <trkpt lat="45.78989" lon="5.48087">
        <ele>528.2</ele>
        <time>2019-05-24T19:39:10.411Z</time>
      </trkpt>
      <trkpt lat="45.78979" lon="5.48095">
        <ele>523.4</ele>
        <time>2019-05-24T19:39:10.632Z</time>
      </trkpt>
      <trkpt lat="45.78974" lon="5.48096">
        <ele>520.8</ele>
        <time>2019-05-24T19:39:10.741Z</time>
      </trkpt>
      <trkpt lat="45.78959" lon="5.48105">
        <ele>515.2</ele>
        <time>2019-05-24T19:39:11.074Z</time>
      </trkpt>
      <trkpt lat="45.78953" lon="5.48105">
        <ele>513.1</ele>
        <time>2019-05-24T19:39:11.194Z</time>
      </trkpt>
      <trkpt lat="45.78936" lon="5.481">
        <ele>508.1</ele>
        <time>2019-05-24T19:39:11.543Z</time>
      </trkpt>
      <trkpt lat="45.78926" lon="5.48105">
        <ele>505.6</ele>
        <time>2019-05-24T19:39:11.743Z</time>
      </trkpt>
      <trkpt lat="45.78914" lon="5.48125">
        <ele>501.7</ele>
        <time>2019-05-24T19:39:12.107Z</time>
      </trkpt>
      <trkpt lat="45.78906" lon="5.48133">
        <ele>500</ele>
        <time>2019-05-24T19:39:12.308Z</time>
      </trkpt>
      <trkpt lat="45.78897" lon="5.48139">
        <ele>498.1</ele>
        <time>2019-05-24T19:39:12.511Z</time>
      </trkpt>
      <trkpt lat="45.78887" lon="5.48148">
        <ele>496.2</ele>
        <time>2019-05-24T19:39:12.740Z</time>
      </trkpt>
      <trkpt lat="45.78869" lon="5.48153">
        <ele>493.8</ele>
        <time>2019-05-24T19:39:13.112Z</time>
      </trkpt>
      <trkpt lat="45.78858" lon="5.48159">
        <ele>491.8</ele>
        <time>2019-05-24T19:39:13.352Z</time>
      </trkpt>
      <trkpt lat="45.78845" lon="5.48171">
        <ele>489.7</ele>
        <time>2019-05-24T19:39:13.655Z</time>
      </trkpt>
      <trkpt lat="45.78833" lon="5.48185">
        <ele>486.7</ele>
        <time>2019-05-24T19:39:13.960Z</time>
      </trkpt>
      <trkpt lat="45.78822" lon="5.48195">
        <ele>485.7</ele>
        <time>2019-05-24T19:39:14.221Z</time>
      </trkpt>
      <trkpt lat="45.78805" lon="5.48208">
        <ele>484</ele>
        <time>2019-05-24T19:39:14.612Z</time>
      </trkpt>
      <trkpt lat="45.78785" lon="5.48218">
        <ele>481.3</ele>
        <time>2019-05-24T19:39:15.046Z</time>
      </trkpt>
      <trkpt lat="45.78757" lon="5.48238">
        <ele>476.6</ele>
        <time>2019-05-24T19:39:15.657Z</time>
      </trkpt>
      <trkpt lat="45.78756" lon="5.48243">
        <ele>476.1</ele>
        <time>2019-05-24T19:39:15.736Z</time>
      </trkpt>
      <trkpt lat="45.78757" lon="5.48249">
        <ele>475.6</ele>
        <time>2019-05-24T19:39:15.814Z</time>
      </trkpt>
      <trkpt lat="45.78765" lon="5.48258">
        <ele>472.1</ele>
        <time>2019-05-24T19:39:16.020Z</time>
      </trkpt>
      <trkpt lat="45.78785" lon="5.48265">
        <ele>467.5</ele>
        <time>2019-05-24T19:39:16.435Z</time>
      </trkpt>
      <trkpt lat="45.78851" lon="5.48267">
        <ele>458.6</ele>
        <time>2019-05-24T19:39:17.756Z</time>
      </trkpt>
      <trkpt lat="45.78889" lon="5.48286">
        <ele>446.9</ele>
        <time>2019-05-24T19:39:18.570Z</time>
      </trkpt>
      <trkpt lat="45.78907" lon="5.48289">
        <ele>444.6</ele>
        <time>2019-05-24T19:39:18.921Z</time>
      </trkpt>
      <trkpt lat="45.78927" lon="5.48288">
        <ele>443.1</ele>
        <time>2019-05-24T19:39:19.324Z</time>
      </trkpt>
      <trkpt lat="45.78949" lon="5.48291">
        <ele>440</ele>
        <time>2019-05-24T19:39:19.761Z</time>
      </trkpt>
      <trkpt lat="45.78965" lon="5.48296">
        <ele>437.3</ele>
        <time>2019-05-24T19:39:20.087Z</time>
      </trkpt>
      <trkpt lat="45.78982" lon="5.48304">
        <ele>433.5</ele>
        <time>2019-05-24T19:39:20.463Z</time>
      </trkpt>
      <trkpt lat="45.79001" lon="5.48319">
        <ele>428.2</ele>
        <time>2019-05-24T19:39:20.889Z</time>
      </trkpt>
      <trkpt lat="45.79003" lon="5.48337">
        <ele>422.4</ele>
        <time>2019-05-24T19:39:21.141Z</time>
      </trkpt>
      <trkpt lat="45.79008" lon="5.48342">
        <ele>421.3</ele>
        <time>2019-05-24T19:39:21.267Z</time>
      </trkpt>
      <trkpt lat="45.79013" lon="5.48343">
        <ele>421.2</ele>
        <time>2019-05-24T19:39:21.373Z</time>
      </trkpt>
      <trkpt lat="45.79017" lon="5.48347">
        <ele>420.2</ele>
        <time>2019-05-24T19:39:21.462Z</time>
      </trkpt>
      <trkpt lat="45.79017" lon="5.4835">
        <ele>419.6</ele>
        <time>2019-05-24T19:39:21.508Z</time>
      </trkpt>
      <trkpt lat="45.79005" lon="5.48363">
        <ele>417.7</ele>
        <time>2019-05-24T19:39:21.808Z</time>
      </trkpt>
      <trkpt lat="45.78993" lon="5.48367">
        <ele>417.7</ele>
        <time>2019-05-24T19:39:22.040Z</time>
      </trkpt>
      <trkpt lat="45.78986" lon="5.48377">
        <ele>417.1</ele>
        <time>2019-05-24T19:39:22.238Z</time>
      </trkpt>
      <trkpt lat="45.78989" lon="5.48393">
        <ele>415.8</ele>
        <time>2019-05-24T19:39:22.458Z</time>
      </trkpt>
      <trkpt lat="45.79085" lon="5.48564">
        <ele>407.7</ele>
        <time>2019-05-24T19:39:25.541Z</time>
      </trkpt>
      <trkpt lat="45.79087" lon="5.48579">
        <ele>407</ele>
        <time>2019-05-24T19:39:25.753Z</time>
      </trkpt>
      <trkpt lat="45.79081" lon="5.48587">
        <ele>406</ele>
        <time>2019-05-24T19:39:25.932Z</time>
      </trkpt>
      <trkpt lat="45.79071" lon="5.48588">
        <ele>405.4</ele>
        <time>2019-05-24T19:39:26.131Z</time>
      </trkpt>
      <trkpt lat="45.79063" lon="5.48587">
        <ele>405.4</ele>
        <time>2019-05-24T19:39:26.294Z</time>
      </trkpt>
      <trkpt lat="45.79034" lon="5.4858">
        <ele>401</ele>
        <time>2019-05-24T19:39:26.883Z</time>
      </trkpt>
      <trkpt lat="45.79018" lon="5.48582">
        <ele>399.4</ele>
        <time>2019-05-24T19:39:27.188Z</time>
      </trkpt>
      <trkpt lat="45.78994" lon="5.48589">
        <ele>397.4</ele>
        <time>2019-05-24T19:39:27.684Z</time>
      </trkpt>
      <trkpt lat="45.78958" lon="5.4859">
        <ele>395.3</ele>
        <time>2019-05-24T19:39:28.406Z</time>
      </trkpt>
      <trkpt lat="45.78913" lon="5.48602">
        <ele>395.5</ele>
        <time>2019-05-24T19:39:29.326Z</time>
      </trkpt>
      <trkpt lat="45.789" lon="5.48597">
        <ele>394.4</ele>
        <time>2019-05-24T19:39:29.586Z</time>
      </trkpt>
      <trkpt lat="45.78884" lon="5.48572">
        <ele>394.3</ele>
        <time>2019-05-24T19:39:30.055Z</time>
      </trkpt>
      <trkpt lat="45.78874" lon="5.48561">
        <ele>393.1</ele>
        <time>2019-05-24T19:39:30.321Z</time>
      </trkpt>
      <trkpt lat="45.78846" lon="5.48549">
        <ele>389.3</ele>
        <time>2019-05-24T19:39:30.905Z</time>
      </trkpt>
      <trkpt lat="45.78794" lon="5.48517">
        <ele>383.7</ele>
        <time>2019-05-24T19:39:32.031Z</time>
      </trkpt>
      <trkpt lat="45.78777" lon="5.48511">
        <ele>383.1</ele>
        <time>2019-05-24T19:39:32.378Z</time>
      </trkpt>
      <trkpt lat="45.78753" lon="5.48507">
        <ele>381.1</ele>
        <time>2019-05-24T19:39:32.871Z</time>
      </trkpt>
      <trkpt lat="45.78719" lon="5.48496">
        <ele>378.4</ele>
        <time>2019-05-24T19:39:33.567Z</time>
      </trkpt>
      <trkpt lat="45.78656" lon="5.48471">
        <ele>374.8</ele>
        <time>2019-05-24T19:39:34.872Z</time>
      </trkpt>
      <trkpt lat="45.7863" lon="5.48463">
        <ele>372.3</ele>
        <time>2019-05-24T19:39:35.419Z</time>
      </trkpt>
      <trkpt lat="45.78618" lon="5.48457">
        <ele>371.9</ele>
        <time>2019-05-24T19:39:35.674Z</time>
      </trkpt>
      <trkpt lat="45.78594" lon="5.48439">
        <ele>371.7</ele>
        <time>2019-05-24T19:39:36.207Z</time>
      </trkpt>
      <trkpt lat="45.78566" lon="5.48421">
        <ele>370.5</ele>
        <time>2019-05-24T19:39:36.830Z</time>
      </trkpt>
      <trkpt lat="45.78533" lon="5.48393">
        <ele>368.4</ele>
        <time>2019-05-24T19:39:37.593Z</time>
      </trkpt>
      <trkpt lat="45.78517" lon="5.48376">
        <ele>367.8</ele>
        <time>2019-05-24T19:39:37.993Z</time>
      </trkpt>
      <trkpt lat="45.7851" lon="5.48366">
        <ele>367.7</ele>
        <time>2019-05-24T19:39:38.194Z</time>
      </trkpt>
      <trkpt lat="45.785" lon="5.48348">
        <ele>367</ele>
        <time>2019-05-24T19:39:38.508Z</time>
      </trkpt>
      <trkpt lat="45.78496" lon="5.48322">
        <ele>366.6</ele>
        <time>2019-05-24T19:39:38.881Z</time>
      </trkpt>
      <trkpt lat="45.78514" lon="5.48222">
        <ele>367.3</ele>
        <time>2019-05-24T19:39:40.322Z</time>
      </trkpt>
      <trkpt lat="45.78516" lon="5.48159">
        <ele>367</ele>
        <time>2019-05-24T19:39:41.200Z</time>
      </trkpt>
      <trkpt lat="45.78519" lon="5.48143">
        <ele>367</ele>
        <time>2019-05-24T19:39:41.437Z</time>
      </trkpt>
      <trkpt lat="45.78535" lon="5.48098">
        <ele>362.5</ele>
        <time>2019-05-24T19:39:42.144Z</time>
      </trkpt>
      <trkpt lat="45.78549" lon="5.48083">
        <ele>360.3</ele>
        <time>2019-05-24T19:39:42.489Z</time>
      </trkpt>
      <trkpt lat="45.78576" lon="5.48057">
        <ele>356.8</ele>
        <time>2019-05-24T19:39:43.146Z</time>
      </trkpt>
      <trkpt lat="45.78581" lon="5.48048">
        <ele>355.8</ele>
        <time>2019-05-24T19:39:43.304Z</time>
      </trkpt>
      <trkpt lat="45.78583" lon="5.48029">
        <ele>352.1</ele>
        <time>2019-05-24T19:39:43.569Z</time>
      </trkpt>
      <trkpt lat="45.78576" lon="5.47971">
        <ele>340.4</ele>
        <time>2019-05-24T19:39:44.400Z</time>
      </trkpt>
      <trkpt lat="45.78579" lon="5.47938">
        <ele>334.1</ele>
        <time>2019-05-24T19:39:44.862Z</time>
      </trkpt>
      <trkpt lat="45.78583" lon="5.47922">
        <ele>332.6</ele>
        <time>2019-05-24T19:39:45.098Z</time>
      </trkpt>
      <trkpt lat="45.78603" lon="5.47874">
        <ele>331.7</ele>
        <time>2019-05-24T19:39:45.881Z</time>
      </trkpt>
      <trkpt lat="45.78612" lon="5.47845">
        <ele>327.5</ele>
        <time>2019-05-24T19:39:46.327Z</time>
      </trkpt>
      <trkpt lat="45.7861" lon="5.47842">
        <ele>326</ele>
        <time>2019-05-24T19:39:46.384Z</time>
      </trkpt>
      <trkpt lat="45.78595" lon="5.47852">
        <ele>323.9</ele>
        <time>2019-05-24T19:39:46.709Z</time>
      </trkpt>
      <trkpt lat="45.78589" lon="5.47854">
        <ele>322.6</ele>
        <time>2019-05-24T19:39:46.829Z</time>
      </trkpt>
      <trkpt lat="45.78577" lon="5.47856">
        <ele>318.6</ele>
        <time>2019-05-24T19:39:47.078Z</time>
      </trkpt>
      <trkpt lat="45.78565" lon="5.4786">
        <ele>315.4</ele>
        <time>2019-05-24T19:39:47.321Z</time>
      </trkpt>
      <trkpt lat="45.7856" lon="5.47861">
        <ele>313.7</ele>
        <time>2019-05-24T19:39:47.415Z</time>
      </trkpt>
      <trkpt lat="45.78559" lon="5.47859">
        <ele>313</ele>
        <time>2019-05-24T19:39:47.438Z</time>
      </trkpt>
      <trkpt lat="45.78603" lon="5.47807">
        <ele>314</ele>
        <time>2019-05-24T19:39:48.586Z</time>
      </trkpt>
      <trkpt lat="45.78623" lon="5.47771">
        <ele>311.4</ele>
        <time>2019-05-24T19:39:49.230Z</time>
      </trkpt>
      <trkpt lat="45.78667" lon="5.47717">
        <ele>311.1</ele>
        <time>2019-05-24T19:39:50.374Z</time>
      </trkpt>
      <trkpt lat="45.78719" lon="5.47639">
        <ele>308.4</ele>
        <time>2019-05-24T19:39:51.892Z</time>
      </trkpt>
      <trkpt lat="45.78734" lon="5.47623">
        <ele>308.6</ele>
        <time>2019-05-24T19:39:52.261Z</time>
      </trkpt>
      <trkpt lat="45.78734" lon="5.47619">
        <ele>308</ele>
        <time>2019-05-24T19:39:52.322Z</time>
      </trkpt>
      <trkpt lat="45.78731" lon="5.47611">
        <ele>306.6</ele>
        <time>2019-05-24T19:39:52.447Z</time>
      </trkpt>
      <trkpt lat="45.78719" lon="5.47612">
        <ele>305.3</ele>
        <time>2019-05-24T19:39:52.692Z</time>
      </trkpt>
      <trkpt lat="45.78657" lon="5.47643">
        <ele>297.2</ele>
        <time>2019-05-24T19:39:53.992Z</time>
      </trkpt>
      <trkpt lat="45.78642" lon="5.47654">
        <ele>295.8</ele>
        <time>2019-05-24T19:39:54.332Z</time>
      </trkpt>
      <trkpt lat="45.7862" lon="5.47682">
        <ele>290.4</ele>
        <time>2019-05-24T19:39:54.935Z</time>
      </trkpt>
      <trkpt lat="45.78607" lon="5.47692">
        <ele>287.3</ele>
        <time>2019-05-24T19:39:55.218Z</time>
      </trkpt>
      <trkpt lat="45.78586" lon="5.47704">
        <ele>282.5</ele>
        <time>2019-05-24T19:39:55.674Z</time>
      </trkpt>
      <trkpt lat="45.78565" lon="5.47711">
        <ele>278.1</ele>
        <time>2019-05-24T19:39:56.112Z</time>
      </trkpt>
      <trkpt lat="45.78555" lon="5.47709">
        <ele>275.4</ele>
        <time>2019-05-24T19:39:56.315Z</time>
      </trkpt>
      <trkpt lat="45.78544" lon="5.477">
        <ele>272.9</ele>
        <time>2019-05-24T19:39:56.561Z</time>
      </trkpt>
      <trkpt lat="45.78521" lon="5.47665">
        <ele>265.3</ele>
        <time>2019-05-24T19:39:57.234Z</time>
      </trkpt>
      <trkpt lat="45.78506" lon="5.47636">
        <ele>262</ele>
        <time>2019-05-24T19:39:57.741Z</time>
      </trkpt>
      <trkpt lat="45.78505" lon="5.47629">
        <ele>261.5</ele>
        <time>2019-05-24T19:39:57.839Z</time>
      </trkpt>
      <trkpt lat="45.78557" lon="5.47562">
        <ele>259.3</ele>
        <time>2019-05-24T19:39:59.246Z</time>
      </trkpt>
      <trkpt lat="45.78589" lon="5.47526">
        <ele>258.1</ele>
        <time>2019-05-24T19:40:00.057Z</time>
      </trkpt>
      <trkpt lat="45.786" lon="5.47515">
        <ele>258.1</ele>
        <time>2019-05-24T19:40:00.326Z</time>
      </trkpt>
      <trkpt lat="45.78625" lon="5.47482">
        <ele>257.5</ele>
        <time>2019-05-24T19:40:01.009Z</time>
      </trkpt>
      <trkpt lat="45.78636" lon="5.47462">
        <ele>257.2</ele>
        <time>2019-05-24T19:40:01.367Z</time>
      </trkpt>
      <trkpt lat="45.78682" lon="5.47403">
        <ele>257.9</ele>
        <time>2019-05-24T19:40:02.604Z</time>
      </trkpt>
      <trkpt lat="45.78684" lon="5.47403">
        <ele>258.1</ele>
        <time>2019-05-24T19:40:02.632Z</time>
      </trkpt>
      <trkpt lat="45.78692" lon="5.47414">
        <ele>259.5</ele>
        <time>2019-05-24T19:40:02.855Z</time>
      </trkpt>
      <trkpt lat="45.78699" lon="5.4742">
        <ele>261.5</ele>
        <time>2019-05-24T19:40:03.026Z</time>
      </trkpt>
      <trkpt lat="45.7871" lon="5.47419">
        <ele>263.9</ele>
        <time>2019-05-24T19:40:03.253Z</time>
      </trkpt>
      <trkpt lat="45.78725" lon="5.47408">
        <ele>265.2</ele>
        <time>2019-05-24T19:40:03.582Z</time>
      </trkpt>
      <trkpt lat="45.78755" lon="5.47373">
        <ele>267.3</ele>
        <time>2019-05-24T19:40:04.361Z</time>
      </trkpt>
      <trkpt lat="45.78841" lon="5.47306">
        <ele>274.5</ele>
        <time>2019-05-24T19:40:06.321Z</time>
      </trkpt>
      <trkpt lat="45.78863" lon="5.47271">
        <ele>272.1</ele>
        <time>2019-05-24T19:40:06.983Z</time>
      </trkpt>
      <trkpt lat="45.78878" lon="5.47243">
        <ele>270</ele>
        <time>2019-05-24T19:40:07.468Z</time>
      </trkpt>
      <trkpt lat="45.78883" lon="5.47226">
        <ele>266.6</ele>
        <time>2019-05-24T19:40:07.731Z</time>
      </trkpt>
      <trkpt lat="45.78888" lon="5.47194">
        <ele>262.8</ele>
        <time>2019-05-24T19:40:08.186Z</time>
      </trkpt>
      <trkpt lat="45.78896" lon="5.47158">
        <ele>258.9</ele>
        <time>2019-05-24T19:40:08.717Z</time>
      </trkpt>
      <trkpt lat="45.78921" lon="5.47094">
        <ele>253.6</ele>
        <time>2019-05-24T19:40:09.742Z</time>
      </trkpt>
      <trkpt lat="45.78932" lon="5.47069">
        <ele>252.8</ele>
        <time>2019-05-24T19:40:10.151Z</time>
      </trkpt>
      <trkpt lat="45.78959" lon="5.4702">
        <ele>249.5</ele>
        <time>2019-05-24T19:40:11.025Z</time>
      </trkpt>
      <trkpt lat="45.78962" lon="5.4701">
        <ele>249</ele>
        <time>2019-05-24T19:40:11.180Z</time>
      </trkpt>
      <trkpt lat="45.78972" lon="5.46954">
        <ele>245.6</ele>
        <time>2019-05-24T19:40:11.987Z</time>
      </trkpt>
      <trkpt lat="45.78975" lon="5.46944">
        <ele>245.2</ele>
        <time>2019-05-24T19:40:12.135Z</time>
      </trkpt>
      <trkpt lat="45.79029" lon="5.46854">
        <ele>240.4</ele>
        <time>2019-05-24T19:40:13.794Z</time>
      </trkpt>
      <trkpt lat="45.79042" lon="5.4683">
        <ele>239.3</ele>
        <time>2019-05-24T19:40:14.225Z</time>
      </trkpt>
      <trkpt lat="45.79073" lon="5.46766">
        <ele>237.3</ele>
        <time>2019-05-24T19:40:15.313Z</time>
      </trkpt>
      <trkpt lat="45.791" lon="5.46698">
        <ele>235.7</ele>
        <time>2019-05-24T19:40:16.405Z</time>
      </trkpt>
      <trkpt lat="45.7911" lon="5.46677">
        <ele>235.9</ele>
        <time>2019-05-24T19:40:16.765Z</time>
      </trkpt>
      <trkpt lat="45.79133" lon="5.46642">
        <ele>235.1</ele>
        <time>2019-05-24T19:40:17.435Z</time>
      </trkpt>
      <trkpt lat="45.7918" lon="5.46586">
        <ele>231.7</ele>
        <time>2019-05-24T19:40:18.659Z</time>
      </trkpt>
      <trkpt lat="45.79262" lon="5.46493">
        <ele>228.5</ele>
        <time>2019-05-24T19:40:20.748Z</time>
      </trkpt>
      <trkpt lat="45.79341" lon="5.46409">
        <ele>226.9</ele>
        <time>2019-05-24T19:40:22.721Z</time>
      </trkpt>
      <trkpt lat="45.79379" lon="5.46363">
        <ele>226</ele>
        <time>2019-05-24T19:40:23.720Z</time>
      </trkpt>
      <trkpt lat="45.79481" lon="5.46214">
        <ele>224.2</ele>
        <time>2019-05-24T19:40:26.638Z</time>
      </trkpt>
      <trkpt lat="45.7949" lon="5.46188">
        <ele>223.8</ele>
        <time>2019-05-24T19:40:27.044Z</time>
      </trkpt>
      <trkpt lat="45.79489" lon="5.46176">
        <ele>223.2</ele>
        <time>2019-05-24T19:40:27.220Z</time>
      </trkpt>
      <trkpt lat="45.79482" lon="5.46172">
        <ele>222.4</ele>
        <time>2019-05-24T19:40:27.369Z</time>
      </trkpt>
      <trkpt lat="45.79458" lon="5.46175">
        <ele>223.6</ele>
        <time>2019-05-24T19:40:27.854Z</time>
      </trkpt>
      <trkpt lat="45.79447" lon="5.46164">
        <ele>224.6</ele>
        <time>2019-05-24T19:40:28.121Z</time>
      </trkpt>
      <trkpt lat="45.79389" lon="5.46034">
        <ele>224.2</ele>
        <time>2019-05-24T19:40:30.271Z</time>
      </trkpt>
      <trkpt lat="45.79367" lon="5.45997">
        <ele>222.5</ele>
        <time>2019-05-24T19:40:30.952Z</time>
      </trkpt>
      <trkpt lat="45.79301" lon="5.45902">
        <ele>221.6</ele>
        <time>2019-05-24T19:40:32.822Z</time>
      </trkpt>
      <trkpt lat="45.79288" lon="5.45885">
        <ele>221.5</ele>
        <time>2019-05-24T19:40:33.186Z</time>
      </trkpt>
      <trkpt lat="45.79268" lon="5.45849">
        <ele>220.4</ele>
        <time>2019-05-24T19:40:33.821Z</time>
      </trkpt>
      <trkpt lat="45.79261" lon="5.45831">
        <ele>220.1</ele>
        <time>2019-05-24T19:40:34.105Z</time>
      </trkpt>
      <trkpt lat="45.79252" lon="5.45784">
        <ele>219.9</ele>
        <time>2019-05-24T19:40:34.797Z</time>
      </trkpt>
      <trkpt lat="45.79246" lon="5.45766">
        <ele>219.5</ele>
        <time>2019-05-24T19:40:35.078Z</time>
      </trkpt>
      <trkpt lat="45.79219" lon="5.45706">
        <ele>218.4</ele>
        <time>2019-05-24T19:40:36.063Z</time>
      </trkpt>
      <trkpt lat="45.79182" lon="5.4561">
        <ele>217.6</ele>
        <time>2019-05-24T19:40:37.600Z</time>
      </trkpt>
      <trkpt lat="45.79151" lon="5.45567">
        <ele>217.2</ele>
        <time>2019-05-24T19:40:38.463Z</time>
      </trkpt>
      <trkpt lat="45.79148" lon="5.4556">
        <ele>217</ele>
        <time>2019-05-24T19:40:38.582Z</time>
      </trkpt>
      <trkpt lat="45.79088" lon="5.45394">
        <ele>214.3</ele>
        <time>2019-05-24T19:40:41.184Z</time>
      </trkpt>
      <trkpt lat="45.79003" lon="5.45211">
        <ele>212</ele>
        <time>2019-05-24T19:40:44.262Z</time>
      </trkpt>
      <trkpt lat="45.79002" lon="5.45206">
        <ele>212</ele>
        <time>2019-05-24T19:40:44.336Z</time>
      </trkpt>
      <trkpt lat="45.79009" lon="5.45197">
        <ele>212.3</ele>
        <time>2019-05-24T19:40:44.523Z</time>
      </trkpt>
      <trkpt lat="45.79035" lon="5.45181">
        <ele>212.4</ele>
        <time>2019-05-24T19:40:45.093Z</time>
      </trkpt>
      <trkpt lat="45.79125" lon="5.45131">
        <ele>212</ele>
        <time>2019-05-24T19:40:47.020Z</time>
      </trkpt>
      <trkpt lat="45.79163" lon="5.45118">
        <ele>212</ele>
        <time>2019-05-24T19:40:47.801Z</time>
      </trkpt>
      <trkpt lat="45.7919" lon="5.45105">
        <ele>210.9</ele>
        <time>2019-05-24T19:40:48.386Z</time>
      </trkpt>
      <trkpt lat="45.79204" lon="5.45097">
        <ele>210.2</ele>
        <time>2019-05-24T19:40:48.670Z</time>
      </trkpt>
      <trkpt lat="45.79213" lon="5.45085">
        <ele>209.4</ele>
        <time>2019-05-24T19:40:48.936Z</time>
      </trkpt>
      <trkpt lat="45.79216" lon="5.45075">
        <ele>208.8</ele>
        <time>2019-05-24T19:40:49.088Z</time>
      </trkpt>
      <trkpt lat="45.79216" lon="5.45071">
        <ele>208.7</ele>
        <time>2019-05-24T19:40:49.134Z</time>
      </trkpt>
      <trkpt lat="45.79202" lon="5.4506">
        <ele>208.3</ele>
        <time>2019-05-24T19:40:49.453Z</time>
      </trkpt>
      <trkpt lat="45.79194" lon="5.45046">
        <ele>208</ele>
        <time>2019-05-24T19:40:49.709Z</time>
      </trkpt>
      <trkpt lat="45.79187" lon="5.45013">
        <ele>208.3</ele>
        <time>2019-05-24T19:40:50.191Z</time>
      </trkpt>
      <trkpt lat="45.79177" lon="5.44984">
        <ele>208.3</ele>
        <time>2019-05-24T19:40:50.649Z</time>
      </trkpt>
      <trkpt lat="45.79177" lon="5.44943">
        <ele>207.8</ele>
        <time>2019-05-24T19:40:51.212Z</time>
      </trkpt>
      <trkpt lat="45.7917" lon="5.44912">
        <ele>207.2</ele>
        <time>2019-05-24T19:40:51.671Z</time>
      </trkpt>
      <trkpt lat="45.79165" lon="5.44872">
        <ele>207</ele>
        <time>2019-05-24T19:40:52.243Z</time>
      </trkpt>
      <trkpt lat="45.79149" lon="5.44828">
        <ele>206.8</ele>
        <time>2019-05-24T19:40:52.944Z</time>
      </trkpt>
      <trkpt lat="45.79146" lon="5.44825">
        <ele>206.7</ele>
        <time>2019-05-24T19:40:53.010Z</time>
      </trkpt>
      <trkpt lat="45.79139" lon="5.44824">
        <ele>206.6</ele>
        <time>2019-05-24T19:40:53.142Z</time>
      </trkpt>
      <trkpt lat="45.79128" lon="5.44808">
        <ele>206.4</ele>
        <time>2019-05-24T19:40:53.452Z</time>
      </trkpt>
      <trkpt lat="45.79123" lon="5.44797">
        <ele>206.4</ele>
        <time>2019-05-24T19:40:53.634Z</time>
      </trkpt>
      <trkpt lat="45.79115" lon="5.44775">
        <ele>205.9</ele>
        <time>2019-05-24T19:40:53.993Z</time>
      </trkpt>
      <trkpt lat="45.79106" lon="5.44736">
        <ele>205.2</ele>
        <time>2019-05-24T19:40:54.559Z</time>
      </trkpt>
      <trkpt lat="45.79088" lon="5.44634">
        <ele>205</ele>
        <time>2019-05-24T19:40:56.037Z</time>
      </trkpt>
      <trkpt lat="45.79088" lon="5.44535">
        <ele>204.1</ele>
        <time>2019-05-24T19:40:57.419Z</time>
      </trkpt>
      <trkpt lat="45.79085" lon="5.44529">
        <ele>204</ele>
        <time>2019-05-24T19:40:57.521Z</time>
      </trkpt>
      <trkpt lat="45.79085" lon="5.44516">
        <ele>204.3</ele>
        <time>2019-05-24T19:40:57.691Z</time>
      </trkpt>
      <trkpt lat="45.79089" lon="5.44495">
        <ele>204.6</ele>
        <time>2019-05-24T19:40:58.006Z</time>
      </trkpt>
      <trkpt lat="45.79087" lon="5.44477">
        <ele>204.7</ele>
        <time>2019-05-24T19:40:58.259Z</time>
      </trkpt>
      <trkpt lat="45.79079" lon="5.44466">
        <ele>204.1</ele>
        <time>2019-05-24T19:40:58.491Z</time>
      </trkpt>
      <trkpt lat="45.79067" lon="5.44473">
        <ele>203.8</ele>
        <time>2019-05-24T19:40:58.752Z</time>
      </trkpt>
      <trkpt lat="45.79039" lon="5.44495">
        <ele>203.8</ele>
        <time>2019-05-24T19:40:59.378Z</time>
      </trkpt>
      <trkpt lat="45.7897" lon="5.4454">
        <ele>203.4</ele>
        <time>2019-05-24T19:41:00.911Z</time>
      </trkpt>
      <trkpt lat="45.78892" lon="5.44582">
        <ele>203.8</ele>
        <time>2019-05-24T19:41:02.570Z</time>
      </trkpt>
      <trkpt lat="45.78854" lon="5.44604">
        <ele>203</ele>
        <time>2019-05-24T19:41:03.387Z</time>
      </trkpt>
      <trkpt lat="45.78804" lon="5.44637">
        <ele>203.7</ele>
        <time>2019-05-24T19:41:04.501Z</time>
      </trkpt>
      <trkpt lat="45.78761" lon="5.44673">
        <ele>204.2</ele>
        <time>2019-05-24T19:41:05.496Z</time>
      </trkpt>
      <trkpt lat="45.7872" lon="5.44716">
        <ele>204.4</ele>
        <time>2019-05-24T19:41:06.518Z</time>
      </trkpt>
      <trkpt lat="45.78683" lon="5.44762">
        <ele>204.5</ele>
        <time>2019-05-24T19:41:07.496Z</time>
      </trkpt>
      <trkpt lat="45.78653" lon="5.44805">
        <ele>204</ele>
        <time>2019-05-24T19:41:08.357Z</time>
      </trkpt>
      <trkpt lat="45.78534" lon="5.44985">
        <ele>204.2</ele>
        <time>2019-05-24T19:41:11.815Z</time>
      </trkpt>
      <trkpt lat="45.78507" lon="5.45032">
        <ele>204.4</ele>
        <time>2019-05-24T19:41:12.658Z</time>
      </trkpt>
      <trkpt lat="45.78488" lon="5.45076">
        <ele>203.8</ele>
        <time>2019-05-24T19:41:13.389Z</time>
      </trkpt>
      <trkpt lat="45.78475" lon="5.45112">
        <ele>205</ele>
        <time>2019-05-24T19:41:13.951Z</time>
      </trkpt>
      <trkpt lat="45.78474" lon="5.45117">
        <ele>205</ele>
        <time>2019-05-24T19:41:14.030Z</time>
      </trkpt>
      <trkpt lat="45.78477" lon="5.45137">
        <ele>205</ele>
        <time>2019-05-24T19:41:14.312Z</time>
      </trkpt>
      <trkpt lat="45.78489" lon="5.45155">
        <ele>205</ele>
        <time>2019-05-24T19:41:14.651Z</time>
      </trkpt>
      <trkpt lat="45.78513" lon="5.45181">
        <ele>205.5</ele>
        <time>2019-05-24T19:41:15.258Z</time>
      </trkpt>
      <trkpt lat="45.78528" lon="5.45202">
        <ele>206.3</ele>
        <time>2019-05-24T19:41:15.680Z</time>
      </trkpt>
      <trkpt lat="45.78531" lon="5.45221">
        <ele>206.8</ele>
        <time>2019-05-24T19:41:15.947Z</time>
      </trkpt>
      <trkpt lat="45.78527" lon="5.45238">
        <ele>206.5</ele>
        <time>2019-05-24T19:41:16.199Z</time>
      </trkpt>
      <trkpt lat="45.78525" lon="5.45246">
        <ele>206.3</ele>
        <time>2019-05-24T19:41:16.327Z</time>
      </trkpt>
      <trkpt lat="45.78514" lon="5.45259">
        <ele>207</ele>
        <time>2019-05-24T19:41:16.600Z</time>
      </trkpt>
      <trkpt lat="45.78497" lon="5.45249">
        <ele>207.9</ele>
        <time>2019-05-24T19:41:16.967Z</time>
      </trkpt>
      <trkpt lat="45.78196" lon="5.45038">
        <ele>211.6</ele>
        <time>2019-05-24T19:41:23.686Z</time>
      </trkpt>
      <trkpt lat="45.78179" lon="5.45033">
        <ele>212.3</ele>
        <time>2019-05-24T19:41:24.042Z</time>
      </trkpt>
      <trkpt lat="45.7817" lon="5.45043">
        <ele>211.8</ele>
        <time>2019-05-24T19:41:24.258Z</time>
      </trkpt>
      <trkpt lat="45.78159" lon="5.45072">
        <ele>209.7</ele>
        <time>2019-05-24T19:41:24.726Z</time>
      </trkpt>
      <trkpt lat="45.78154" lon="5.45077">
        <ele>209.3</ele>
        <time>2019-05-24T19:41:24.847Z</time>
      </trkpt>
      <trkpt lat="45.78132" lon="5.45088">
        <ele>209.1</ele>
        <time>2019-05-24T19:41:25.309Z</time>
      </trkpt>
      <trkpt lat="45.78092" lon="5.45103">
        <ele>209.7</ele>
        <time>2019-05-24T19:41:26.137Z</time>
      </trkpt>
      <trkpt lat="45.78057" lon="5.45108">
        <ele>209.4</ele>
        <time>2019-05-24T19:41:26.848Z</time>
      </trkpt>
      <trkpt lat="45.78012" lon="5.45108">
        <ele>209.8</ele>
        <time>2019-05-24T19:41:27.752Z</time>
      </trkpt>
      <trkpt lat="45.78" lon="5.45118">
        <ele>209.8</ele>
        <time>2019-05-24T19:41:28.029Z</time>
      </trkpt>
      <trkpt lat="45.77994" lon="5.45142">
        <ele>208.9</ele>
        <time>2019-05-24T19:41:28.388Z</time>
      </trkpt>
      <trkpt lat="45.78001" lon="5.4519">
        <ele>210</ele>
        <time>2019-05-24T19:41:29.076Z</time>
      </trkpt>
      <trkpt lat="45.77996" lon="5.45208">
        <ele>210.3</ele>
        <time>2019-05-24T19:41:29.345Z</time>
      </trkpt>
      <trkpt lat="45.77982" lon="5.45224">
        <ele>211.1</ele>
        <time>2019-05-24T19:41:29.696Z</time>
      </trkpt>
      <trkpt lat="45.77939" lon="5.45259">
        <ele>210.6</ele>
        <time>2019-05-24T19:41:30.687Z</time>
      </trkpt>
      <trkpt lat="45.77846" lon="5.45311">
        <ele>210.4</ele>
        <time>2019-05-24T19:41:32.696Z</time>
      </trkpt>
      <trkpt lat="45.77798" lon="5.45332">
        <ele>211.6</ele>
        <time>2019-05-24T19:41:33.690Z</time>
      </trkpt>
      <trkpt lat="45.77781" lon="5.45338">
        <ele>212.3</ele>
        <time>2019-05-24T19:41:34.043Z</time>
      </trkpt>
      <trkpt lat="45.77747" lon="5.45343">
        <ele>212.3</ele>
        <time>2019-05-24T19:41:34.728Z</time>
      </trkpt>
      <trkpt lat="45.77707" lon="5.45344">
        <ele>212.2</ele>
        <time>2019-05-24T19:41:35.538Z</time>
      </trkpt>
      <trkpt lat="45.77688" lon="5.45336">
        <ele>212.4</ele>
        <time>2019-05-24T19:41:35.927Z</time>
      </trkpt>
      <trkpt lat="45.77675" lon="5.45314">
        <ele>213</ele>
        <time>2019-05-24T19:41:36.341Z</time>
      </trkpt>
      <trkpt lat="45.77665" lon="5.45261">
        <ele>214.4</ele>
        <time>2019-05-24T19:41:37.101Z</time>
      </trkpt>
      <trkpt lat="45.77672" lon="5.45241">
        <ele>215.3</ele>
        <time>2019-05-24T19:41:37.419Z</time>
      </trkpt>
      <trkpt lat="45.7769" lon="5.45207">
        <ele>216.8</ele>
        <time>2019-05-24T19:41:38.018Z</time>
      </trkpt>
      <trkpt lat="45.77738" lon="5.45128">
        <ele>218.2</ele>
        <time>2019-05-24T19:41:39.477Z</time>
      </trkpt>
      <trkpt lat="45.77742" lon="5.45107">
        <ele>218.2</ele>
        <time>2019-05-24T19:41:39.792Z</time>
      </trkpt>
      <trkpt lat="45.77737" lon="5.45094">
        <ele>218.2</ele>
        <time>2019-05-24T19:41:39.996Z</time>
      </trkpt>
      <trkpt lat="45.77734" lon="5.45092">
        <ele>218.2</ele>
        <time>2019-05-24T19:41:40.068Z</time>
      </trkpt>
      <trkpt lat="45.77721" lon="5.45094">
        <ele>218.4</ele>
        <time>2019-05-24T19:41:40.317Z</time>
      </trkpt>
      <trkpt lat="45.77677" lon="5.45108">
        <ele>217</ele>
        <time>2019-05-24T19:41:41.227Z</time>
      </trkpt>
      <trkpt lat="45.77628" lon="5.45115">
        <ele>215.4</ele>
        <time>2019-05-24T19:41:42.223Z</time>
      </trkpt>
      <trkpt lat="45.77623" lon="5.45114">
        <ele>215.3</ele>
        <time>2019-05-24T19:41:42.324Z</time>
      </trkpt>
      <trkpt lat="45.77615" lon="5.45108">
        <ele>214.9</ele>
        <time>2019-05-24T19:41:42.502Z</time>
      </trkpt>
      <trkpt lat="45.77605" lon="5.45097">
        <ele>213.7</ele>
        <time>2019-05-24T19:41:42.745Z</time>
      </trkpt>
      <trkpt lat="45.77562" lon="5.45103">
        <ele>212.3</ele>
        <time>2019-05-24T19:41:43.622Z</time>
      </trkpt>
      <trkpt lat="45.77513" lon="5.45118">
        <ele>215.4</ele>
        <time>2019-05-24T19:41:44.627Z</time>
      </trkpt>
      <trkpt lat="45.77506" lon="5.45106">
        <ele>215.5</ele>
        <time>2019-05-24T19:41:44.844Z</time>
      </trkpt>
      <trkpt lat="45.77519" lon="5.45053">
        <ele>214.6</ele>
        <time>2019-05-24T19:41:45.627Z</time>
      </trkpt>
      <trkpt lat="45.77533" lon="5.44945">
        <ele>214.7</ele>
        <time>2019-05-24T19:41:47.166Z</time>
      </trkpt>
      <trkpt lat="45.77532" lon="5.4492">
        <ele>214.7</ele>
        <time>2019-05-24T19:41:47.521Z</time>
      </trkpt>
      <trkpt lat="45.77536" lon="5.44841">
        <ele>214.9</ele>
        <time>2019-05-24T19:41:48.624Z</time>
      </trkpt>
      <trkpt lat="45.77537" lon="5.44802">
        <ele>215</ele>
        <time>2019-05-24T19:41:49.164Z</time>
      </trkpt>
      <trkpt lat="45.77534" lon="5.44771">
        <ele>214.4</ele>
        <time>2019-05-24T19:41:49.611Z</time>
      </trkpt>
      <trkpt lat="45.7751" lon="5.44668">
        <ele>215</ele>
        <time>2019-05-24T19:41:51.120Z</time>
      </trkpt>
      <trkpt lat="45.775" lon="5.44615">
        <ele>215</ele>
        <time>2019-05-24T19:41:51.885Z</time>
      </trkpt>
      <trkpt lat="45.77496" lon="5.44574">
        <ele>214.6</ele>
        <time>2019-05-24T19:41:52.471Z</time>
      </trkpt>
      <trkpt lat="45.77484" lon="5.44503">
        <ele>215.8</ele>
        <time>2019-05-24T19:41:53.488Z</time>
      </trkpt>
      <trkpt lat="45.77482" lon="5.44475">
        <ele>216</ele>
        <time>2019-05-24T19:41:53.882Z</time>
      </trkpt>
      <trkpt lat="45.77482" lon="5.4443">
        <ele>216</ele>
        <time>2019-05-24T19:41:54.515Z</time>
      </trkpt>
      <trkpt lat="45.77483" lon="5.44403">
        <ele>215.8</ele>
        <time>2019-05-24T19:41:54.888Z</time>
      </trkpt>
      <trkpt lat="45.77478" lon="5.44379">
        <ele>216.1</ele>
        <time>2019-05-24T19:41:55.242Z</time>
      </trkpt>
      <trkpt lat="45.7746" lon="5.44353">
        <ele>216.5</ele>
        <time>2019-05-24T19:41:55.745Z</time>
      </trkpt>
      <trkpt lat="45.77443" lon="5.44321">
        <ele>215.6</ele>
        <time>2019-05-24T19:41:56.316Z</time>
      </trkpt>
      <trkpt lat="45.77417" lon="5.44244">
        <ele>215.8</ele>
        <time>2019-05-24T19:41:57.510Z</time>
      </trkpt>
      <trkpt lat="45.77412" lon="5.44224">
        <ele>215.9</ele>
        <time>2019-05-24T19:41:57.808Z</time>
      </trkpt>
      <trkpt lat="45.77404" lon="5.44203">
        <ele>217.3</ele>
        <time>2019-05-24T19:41:58.143Z</time>
      </trkpt>
      <trkpt lat="45.77395" lon="5.44146">
        <ele>217.8</ele>
        <time>2019-05-24T19:41:58.954Z</time>
      </trkpt>
      <trkpt lat="45.77383" lon="5.44107">
        <ele>217.2</ele>
        <time>2019-05-24T19:41:59.542Z</time>
      </trkpt>
      <trkpt lat="45.77353" lon="5.44085">
        <ele>218.6</ele>
        <time>2019-05-24T19:42:00.230Z</time>
      </trkpt>
      <trkpt lat="45.77328" lon="5.44038">
        <ele>219.5</ele>
        <time>2019-05-24T19:42:01.052Z</time>
      </trkpt>
      <trkpt lat="45.77296" lon="5.43993">
        <ele>221.7</ele>
        <time>2019-05-24T19:42:01.952Z</time>
      </trkpt>
      <trkpt lat="45.77251" lon="5.43914">
        <ele>225</ele>
        <time>2019-05-24T19:42:03.374Z</time>
      </trkpt>
      <trkpt lat="45.77219" lon="5.43849">
        <ele>225</ele>
        <time>2019-05-24T19:42:04.480Z</time>
      </trkpt>
      <trkpt lat="45.77195" lon="5.43793">
        <ele>225.4</ele>
        <time>2019-05-24T19:42:05.409Z</time>
      </trkpt>
      <trkpt lat="45.77181" lon="5.43738">
        <ele>226.3</ele>
        <time>2019-05-24T19:42:06.229Z</time>
      </trkpt>
      <trkpt lat="45.7717" lon="5.4371">
        <ele>226.1</ele>
        <time>2019-05-24T19:42:06.672Z</time>
      </trkpt>
      <trkpt lat="45.77151" lon="5.43673">
        <ele>225.4</ele>
        <time>2019-05-24T19:42:07.315Z</time>
      </trkpt>
      <trkpt lat="45.77107" lon="5.43638">
        <ele>225</ele>
        <time>2019-05-24T19:42:08.318Z</time>
      </trkpt>
      <trkpt lat="45.77066" lon="5.43609">
        <ele>224.3</ele>
        <time>2019-05-24T19:42:09.250Z</time>
      </trkpt>
      <trkpt lat="45.77037" lon="5.4358">
        <ele>224.7</ele>
        <time>2019-05-24T19:42:09.956Z</time>
      </trkpt>
      <trkpt lat="45.76997" lon="5.43548">
        <ele>225.8</ele>
        <time>2019-05-24T19:42:10.880Z</time>
      </trkpt>
      <trkpt lat="45.76967" lon="5.4351">
        <ele>226.2</ele>
        <time>2019-05-24T19:42:11.677Z</time>
      </trkpt>
      <trkpt lat="45.76938" lon="5.43482">
        <ele>227</ele>
        <time>2019-05-24T19:42:12.372Z</time>
      </trkpt>
      <trkpt lat="45.76895" lon="5.43442">
        <ele>226.2</ele>
        <time>2019-05-24T19:42:13.405Z</time>
      </trkpt>
      <trkpt lat="45.76828" lon="5.43378">
        <ele>226</ele>
        <time>2019-05-24T19:42:15.014Z</time>
      </trkpt>
      <trkpt lat="45.76805" lon="5.43359">
        <ele>226</ele>
        <time>2019-05-24T19:42:15.559Z</time>
      </trkpt>
      <trkpt lat="45.76777" lon="5.43333">
        <ele>226.1</ele>
        <time>2019-05-24T19:42:16.218Z</time>
      </trkpt>
      <trkpt lat="45.76759" lon="5.43307">
        <ele>227.4</ele>
        <time>2019-05-24T19:42:16.731Z</time>
      </trkpt>
      <trkpt lat="45.76751" lon="5.43293">
        <ele>228</ele>
        <time>2019-05-24T19:42:16.987Z</time>
      </trkpt>
      <trkpt lat="45.76719" lon="5.43223">
        <ele>232.4</ele>
        <time>2019-05-24T19:42:18.157Z</time>
      </trkpt>
      <trkpt lat="45.76706" lon="5.43203">
        <ele>233.7</ele>
        <time>2019-05-24T19:42:18.524Z</time>
      </trkpt>
      <trkpt lat="45.76695" lon="5.4319">
        <ele>234.8</ele>
        <time>2019-05-24T19:42:18.814Z</time>
      </trkpt>
      <trkpt lat="45.76692" lon="5.43188">
        <ele>235</ele>
        <time>2019-05-24T19:42:18.881Z</time>
      </trkpt>
      <trkpt lat="45.7668" lon="5.43189">
        <ele>236.3</ele>
        <time>2019-05-24T19:42:19.124Z</time>
      </trkpt>
      <trkpt lat="45.76661" lon="5.43196">
        <ele>238.5</ele>
        <time>2019-05-24T19:42:19.517Z</time>
      </trkpt>
      <trkpt lat="45.76648" lon="5.43198">
        <ele>239.5</ele>
        <time>2019-05-24T19:42:19.774Z</time>
      </trkpt>
      <trkpt lat="45.7658" lon="5.43227">
        <ele>244.2</ele>
        <time>2019-05-24T19:42:21.198Z</time>
      </trkpt>
      <trkpt lat="45.76577" lon="5.43226">
        <ele>244.1</ele>
        <time>2019-05-24T19:42:21.273Z</time>
      </trkpt>
      <trkpt lat="45.7657" lon="5.43223">
        <ele>244</ele>
        <time>2019-05-24T19:42:21.415Z</time>
      </trkpt>
      <trkpt lat="45.76542" lon="5.43197">
        <ele>243.5</ele>
        <time>2019-05-24T19:42:22.071Z</time>
      </trkpt>
      <trkpt lat="45.76533" lon="5.43185">
        <ele>243.8</ele>
        <time>2019-05-24T19:42:22.332Z</time>
      </trkpt>
      <trkpt lat="45.76517" lon="5.43155">
        <ele>245</ele>
        <time>2019-05-24T19:42:22.855Z</time>
      </trkpt>
      <trkpt lat="45.76485" lon="5.43118">
        <ele>248.4</ele>
        <time>2019-05-24T19:42:23.675Z</time>
      </trkpt>
      <trkpt lat="45.76437" lon="5.4308">
        <ele>248.7</ele>
        <time>2019-05-24T19:42:24.782Z</time>
      </trkpt>
      <trkpt lat="45.7639" lon="5.43037">
        <ele>247</ele>
        <time>2019-05-24T19:42:25.897Z</time>
      </trkpt>
      <trkpt lat="45.76378" lon="5.4303">
        <ele>247</ele>
        <time>2019-05-24T19:42:26.148Z</time>
      </trkpt>
      <trkpt lat="45.76363" lon="5.43027">
        <ele>247</ele>
        <time>2019-05-24T19:42:26.465Z</time>
      </trkpt>
      <trkpt lat="45.76352" lon="5.43022">
        <ele>246.1</ele>
        <time>2019-05-24T19:42:26.692Z</time>
      </trkpt>
      <trkpt lat="45.76324" lon="5.43003">
        <ele>241.8</ele>
        <time>2019-05-24T19:42:27.315Z</time>
      </trkpt>
      <trkpt lat="45.763" lon="5.42992">
        <ele>235.4</ele>
        <time>2019-05-24T19:42:27.816Z</time>
      </trkpt>
      <trkpt lat="45.76289" lon="5.4298">
        <ele>232</ele>
        <time>2019-05-24T19:42:28.108Z</time>
      </trkpt>
      <trkpt lat="45.76276" lon="5.4296">
        <ele>228.5</ele>
        <time>2019-05-24T19:42:28.481Z</time>
      </trkpt>
      <trkpt lat="45.76252" lon="5.42931">
        <ele>227</ele>
        <time>2019-05-24T19:42:29.104Z</time>
      </trkpt>
      <trkpt lat="45.76115" lon="5.4279">
        <ele>228.6</ele>
        <time>2019-05-24T19:42:32.486Z</time>
      </trkpt>
      <trkpt lat="45.76082" lon="5.42751">
        <ele>228.9</ele>
        <time>2019-05-24T19:42:33.342Z</time>
      </trkpt>
      <trkpt lat="45.76073" lon="5.42735">
        <ele>228.8</ele>
        <time>2019-05-24T19:42:33.636Z</time>
      </trkpt>
      <trkpt lat="45.76067" lon="5.42716">
        <ele>229</ele>
        <time>2019-05-24T19:42:33.931Z</time>
      </trkpt>
      <trkpt lat="45.76055" lon="5.42644">
        <ele>229</ele>
        <time>2019-05-24T19:42:34.965Z</time>
      </trkpt>
      <trkpt lat="45.76058" lon="5.42603">
        <ele>229.1</ele>
        <time>2019-05-24T19:42:35.538Z</time>
      </trkpt>
      <trkpt lat="45.76058" lon="5.42566">
        <ele>228.6</ele>
        <time>2019-05-24T19:42:36.054Z</time>
      </trkpt>
      <trkpt lat="45.76066" lon="5.42543">
        <ele>228.6</ele>
        <time>2019-05-24T19:42:36.409Z</time>
      </trkpt>
      <trkpt lat="45.7609" lon="5.42504">
        <ele>227.6</ele>
        <time>2019-05-24T19:42:37.144Z</time>
      </trkpt>
      <trkpt lat="45.76094" lon="5.42499">
        <ele>227.3</ele>
        <time>2019-05-24T19:42:37.257Z</time>
      </trkpt>
      <trkpt lat="45.76192" lon="5.42414">
        <ele>223.2</ele>
        <time>2019-05-24T19:42:39.538Z</time>
      </trkpt>
      <trkpt lat="45.76222" lon="5.42404">
        <ele>224.5</ele>
        <time>2019-05-24T19:42:40.173Z</time>
      </trkpt>
      <trkpt lat="45.76241" lon="5.42406">
        <ele>224.6</ele>
        <time>2019-05-24T19:42:40.550Z</time>
      </trkpt>
      <trkpt lat="45.76249" lon="5.42404">
        <ele>224.9</ele>
        <time>2019-05-24T19:42:40.719Z</time>
      </trkpt>
      <trkpt lat="45.76268" lon="5.42393">
        <ele>224.6</ele>
        <time>2019-05-24T19:42:41.128Z</time>
      </trkpt>
      <trkpt lat="45.7629" lon="5.42376">
        <ele>223.5</ele>
        <time>2019-05-24T19:42:41.628Z</time>
      </trkpt>
      <trkpt lat="45.76312" lon="5.4237">
        <ele>223.3</ele>
        <time>2019-05-24T19:42:42.063Z</time>
      </trkpt>
      <trkpt lat="45.76465" lon="5.42339">
        <ele>223.6</ele>
        <time>2019-05-24T19:42:45.164Z</time>
      </trkpt>
      <trkpt lat="45.7649" lon="5.42336">
        <ele>222.8</ele>
        <time>2019-05-24T19:42:45.665Z</time>
      </trkpt>
      <trkpt lat="45.76524" lon="5.42334">
        <ele>222</ele>
        <time>2019-05-24T19:42:46.361Z</time>
      </trkpt>
      <trkpt lat="45.76557" lon="5.42336">
        <ele>223</ele>
        <time>2019-05-24T19:42:47.007Z</time>
      </trkpt>
      <trkpt lat="45.76602" lon="5.42343">
        <ele>222.8</ele>
        <time>2019-05-24T19:42:47.918Z</time>
      </trkpt>
      <trkpt lat="45.76641" lon="5.42352">
        <ele>223</ele>
        <time>2019-05-24T19:42:48.706Z</time>
      </trkpt>
      <trkpt lat="45.76679" lon="5.42365">
        <ele>223</ele>
        <time>2019-05-24T19:42:49.489Z</time>
      </trkpt>
      <trkpt lat="45.76718" lon="5.42382">
        <ele>222.8</ele>
        <time>2019-05-24T19:42:50.307Z</time>
      </trkpt>
      <trkpt lat="45.76765" lon="5.42407">
        <ele>222.8</ele>
        <time>2019-05-24T19:42:51.319Z</time>
      </trkpt>
      <trkpt lat="45.76773" lon="5.42413">
        <ele>222.9</ele>
        <time>2019-05-24T19:42:51.498Z</time>
      </trkpt>
      <trkpt lat="45.76779" lon="5.42421">
        <ele>223</ele>
        <time>2019-05-24T19:42:51.662Z</time>
      </trkpt>
      <trkpt lat="45.76787" lon="5.42423">
        <ele>223</ele>
        <time>2019-05-24T19:42:51.834Z</time>
      </trkpt>
      <trkpt lat="45.76795" lon="5.42407">
        <ele>222.6</ele>
        <time>2019-05-24T19:42:52.110Z</time>
      </trkpt>
      <trkpt lat="45.76805" lon="5.42409">
        <ele>222.7</ele>
        <time>2019-05-24T19:42:52.304Z</time>
      </trkpt>
      <trkpt lat="45.76818" lon="5.42429">
        <ele>222.7</ele>
        <time>2019-05-24T19:42:52.686Z</time>
      </trkpt>
      <trkpt lat="45.76858" lon="5.42462">
        <ele>222.1</ele>
        <time>2019-05-24T19:42:53.607Z</time>
      </trkpt>
      <trkpt lat="45.76887" lon="5.42489">
        <ele>222</ele>
        <time>2019-05-24T19:42:54.304Z</time>
      </trkpt>
      <trkpt lat="45.76925" lon="5.42532">
        <ele>222.5</ele>
        <time>2019-05-24T19:42:55.278Z</time>
      </trkpt>
      <trkpt lat="45.76961" lon="5.42579">
        <ele>222.3</ele>
        <time>2019-05-24T19:42:56.248Z</time>
      </trkpt>
      <trkpt lat="45.76997" lon="5.42635">
        <ele>222.9</ele>
        <time>2019-05-24T19:42:57.317Z</time>
      </trkpt>
      <trkpt lat="45.77062" lon="5.42753">
        <ele>222.8</ele>
        <time>2019-05-24T19:42:59.419Z</time>
      </trkpt>
      <trkpt lat="45.77149" lon="5.42921">
        <ele>222.2</ele>
        <time>2019-05-24T19:43:02.348Z</time>
      </trkpt>
      <trkpt lat="45.77213" lon="5.43043">
        <ele>221.7</ele>
        <time>2019-05-24T19:43:04.478Z</time>
      </trkpt>
      <trkpt lat="45.77226" lon="5.4306">
        <ele>221.9</ele>
        <time>2019-05-24T19:43:04.831Z</time>
      </trkpt>
      <trkpt lat="45.77235" lon="5.43077">
        <ele>221.6</ele>
        <time>2019-05-24T19:43:05.125Z</time>
      </trkpt>
      <trkpt lat="45.77273" lon="5.43139">
        <ele>221</ele>
        <time>2019-05-24T19:43:06.283Z</time>
      </trkpt>
      <trkpt lat="45.7731" lon="5.43186">
        <ele>221.1</ele>
        <time>2019-05-24T19:43:07.273Z</time>
      </trkpt>
      <trkpt lat="45.77348" lon="5.43225">
        <ele>220.6</ele>
        <time>2019-05-24T19:43:08.210Z</time>
      </trkpt>
      <trkpt lat="45.77392" lon="5.43262">
        <ele>220.9</ele>
        <time>2019-05-24T19:43:09.227Z</time>
      </trkpt>
      <trkpt lat="45.77424" lon="5.43286">
        <ele>220.6</ele>
        <time>2019-05-24T19:43:09.963Z</time>
      </trkpt>
      <trkpt lat="45.77438" lon="5.43299">
        <ele>221.5</ele>
        <time>2019-05-24T19:43:10.286Z</time>
      </trkpt>
      <trkpt lat="45.77447" lon="5.43305">
        <ele>221.8</ele>
        <time>2019-05-24T19:43:10.498Z</time>
      </trkpt>
      <trkpt lat="45.77495" lon="5.43325">
        <ele>221.1</ele>
        <time>2019-05-24T19:43:11.493Z</time>
      </trkpt>
      <trkpt lat="45.77542" lon="5.43336">
        <ele>222.5</ele>
        <time>2019-05-24T19:43:12.435Z</time>
      </trkpt>
      <trkpt lat="45.77562" lon="5.43337">
        <ele>223</ele>
        <time>2019-05-24T19:43:12.846Z</time>
      </trkpt>
      <trkpt lat="45.77576" lon="5.43335">
        <ele>223</ele>
        <time>2019-05-24T19:43:13.133Z</time>
      </trkpt>
      <trkpt lat="45.77595" lon="5.43339">
        <ele>223.2</ele>
        <time>2019-05-24T19:43:13.515Z</time>
      </trkpt>
      <trkpt lat="45.77615" lon="5.43338">
        <ele>223.1</ele>
        <time>2019-05-24T19:43:13.914Z</time>
      </trkpt>
      <trkpt lat="45.7766" lon="5.43334">
        <ele>223</ele>
        <time>2019-05-24T19:43:14.822Z</time>
      </trkpt>
      <trkpt lat="45.77726" lon="5.43325">
        <ele>223.1</ele>
        <time>2019-05-24T19:43:16.153Z</time>
      </trkpt>
      <trkpt lat="45.7776" lon="5.43316">
        <ele>224</ele>
        <time>2019-05-24T19:43:16.847Z</time>
      </trkpt>
      <trkpt lat="45.77765" lon="5.43314">
        <ele>224</ele>
        <time>2019-05-24T19:43:16.939Z</time>
      </trkpt>
      <trkpt lat="45.7777" lon="5.43305">
        <ele>224</ele>
        <time>2019-05-24T19:43:17.105Z</time>
      </trkpt>
      <trkpt lat="45.77761" lon="5.43263">
        <ele>224.5</ele>
        <time>2019-05-24T19:43:17.714Z</time>
      </trkpt>
      <trkpt lat="45.77752" lon="5.43191">
        <ele>225.1</ele>
        <time>2019-05-24T19:43:18.731Z</time>
      </trkpt>
      <trkpt lat="45.77739" lon="5.43144">
        <ele>226.4</ele>
        <time>2019-05-24T19:43:19.443Z</time>
      </trkpt>
      <trkpt lat="45.77695" lon="5.43004">
        <ele>227</ele>
        <time>2019-05-24T19:43:21.592Z</time>
      </trkpt>
      <trkpt lat="45.77669" lon="5.42939">
        <ele>227</ele>
        <time>2019-05-24T19:43:22.648Z</time>
      </trkpt>
      <trkpt lat="45.77648" lon="5.42878">
        <ele>227</ele>
        <time>2019-05-24T19:43:23.594Z</time>
      </trkpt>
      <trkpt lat="45.77628" lon="5.42761">
        <ele>229.6</ele>
        <time>2019-05-24T19:43:25.272Z</time>
      </trkpt>
      <trkpt lat="45.77622" lon="5.42745">
        <ele>230.1</ele>
        <time>2019-05-24T19:43:25.535Z</time>
      </trkpt>
      <trkpt lat="45.77615" lon="5.42735">
        <ele>230.3</ele>
        <time>2019-05-24T19:43:25.714Z</time>
      </trkpt>
      <trkpt lat="45.77554" lon="5.4267">
        <ele>229.1</ele>
        <time>2019-05-24T19:43:27.249Z</time>
      </trkpt>
      <trkpt lat="45.77553" lon="5.4265">
        <ele>228.9</ele>
        <time>2019-05-24T19:43:27.539Z</time>
      </trkpt>
      <trkpt lat="45.77582" lon="5.42567">
        <ele>229</ele>
        <time>2019-05-24T19:43:28.838Z</time>
      </trkpt>
      <trkpt lat="45.77609" lon="5.42509">
        <ele>229</ele>
        <time>2019-05-24T19:43:29.814Z</time>
      </trkpt>
      <trkpt lat="45.77624" lon="5.42453">
        <ele>229.7</ele>
        <time>2019-05-24T19:43:30.650Z</time>
      </trkpt>
      <trkpt lat="45.77631" lon="5.4241">
        <ele>231.2</ele>
        <time>2019-05-24T19:43:31.263Z</time>
      </trkpt>
      <trkpt lat="45.77639" lon="5.42382">
        <ele>232.5</ele>
        <time>2019-05-24T19:43:31.694Z</time>
      </trkpt>
      <trkpt lat="45.77666" lon="5.4232">
        <ele>237.5</ele>
        <time>2019-05-24T19:43:32.708Z</time>
      </trkpt>
      <trkpt lat="45.77687" lon="5.42246">
        <ele>242</ele>
        <time>2019-05-24T19:43:33.826Z</time>
      </trkpt>
      <trkpt lat="45.77693" lon="5.42213">
        <ele>243.9</ele>
        <time>2019-05-24T19:43:34.310Z</time>
      </trkpt>
      <trkpt lat="45.77702" lon="5.42195">
        <ele>244.5</ele>
        <time>2019-05-24T19:43:34.612Z</time>
      </trkpt>
      <trkpt lat="45.77713" lon="5.42184">
        <ele>245.6</ele>
        <time>2019-05-24T19:43:34.879Z</time>
      </trkpt>
      <trkpt lat="45.77792" lon="5.42154">
        <ele>245.9</ele>
        <time>2019-05-24T19:43:36.518Z</time>
      </trkpt>
      <trkpt lat="45.77855" lon="5.42141">
        <ele>248.6</ele>
        <time>2019-05-24T19:43:37.796Z</time>
      </trkpt>
      <trkpt lat="45.77875" lon="5.42138">
        <ele>249</ele>
        <time>2019-05-24T19:43:38.199Z</time>
      </trkpt>
      <trkpt lat="45.77886" lon="5.42135">
        <ele>249</ele>
        <time>2019-05-24T19:43:38.428Z</time>
      </trkpt>
      <trkpt lat="45.77907" lon="5.42123">
        <ele>248.6</ele>
        <time>2019-05-24T19:43:38.882Z</time>
      </trkpt>
      <trkpt lat="45.77926" lon="5.42121">
        <ele>248.2</ele>
        <time>2019-05-24T19:43:39.261Z</time>
      </trkpt>
      <trkpt lat="45.77952" lon="5.42124">
        <ele>248</ele>
        <time>2019-05-24T19:43:39.774Z</time>
      </trkpt>
      <trkpt lat="45.77964" lon="5.42129">
        <ele>248</ele>
        <time>2019-05-24T19:43:40.040Z</time>
      </trkpt>
      <trkpt lat="45.78" lon="5.42149">
        <ele>246.6</ele>
        <time>2019-05-24T19:43:40.811Z</time>
      </trkpt>
      <trkpt lat="45.78034" lon="5.42161">
        <ele>246.5</ele>
        <time>2019-05-24T19:43:41.502Z</time>
      </trkpt>
      <trkpt lat="45.7806" lon="5.42161">
        <ele>246.8</ele>
        <time>2019-05-24T19:43:42.035Z</time>
      </trkpt>
      <trkpt lat="45.78131" lon="5.42151">
        <ele>249.4</ele>
        <time>2019-05-24T19:43:43.453Z</time>
      </trkpt>
      <trkpt lat="45.78151" lon="5.42145">
        <ele>250.2</ele>
        <time>2019-05-24T19:43:43.862Z</time>
      </trkpt>
      <trkpt lat="45.78187" lon="5.42124">
        <ele>252.1</ele>
        <time>2019-05-24T19:43:44.636Z</time>
      </trkpt>
      <trkpt lat="45.78226" lon="5.42097">
        <ele>253.4</ele>
        <time>2019-05-24T19:43:45.505Z</time>
      </trkpt>
      <trkpt lat="45.78275" lon="5.42059">
        <ele>249.6</ele>
        <time>2019-05-24T19:43:46.621Z</time>
      </trkpt>
      <trkpt lat="45.78312" lon="5.42035">
        <ele>245.8</ele>
        <time>2019-05-24T19:43:47.441Z</time>
      </trkpt>
      <trkpt lat="45.78326" lon="5.42022">
        <ele>245.1</ele>
        <time>2019-05-24T19:43:47.768Z</time>
      </trkpt>
      <trkpt lat="45.78339" lon="5.42006">
        <ele>244</ele>
        <time>2019-05-24T19:43:48.114Z</time>
      </trkpt>
      <trkpt lat="45.78351" lon="5.41987">
        <ele>242.9</ele>
        <time>2019-05-24T19:43:48.469Z</time>
      </trkpt>
      <trkpt lat="45.78369" lon="5.41949">
        <ele>241.6</ele>
        <time>2019-05-24T19:43:49.119Z</time>
      </trkpt>
      <trkpt lat="45.7838" lon="5.41933">
        <ele>241.5</ele>
        <time>2019-05-24T19:43:49.423Z</time>
      </trkpt>
      <trkpt lat="45.78398" lon="5.41917">
        <ele>239.7</ele>
        <time>2019-05-24T19:43:49.853Z</time>
      </trkpt>
      <trkpt lat="45.78415" lon="5.41904">
        <ele>239.6</ele>
        <time>2019-05-24T19:43:50.243Z</time>
      </trkpt>
      <trkpt lat="45.7845" lon="5.41884">
        <ele>240</ele>
        <time>2019-05-24T19:43:50.995Z</time>
      </trkpt>
      <trkpt lat="45.7849" lon="5.41874">
        <ele>239.7</ele>
        <time>2019-05-24T19:43:51.810Z</time>
      </trkpt>
      <trkpt lat="45.78548" lon="5.41865">
        <ele>239.1</ele>
        <time>2019-05-24T19:43:52.971Z</time>
      </trkpt>
      <trkpt lat="45.78604" lon="5.41851">
        <ele>239.1</ele>
        <time>2019-05-24T19:43:54.126Z</time>
      </trkpt>
      <trkpt lat="45.78651" lon="5.4183">
        <ele>239.7</ele>
        <time>2019-05-24T19:43:55.113Z</time>
      </trkpt>
      <trkpt lat="45.78661" lon="5.41824">
        <ele>239.8</ele>
        <time>2019-05-24T19:43:55.316Z</time>
      </trkpt>
      <trkpt lat="45.78698" lon="5.41787">
        <ele>241.7</ele>
        <time>2019-05-24T19:43:56.233Z</time>
      </trkpt>
      <trkpt lat="45.78728" lon="5.41763">
        <ele>242.6</ele>
        <time>2019-05-24T19:43:56.908Z</time>
      </trkpt>
      <trkpt lat="45.7876" lon="5.41739">
        <ele>243.5</ele>
        <time>2019-05-24T19:43:57.634Z</time>
      </trkpt>
      <trkpt lat="45.78776" lon="5.41731">
        <ele>243.1</ele>
        <time>2019-05-24T19:43:57.979Z</time>
      </trkpt>
      <trkpt lat="45.78789" lon="5.41729">
        <ele>243</ele>
        <time>2019-05-24T19:43:58.249Z</time>
      </trkpt>
      <trkpt lat="45.78822" lon="5.41728">
        <ele>243</ele>
        <time>2019-05-24T19:43:58.912Z</time>
      </trkpt>
      <trkpt lat="45.78877" lon="5.41722">
        <ele>244.6</ele>
        <time>2019-05-24T19:44:00.002Z</time>
      </trkpt>
      <trkpt lat="45.78898" lon="5.41721">
        <ele>245.1</ele>
        <time>2019-05-24T19:44:00.425Z</time>
      </trkpt>
      <trkpt lat="45.78921" lon="5.41717">
        <ele>245.3</ele>
        <time>2019-05-24T19:44:00.900Z</time>
      </trkpt>
      <trkpt lat="45.78943" lon="5.4171">
        <ele>245.5</ele>
        <time>2019-05-24T19:44:01.351Z</time>
      </trkpt>
      <trkpt lat="45.78962" lon="5.4169">
        <ele>246.1</ele>
        <time>2019-05-24T19:44:01.823Z</time>
      </trkpt>
      <trkpt lat="45.7897" lon="5.41685">
        <ele>246.3</ele>
        <time>2019-05-24T19:44:02.000Z</time>
      </trkpt>
      <trkpt lat="45.78972" lon="5.41686">
        <ele>246.3</ele>
        <time>2019-05-24T19:44:02.038Z</time>
      </trkpt>
      <trkpt lat="45.78973" lon="5.417">
        <ele>245.8</ele>
        <time>2019-05-24T19:44:02.230Z</time>
      </trkpt>
      <trkpt lat="45.78986" lon="5.41742">
        <ele>245.1</ele>
        <time>2019-05-24T19:44:02.876Z</time>
      </trkpt>
      <trkpt lat="45.78998" lon="5.4177">
        <ele>244.5</ele>
        <time>2019-05-24T19:44:03.336Z</time>
      </trkpt>
      <trkpt lat="45.79007" lon="5.41782">
        <ele>243.7</ele>
        <time>2019-05-24T19:44:03.581Z</time>
      </trkpt>
      <trkpt lat="45.79014" lon="5.41786">
        <ele>243.6</ele>
        <time>2019-05-24T19:44:03.731Z</time>
      </trkpt>
      <trkpt lat="45.7903" lon="5.41788">
        <ele>243.9</ele>
        <time>2019-05-24T19:44:04.047Z</time>
      </trkpt>
      <trkpt lat="45.79046" lon="5.41783">
        <ele>244</ele>
        <time>2019-05-24T19:44:04.388Z</time>
      </trkpt>
      <trkpt lat="45.79082" lon="5.41765">
        <ele>244</ele>
        <time>2019-05-24T19:44:05.137Z</time>
      </trkpt>
      <trkpt lat="45.79105" lon="5.41743">
        <ele>244</ele>
        <time>2019-05-24T19:44:05.703Z</time>
      </trkpt>
      <trkpt lat="45.7912" lon="5.41724">
        <ele>244</ele>
        <time>2019-05-24T19:44:06.103Z</time>
      </trkpt>
      <trkpt lat="45.79128" lon="5.41717">
        <ele>244.1</ele>
        <time>2019-05-24T19:44:06.295Z</time>
      </trkpt>
      <trkpt lat="45.79185" lon="5.41687">
        <ele>246</ele>
        <time>2019-05-24T19:44:07.500Z</time>
      </trkpt>
      <trkpt lat="45.79277" lon="5.41623">
        <ele>248.7</ele>
        <time>2019-05-24T19:44:09.560Z</time>
      </trkpt>
      <trkpt lat="45.79385" lon="5.4157">
        <ele>241.2</ele>
        <time>2019-05-24T19:44:11.838Z</time>
      </trkpt>
      <trkpt lat="45.79401" lon="5.41563">
        <ele>240.6</ele>
        <time>2019-05-24T19:44:12.187Z</time>
      </trkpt>
      <trkpt lat="45.79425" lon="5.41558">
        <ele>239.9</ele>
        <time>2019-05-24T19:44:12.670Z</time>
      </trkpt>
      <trkpt lat="45.79482" lon="5.41555">
        <ele>238.7</ele>
        <time>2019-05-24T19:44:13.805Z</time>
      </trkpt>
      <trkpt lat="45.79494" lon="5.41549">
        <ele>238.4</ele>
        <time>2019-05-24T19:44:14.059Z</time>
      </trkpt>
      <trkpt lat="45.7951" lon="5.41537">
        <ele>238.5</ele>
        <time>2019-05-24T19:44:14.427Z</time>
      </trkpt>
      <trkpt lat="45.7953" lon="5.41516">
        <ele>239</ele>
        <time>2019-05-24T19:44:14.913Z</time>
      </trkpt>
      <trkpt lat="45.79544" lon="5.41509">
        <ele>238.8</ele>
        <time>2019-05-24T19:44:15.218Z</time>
      </trkpt>
      <trkpt lat="45.79564" lon="5.41496">
        <ele>239.4</ele>
        <time>2019-05-24T19:44:15.663Z</time>
      </trkpt>
      <trkpt lat="45.79584" lon="5.41478">
        <ele>240</ele>
        <time>2019-05-24T19:44:16.137Z</time>
      </trkpt>
      <trkpt lat="45.79591" lon="5.41475">
        <ele>240</ele>
        <time>2019-05-24T19:44:16.270Z</time>
      </trkpt>
      <trkpt lat="45.79608" lon="5.41476">
        <ele>239.8</ele>
        <time>2019-05-24T19:44:16.611Z</time>
      </trkpt>
      <trkpt lat="45.79629" lon="5.41486">
        <ele>238</ele>
        <time>2019-05-24T19:44:17.066Z</time>
      </trkpt>
      <trkpt lat="45.79671" lon="5.41481">
        <ele>233.4</ele>
        <time>2019-05-24T19:44:17.899Z</time>
      </trkpt>
      <trkpt lat="45.79689" lon="5.41483">
        <ele>230.9</ele>
        <time>2019-05-24T19:44:18.261Z</time>
      </trkpt>
      <trkpt lat="45.79709" lon="5.41483">
        <ele>228.4</ele>
        <time>2019-05-24T19:44:18.674Z</time>
      </trkpt>
      <trkpt lat="45.79719" lon="5.41479">
        <ele>227.3</ele>
        <time>2019-05-24T19:44:18.891Z</time>
      </trkpt>
      <trkpt lat="45.79786" lon="5.41425">
        <ele>223.5</ele>
        <time>2019-05-24T19:44:20.416Z</time>
      </trkpt>
      <trkpt lat="45.79826" lon="5.41385">
        <ele>221.7</ele>
        <time>2019-05-24T19:44:21.398Z</time>
      </trkpt>
      <trkpt lat="45.79834" lon="5.41379">
        <ele>221.4</ele>
        <time>2019-05-24T19:44:21.580Z</time>
      </trkpt>
      <trkpt lat="45.79859" lon="5.41375">
        <ele>221</ele>
        <time>2019-05-24T19:44:22.087Z</time>
      </trkpt>
      <trkpt lat="45.79886" lon="5.41391">
        <ele>222.7</ele>
        <time>2019-05-24T19:44:22.672Z</time>
      </trkpt>
      <trkpt lat="45.7991" lon="5.41402">
        <ele>221.2</ele>
        <time>2019-05-24T19:44:23.176Z</time>
      </trkpt>
      <trkpt lat="45.79915" lon="5.41403">
        <ele>221.1</ele>
        <time>2019-05-24T19:44:23.277Z</time>
      </trkpt>
      <trkpt lat="45.79924" lon="5.41397">
        <ele>221</ele>
        <time>2019-05-24T19:44:23.470Z</time>
      </trkpt>
      <trkpt lat="45.79929" lon="5.41375">
        <ele>221</ele>
        <time>2019-05-24T19:44:23.789Z</time>
      </trkpt>
      <trkpt lat="45.79933" lon="5.41336">
        <ele>221.5</ele>
        <time>2019-05-24T19:44:24.340Z</time>
      </trkpt>
      <trkpt lat="45.79944" lon="5.41309">
        <ele>221.1</ele>
        <time>2019-05-24T19:44:24.787Z</time>
      </trkpt>
      <trkpt lat="45.79984" lon="5.41243">
        <ele>221.7</ele>
        <time>2019-05-24T19:44:26.007Z</time>
      </trkpt>
      <trkpt lat="45.79996" lon="5.41228">
        <ele>221.4</ele>
        <time>2019-05-24T19:44:26.314Z</time>
      </trkpt>
      <trkpt lat="45.80038" lon="5.41203">
        <ele>221</ele>
        <time>2019-05-24T19:44:27.220Z</time>
      </trkpt>
      <trkpt lat="45.80064" lon="5.41193">
        <ele>220</ele>
        <time>2019-05-24T19:44:27.770Z</time>
      </trkpt>
      <trkpt lat="45.80108" lon="5.41171">
        <ele>220</ele>
        <time>2019-05-24T19:44:28.710Z</time>
      </trkpt>
      <trkpt lat="45.8014" lon="5.41148">
        <ele>220.1</ele>
        <time>2019-05-24T19:44:29.421Z</time>
      </trkpt>
      <trkpt lat="45.8016" lon="5.4112">
        <ele>220.8</ele>
        <time>2019-05-24T19:44:29.973Z</time>
      </trkpt>
      <trkpt lat="45.80216" lon="5.41066">
        <ele>221.2</ele>
        <time>2019-05-24T19:44:31.333Z</time>
      </trkpt>
      <trkpt lat="45.80248" lon="5.41045">
        <ele>221.5</ele>
        <time>2019-05-24T19:44:32.029Z</time>
      </trkpt>
      <trkpt lat="45.80305" lon="5.41001">
        <ele>221.2</ele>
        <time>2019-05-24T19:44:33.337Z</time>
      </trkpt>
      <trkpt lat="45.80338" lon="5.40979">
        <ele>220.6</ele>
        <time>2019-05-24T19:44:34.056Z</time>
      </trkpt>
      <trkpt lat="45.80357" lon="5.40963">
        <ele>220.6</ele>
        <time>2019-05-24T19:44:34.500Z</time>
      </trkpt>
      <trkpt lat="45.80369" lon="5.40944">
        <ele>220.5</ele>
        <time>2019-05-24T19:44:34.856Z</time>
      </trkpt>
      <trkpt lat="45.80386" lon="5.40909">
        <ele>220.9</ele>
        <time>2019-05-24T19:44:35.460Z</time>
      </trkpt>
      <trkpt lat="45.80423" lon="5.40945">
        <ele>222</ele>
        <time>2019-05-24T19:44:36.358Z</time>
      </trkpt>
      <trkpt lat="45.80485" lon="5.40983">
        <ele>222</ele>
        <time>2019-05-24T19:44:37.706Z</time>
      </trkpt>
      <trkpt lat="45.80506" lon="5.41001">
        <ele>221.6</ele>
        <time>2019-05-24T19:44:38.179Z</time>
      </trkpt>
      <trkpt lat="45.80539" lon="5.41045">
        <ele>219.6</ele>
        <time>2019-05-24T19:44:39.092Z</time>
      </trkpt>
      <trkpt lat="45.80558" lon="5.411">
        <ele>217.4</ele>
        <time>2019-05-24T19:44:39.949Z</time>
      </trkpt>
      <trkpt lat="45.80571" lon="5.41141">
        <ele>217</ele>
        <time>2019-05-24T19:44:40.575Z</time>
      </trkpt>
      <trkpt lat="45.80579" lon="5.41179">
        <ele>217</ele>
        <time>2019-05-24T19:44:41.134Z</time>
      </trkpt>
      <trkpt lat="45.80581" lon="5.41235">
        <ele>217</ele>
        <time>2019-05-24T19:44:41.922Z</time>
      </trkpt>
      <trkpt lat="45.80572" lon="5.41402">
        <ele>217.2</ele>
        <time>2019-05-24T19:44:44.255Z</time>
      </trkpt>
      <trkpt lat="45.80575" lon="5.41431">
        <ele>217.3</ele>
        <time>2019-05-24T19:44:44.667Z</time>
      </trkpt>
      <trkpt lat="45.80589" lon="5.41438">
        <ele>217</ele>
        <time>2019-05-24T19:44:44.969Z</time>
      </trkpt>
      <trkpt lat="45.80607" lon="5.4144">
        <ele>217</ele>
        <time>2019-05-24T19:44:45.322Z</time>
      </trkpt>
      <trkpt lat="45.80617" lon="5.41437">
        <ele>217</ele>
        <time>2019-05-24T19:44:45.519Z</time>
      </trkpt>
      <trkpt lat="45.80646" lon="5.41423">
        <ele>217</ele>
        <time>2019-05-24T19:44:46.136Z</time>
      </trkpt>
      <trkpt lat="45.80657" lon="5.41416">
        <ele>217</ele>
        <time>2019-05-24T19:44:46.387Z</time>
      </trkpt>
      <trkpt lat="45.80661" lon="5.41418">
        <ele>217</ele>
        <time>2019-05-24T19:44:46.469Z</time>
      </trkpt>
      <trkpt lat="45.8067" lon="5.41432">
        <ele>216.9</ele>
        <time>2019-05-24T19:44:46.730Z</time>
      </trkpt>
      <trkpt lat="45.80764" lon="5.41669">
        <ele>216</ele>
        <time>2019-05-24T19:44:50.542Z</time>
      </trkpt>
      <trkpt lat="45.80834" lon="5.4184">
        <ele>217</ele>
        <time>2019-05-24T19:44:53.310Z</time>
      </trkpt>
      <trkpt lat="45.80842" lon="5.41846">
        <ele>216.7</ele>
        <time>2019-05-24T19:44:53.495Z</time>
      </trkpt>
      <trkpt lat="45.80855" lon="5.41842">
        <ele>216.2</ele>
        <time>2019-05-24T19:44:53.752Z</time>
      </trkpt>
      <trkpt lat="45.80945" lon="5.4178">
        <ele>215.3</ele>
        <time>2019-05-24T19:44:55.751Z</time>
      </trkpt>
      <trkpt lat="45.81015" lon="5.41725">
        <ele>216</ele>
        <time>2019-05-24T19:44:57.350Z</time>
      </trkpt>
      <trkpt lat="45.81067" lon="5.41688">
        <ele>216.1</ele>
        <time>2019-05-24T19:44:58.517Z</time>
      </trkpt>
      <trkpt lat="45.81148" lon="5.41637">
        <ele>215</ele>
        <time>2019-05-24T19:45:00.283Z</time>
      </trkpt>
      <trkpt lat="45.81192" lon="5.41612">
        <ele>215</ele>
        <time>2019-05-24T19:45:01.243Z</time>
      </trkpt>
      <trkpt lat="45.81227" lon="5.41591">
        <ele>215</ele>
        <time>2019-05-24T19:45:02.003Z</time>
      </trkpt>
      <trkpt lat="45.81267" lon="5.4157">
        <ele>215.5</ele>
        <time>2019-05-24T19:45:02.846Z</time>
      </trkpt>
      <trkpt lat="45.813" lon="5.41548">
        <ele>215.4</ele>
        <time>2019-05-24T19:45:03.591Z</time>
      </trkpt>
      <trkpt lat="45.81459" lon="5.4142">
        <ele>211.1</ele>
        <time>2019-05-24T19:45:07.243Z</time>
      </trkpt>
      <trkpt lat="45.81469" lon="5.41403">
        <ele>209.5</ele>
        <time>2019-05-24T19:45:07.550Z</time>
      </trkpt>
      <trkpt lat="45.81484" lon="5.41371">
        <ele>206.1</ele>
        <time>2019-05-24T19:45:08.080Z</time>
      </trkpt>
      <trkpt lat="45.81489" lon="5.41331">
        <ele>204.8</ele>
        <time>2019-05-24T19:45:08.652Z</time>
      </trkpt>
      <trkpt lat="45.8149" lon="5.41303">
        <ele>204.4</ele>
        <time>2019-05-24T19:45:09.037Z</time>
      </trkpt>
      <trkpt lat="45.81492" lon="5.41223">
        <ele>204.3</ele>
        <time>2019-05-24T19:45:10.162Z</time>
      </trkpt>
      <trkpt lat="45.81491" lon="5.41214">
        <ele>204.3</ele>
        <time>2019-05-24T19:45:10.286Z</time>
      </trkpt>
      <trkpt lat="45.81478" lon="5.41187">
        <ele>205.2</ele>
        <time>2019-05-24T19:45:10.743Z</time>
      </trkpt>
      <trkpt lat="45.81442" lon="5.41137">
        <ele>206.4</ele>
        <time>2019-05-24T19:45:11.743Z</time>
      </trkpt>
      <trkpt lat="45.81436" lon="5.41124">
        <ele>207.2</ele>
        <time>2019-05-24T19:45:11.966Z</time>
      </trkpt>
      <trkpt lat="45.81426" lon="5.41096">
        <ele>207.3</ele>
        <time>2019-05-24T19:45:12.408Z</time>
      </trkpt>
      <trkpt lat="45.81412" lon="5.41047">
        <ele>207</ele>
        <time>2019-05-24T19:45:13.144Z</time>
      </trkpt>
      <trkpt lat="45.81406" lon="5.41019">
        <ele>207.3</ele>
        <time>2019-05-24T19:45:13.554Z</time>
      </trkpt>
      <trkpt lat="45.81391" lon="5.40955">
        <ele>207.9</ele>
        <time>2019-05-24T19:45:14.494Z</time>
      </trkpt>
      <trkpt lat="45.81387" lon="5.40952">
        <ele>208.2</ele>
        <time>2019-05-24T19:45:14.587Z</time>
      </trkpt>
      <trkpt lat="45.81387" lon="5.40957">
        <ele>208.2</ele>
        <time>2019-05-24T19:45:14.665Z</time>
      </trkpt>
      <trkpt lat="45.81388" lon="5.40957">
        <ele>208.1</ele>
        <time>2019-05-24T19:45:14.691Z</time>
      </trkpt>
      <trkpt lat="45.81388" lon="5.40951">
        <ele>208.1</ele>
        <time>2019-05-24T19:45:14.781Z</time>
      </trkpt>
      <trkpt lat="45.81368" lon="5.40878">
        <ele>207.9</ele>
        <time>2019-05-24T19:45:15.866Z</time>
      </trkpt>
      <trkpt lat="45.81359" lon="5.40848">
        <ele>208.2</ele>
        <time>2019-05-24T19:45:16.331Z</time>
      </trkpt>
      <trkpt lat="45.81346" lon="5.40818">
        <ele>209</ele>
        <time>2019-05-24T19:45:16.818Z</time>
      </trkpt>
      <trkpt lat="45.8133" lon="5.40792">
        <ele>208.8</ele>
        <time>2019-05-24T19:45:17.306Z</time>
      </trkpt>
      <trkpt lat="45.81327" lon="5.40773">
        <ele>208.6</ele>
        <time>2019-05-24T19:45:17.571Z</time>
      </trkpt>
      <trkpt lat="45.81332" lon="5.40745">
        <ele>208.4</ele>
        <time>2019-05-24T19:45:17.986Z</time>
      </trkpt>
      <trkpt lat="45.81333" lon="5.40737">
        <ele>209</ele>
        <time>2019-05-24T19:45:18.097Z</time>
      </trkpt>
      <trkpt lat="45.8133" lon="5.40736">
        <ele>209</ele>
        <time>2019-05-24T19:45:18.148Z</time>
      </trkpt>
      <trkpt lat="45.81332" lon="5.40745">
        <ele>208.4</ele>
        <time>2019-05-24T19:45:18.275Z</time>
      </trkpt>
      <trkpt lat="45.81331" lon="5.40755">
        <ele>208.1</ele>
        <time>2019-05-24T19:45:18.420Z</time>
      </trkpt>
      <trkpt lat="45.81325" lon="5.40775">
        <ele>208.9</ele>
        <time>2019-05-24T19:45:18.726Z</time>
      </trkpt>
      <trkpt lat="45.81327" lon="5.40792">
        <ele>209.1</ele>
        <time>2019-05-24T19:45:18.965Z</time>
      </trkpt>
      <trkpt lat="45.81342" lon="5.40815">
        <ele>209.1</ele>
        <time>2019-05-24T19:45:19.406Z</time>
      </trkpt>
      <trkpt lat="45.81355" lon="5.40842">
        <ele>208.6</ele>
        <time>2019-05-24T19:45:19.869Z</time>
      </trkpt>
      <trkpt lat="45.81372" lon="5.40892">
        <ele>208.1</ele>
        <time>2019-05-24T19:45:20.638Z</time>
      </trkpt>
      <trkpt lat="45.81383" lon="5.40933">
        <ele>208</ele>
        <time>2019-05-24T19:45:21.263Z</time>
      </trkpt>
      <trkpt lat="45.81409" lon="5.41015">
        <ele>206.9</ele>
        <time>2019-05-24T19:45:22.509Z</time>
      </trkpt>
      <trkpt lat="45.81426" lon="5.41091">
        <ele>207</ele>
        <time>2019-05-24T19:45:23.629Z</time>
      </trkpt>
      <trkpt lat="45.81434" lon="5.41109">
        <ele>207</ele>
        <time>2019-05-24T19:45:23.932Z</time>
      </trkpt>
      <trkpt lat="45.81459" lon="5.41153">
        <ele>206</ele>
        <time>2019-05-24T19:45:24.720Z</time>
      </trkpt>
      <trkpt lat="45.81467" lon="5.41159">
        <ele>205.9</ele>
        <time>2019-05-24T19:45:24.906Z</time>
      </trkpt>
      <trkpt lat="45.81539" lon="5.41165">
        <ele>206.9</ele>
        <time>2019-05-24T19:45:26.351Z</time>
      </trkpt>
      <trkpt lat="45.81573" lon="5.41173">
        <ele>205.5</ele>
        <time>2019-05-24T19:45:27.032Z</time>
      </trkpt>
      <trkpt lat="45.81611" lon="5.41189">
        <ele>205.8</ele>
        <time>2019-05-24T19:45:27.829Z</time>
      </trkpt>
      <trkpt lat="45.81635" lon="5.41206">
        <ele>206</ele>
        <time>2019-05-24T19:45:28.371Z</time>
      </trkpt>
      <trkpt lat="45.81644" lon="5.41215">
        <ele>205.6</ele>
        <time>2019-05-24T19:45:28.591Z</time>
      </trkpt>
      <trkpt lat="45.81651" lon="5.41236">
        <ele>204.9</ele>
        <time>2019-05-24T19:45:28.917Z</time>
      </trkpt>
      <trkpt lat="45.81668" lon="5.41301">
        <ele>204.2</ele>
        <time>2019-05-24T19:45:29.877Z</time>
      </trkpt>
      <trkpt lat="45.81703" lon="5.41447">
        <ele>203.6</ele>
        <time>2019-05-24T19:45:32.035Z</time>
      </trkpt>
      <trkpt lat="45.81716" lon="5.41518">
        <ele>202.9</ele>
        <time>2019-05-24T19:45:33.059Z</time>
      </trkpt>
      <trkpt lat="45.81723" lon="5.41573">
        <ele>202.4</ele>
        <time>2019-05-24T19:45:33.841Z</time>
      </trkpt>
      <trkpt lat="45.81729" lon="5.41593">
        <ele>202</ele>
        <time>2019-05-24T19:45:34.149Z</time>
      </trkpt>
      <trkpt lat="45.8174" lon="5.41608">
        <ele>202</ele>
        <time>2019-05-24T19:45:34.453Z</time>
      </trkpt>
      <trkpt lat="45.81757" lon="5.41624">
        <ele>201.7</ele>
        <time>2019-05-24T19:45:34.866Z</time>
      </trkpt>
      <trkpt lat="45.81772" lon="5.41646">
        <ele>201.8</ele>
        <time>2019-05-24T19:45:35.292Z</time>
      </trkpt>
      <trkpt lat="45.81775" lon="5.41653">
        <ele>201.9</ele>
        <time>2019-05-24T19:45:35.401Z</time>
      </trkpt>
      <trkpt lat="45.81783" lon="5.41696">
        <ele>202</ele>
        <time>2019-05-24T19:45:36.026Z</time>
      </trkpt>
      <trkpt lat="45.81792" lon="5.4171">
        <ele>202.3</ele>
        <time>2019-05-24T19:45:36.297Z</time>
      </trkpt>
      <trkpt lat="45.81814" lon="5.4172">
        <ele>202.6</ele>
        <time>2019-05-24T19:45:36.750Z</time>
      </trkpt>
      <trkpt lat="45.81843" lon="5.41792">
        <ele>202.7</ele>
        <time>2019-05-24T19:45:37.918Z</time>
      </trkpt>
      <trkpt lat="45.81862" lon="5.41823">
        <ele>202.6</ele>
        <time>2019-05-24T19:45:38.485Z</time>
      </trkpt>
      <trkpt lat="45.81866" lon="5.41846">
        <ele>202.8</ele>
        <time>2019-05-24T19:45:38.830Z</time>
      </trkpt>
      <trkpt lat="45.8187" lon="5.41858">
        <ele>202.7</ele>
        <time>2019-05-24T19:45:39.017Z</time>
      </trkpt>
      <trkpt lat="45.81885" lon="5.41876">
        <ele>203.2</ele>
        <time>2019-05-24T19:45:39.394Z</time>
      </trkpt>
      <trkpt lat="45.81894" lon="5.41882">
        <ele>203.4</ele>
        <time>2019-05-24T19:45:39.589Z</time>
      </trkpt>
      <trkpt lat="45.81912" lon="5.4189">
        <ele>203.2</ele>
        <time>2019-05-24T19:45:39.980Z</time>
      </trkpt>
      <trkpt lat="45.8194" lon="5.41899">
        <ele>203.4</ele>
        <time>2019-05-24T19:45:40.557Z</time>
      </trkpt>
      <trkpt lat="45.82035" lon="5.41925">
        <ele>203.5</ele>
        <time>2019-05-24T19:45:42.480Z</time>
      </trkpt>
      <trkpt lat="45.82052" lon="5.41932">
        <ele>203.9</ele>
        <time>2019-05-24T19:45:42.844Z</time>
      </trkpt>
      <trkpt lat="45.82071" lon="5.41949">
        <ele>203.9</ele>
        <time>2019-05-24T19:45:43.299Z</time>
      </trkpt>
      <trkpt lat="45.82091" lon="5.41957">
        <ele>204.1</ele>
        <time>2019-05-24T19:45:43.704Z</time>
      </trkpt>
      <trkpt lat="45.8211" lon="5.41959">
        <ele>204.5</ele>
        <time>2019-05-24T19:45:44.099Z</time>
      </trkpt>
      <trkpt lat="45.82123" lon="5.41963">
        <ele>204.2</ele>
        <time>2019-05-24T19:45:44.353Z</time>
      </trkpt>
      <trkpt lat="45.82143" lon="5.41972">
        <ele>204</ele>
        <time>2019-05-24T19:45:44.773Z</time>
      </trkpt>
      <trkpt lat="45.82149" lon="5.41979">
        <ele>203.8</ele>
        <time>2019-05-24T19:45:44.940Z</time>
      </trkpt>
      <trkpt lat="45.8216" lon="5.41981">
        <ele>203.7</ele>
        <time>2019-05-24T19:45:45.144Z</time>
      </trkpt>
      <trkpt lat="45.82194" lon="5.41949">
        <ele>204.8</ele>
        <time>2019-05-24T19:45:45.961Z</time>
      </trkpt>
      <trkpt lat="45.82205" lon="5.41946">
        <ele>204.9</ele>
        <time>2019-05-24T19:45:46.183Z</time>
      </trkpt>
      <trkpt lat="45.8222" lon="5.4196">
        <ele>204.5</ele>
        <time>2019-05-24T19:45:46.536Z</time>
      </trkpt>
      <trkpt lat="45.82252" lon="5.41996">
        <ele>205.1</ele>
        <time>2019-05-24T19:45:47.354Z</time>
      </trkpt>
      <trkpt lat="45.82266" lon="5.42027">
        <ele>204.6</ele>
        <time>2019-05-24T19:45:47.875Z</time>
      </trkpt>
      <trkpt lat="45.82277" lon="5.42027">
        <ele>205</ele>
        <time>2019-05-24T19:45:48.109Z</time>
      </trkpt>
      <trkpt lat="45.82291" lon="5.42022">
        <ele>204.6</ele>
        <time>2019-05-24T19:45:48.390Z</time>
      </trkpt>
      <trkpt lat="45.82305" lon="5.42021">
        <ele>204.3</ele>
        <time>2019-05-24T19:45:48.673Z</time>
      </trkpt>
      <trkpt lat="45.8234" lon="5.42032">
        <ele>204.9</ele>
        <time>2019-05-24T19:45:49.393Z</time>
      </trkpt>
      <trkpt lat="45.82366" lon="5.42048">
        <ele>205</ele>
        <time>2019-05-24T19:45:49.959Z</time>
      </trkpt>
      <trkpt lat="45.82389" lon="5.42069">
        <ele>204.5</ele>
        <time>2019-05-24T19:45:50.513Z</time>
      </trkpt>
      <trkpt lat="45.8241" lon="5.42095">
        <ele>204.8</ele>
        <time>2019-05-24T19:45:51.062Z</time>
      </trkpt>
      <trkpt lat="45.82419" lon="5.42112">
        <ele>205</ele>
        <time>2019-05-24T19:45:51.351Z</time>
      </trkpt>
      <trkpt lat="45.82427" lon="5.42122">
        <ele>204.8</ele>
        <time>2019-05-24T19:45:51.566Z</time>
      </trkpt>
      <trkpt lat="45.82429" lon="5.42121">
        <ele>204.8</ele>
        <time>2019-05-24T19:45:51.605Z</time>
      </trkpt>
      <trkpt lat="45.82435" lon="5.42111">
        <ele>205</ele>
        <time>2019-05-24T19:45:51.794Z</time>
      </trkpt>
      <trkpt lat="45.8244" lon="5.42104">
        <ele>205</ele>
        <time>2019-05-24T19:45:51.936Z</time>
      </trkpt>
      <trkpt lat="45.82463" lon="5.42106">
        <ele>205</ele>
        <time>2019-05-24T19:45:52.398Z</time>
      </trkpt>
      <trkpt lat="45.82486" lon="5.42098">
        <ele>204.7</ele>
        <time>2019-05-24T19:45:52.870Z</time>
      </trkpt>
      <trkpt lat="45.82523" lon="5.4208">
        <ele>205</ele>
        <time>2019-05-24T19:45:53.655Z</time>
      </trkpt>
      <trkpt lat="45.82553" lon="5.42069">
        <ele>204.5</ele>
        <time>2019-05-24T19:45:54.269Z</time>
      </trkpt>
      <trkpt lat="45.8257" lon="5.42058">
        <ele>202.5</ele>
        <time>2019-05-24T19:45:54.657Z</time>
      </trkpt>
      <trkpt lat="45.82574" lon="5.42037">
        <ele>201.1</ele>
        <time>2019-05-24T19:45:54.954Z</time>
      </trkpt>
      <trkpt lat="45.82574" lon="5.42025">
        <ele>200.7</ele>
        <time>2019-05-24T19:45:55.119Z</time>
      </trkpt>
      <trkpt lat="45.82573" lon="5.41994">
        <ele>201.4</ele>
        <time>2019-05-24T19:45:55.551Z</time>
      </trkpt>
      <trkpt lat="45.82571" lon="5.41982">
        <ele>201.5</ele>
        <time>2019-05-24T19:45:55.734Z</time>
      </trkpt>
      <trkpt lat="45.82553" lon="5.41952">
        <ele>202</ele>
        <time>2019-05-24T19:45:56.281Z</time>
      </trkpt>
      <trkpt lat="45.82546" lon="5.41929">
        <ele>202</ele>
        <time>2019-05-24T19:45:56.629Z</time>
      </trkpt>
      <trkpt lat="45.82537" lon="5.41915">
        <ele>202</ele>
        <time>2019-05-24T19:45:56.895Z</time>
      </trkpt>
      <trkpt lat="45.8253" lon="5.41892">
        <ele>202</ele>
        <time>2019-05-24T19:45:57.246Z</time>
      </trkpt>
      <trkpt lat="45.82521" lon="5.41875">
        <ele>202</ele>
        <time>2019-05-24T19:45:57.538Z</time>
      </trkpt>
      <trkpt lat="45.82516" lon="5.4185">
        <ele>202.2</ele>
        <time>2019-05-24T19:45:57.897Z</time>
      </trkpt>
      <trkpt lat="45.82509" lon="5.41829">
        <ele>202.3</ele>
        <time>2019-05-24T19:45:58.232Z</time>
      </trkpt>
      <trkpt lat="45.8251" lon="5.41813">
        <ele>202.4</ele>
        <time>2019-05-24T19:45:58.450Z</time>
      </trkpt>
    </trkseg>
  </trk>
</gpx>